GEFSSE_prec_meanprecacc_024.txt.gz
Total_Precipitation_Accumulation
0.00 0.00 0.00 0.00 0.00 0.00 0.00 0.00 0.01 0.02 0.03 0.04 0.04 0.04 0.04 0.04 0.03 0.02 0.01 0.02 0.02 0.05 0.09 0.11 0.12 0.14 0.16 0.11 0.04 0.01 0.00 0.00 0.00 0.01 0.01 0.00 0.01 0.01 0.02 0.02 0.03 0.04 0.01
0.01 0.00 0.00 0.00 0.00 0.00 0.00 0.00 0.01 0.02 0.02 0.02 0.03 0.03 0.03 0.02 0.03 0.02 0.02 0.02 0.03 0.05 0.07 0.08 0.10 0.11 0.09 0.05 0.01 0.00 0.00 0.00 0.00 0.00 0.01 0.06 0.08 0.05 0.07 0.12 0.10 0.07 0.01
0.01 0.00 0.00 0.00 0.00 0.00 0.00 0.00 0.01 0.02 0.02 0.02 0.02 0.02 0.02 0.02 0.02 0.03 0.02 0.03 0.06 0.08 0.08 0.07 0.06 0.05 0.03 0.01 0.00 0.00 0.00 0.00 0.00 0.00 0.04 0.24 0.31 0.21 0.16 0.15 0.15 0.09 0.06
0.01 0.00 0.00 0.00 0.00 0.00 0.00 0.00 0.01 0.01 0.02 0.02 0.02 0.02 0.01 0.02 0.03 0.03 0.04 0.05 0.09 0.12 0.11 0.07 0.05 0.03 0.01 0.00 0.00 0.00 0.00 0.00 0.00 0.03 0.12 0.31 0.51 0.44 0.19 0.14 0.12 0.14 0.19
0.00 0.00 0.00 0.00 0.01 0.00 0.00 0.00 0.00 0.01 0.01 0.02 0.02 0.02 0.02 0.02 0.03 0.04 0.08 0.11 0.13 0.14 0.14 0.11 0.07 0.04 0.01 0.00 0.00 0.00 0.00 0.00 0.01 0.05 0.16 0.41 0.63 0.43 0.24 0.18 0.16 0.16 0.23
0.01 0.00 0.00 0.01 0.01 0.01 0.00 0.00 0.01 0.01 0.01 0.02 0.02 0.03 0.03 0.03 0.04 0.07 0.15 0.21 0.19 0.17 0.20 0.20 0.16 0.10 0.04 0.02 0.01 0.00 0.00 0.00 0.03 0.08 0.17 0.46 0.61 0.37 0.27 0.20 0.16 0.18 0.22
0.01 0.00 0.00 0.01 0.02 0.01 0.00 0.00 0.01 0.01 0.03 0.04 0.04 0.04 0.04 0.05 0.06 0.12 0.19 0.22 0.21 0.21 0.22 0.19 0.13 0.07 0.05 0.05 0.03 0.02 0.02 0.02 0.02 0.06 0.14 0.33 0.39 0.22 0.18 0.13 0.12 0.13 0.16
0.02 0.00 0.00 0.01 0.03 0.02 0.01 0.01 0.02 0.03 0.04 0.05 0.06 0.06 0.04 0.04 0.06 0.11 0.16 0.19 0.20 0.18 0.14 0.11 0.09 0.08 0.09 0.09 0.07 0.07 0.06 0.04 0.02 0.03 0.11 0.19 0.19 0.09 0.06 0.04 0.03 0.03 0.04
0.02 0.01 0.01 0.02 0.02 0.01 0.01 0.02 0.02 0.03 0.03 0.04 0.04 0.04 0.03 0.05 0.07 0.10 0.13 0.18 0.19 0.12 0.08 0.08 0.07 0.06 0.06 0.06 0.05 0.03 0.02 0.01 0.01 0.01 0.03 0.03 0.03 0.01 0.01 0.01 0.00 0.00 0.00
0.07 0.04 0.04 0.05 0.02 0.01 0.01 0.01 0.01 0.01 0.01 0.01 0.02 0.02 0.04 0.08 0.09 0.12 0.09 0.10 0.11 0.07 0.03 0.03 0.02 0.01 0.01 0.01 0.01 0.00 0.00 0.00 0.00 0.00 0.00 0.00 0.00 0.00 0.00 0.00 0.00 0.00 0.00
0.19 0.17 0.16 0.10 0.03 0.01 0.01 0.00 0.00 0.00 0.00 0.00 0.02 0.03 0.07 0.11 0.12 0.13 0.08 0.07 0.05 0.02 0.01 0.00 0.00 0.00 0.00 0.00 0.00 0.00 0.00 0.00 0.00 0.00 0.00 0.00 0.00 0.00 0.00 0.00 0.00 0.00 0.00
0.25 0.25 0.08 0.06 0.01 0.00 0.00 0.00 0.00 0.00 0.00 0.01 0.05 0.03 0.09 0.13 0.13 0.09 0.05 0.03 0.01 0.00 0.00 0.00 0.00 0.00 0.00 0.00 0.00 0.00 0.00 0.00 0.00 0.00 0.00 0.00 0.00 0.00 0.00 0.00 0.00 0.00 0.00
0.06 0.04 0.03 0.02 0.00 0.00 0.00 0.00 0.00 0.01 0.01 0.02 0.03 0.04 0.07 0.06 0.04 0.03 0.02 0.01 0.01 0.00 0.00 0.00 0.00 0.00 0.00 0.00 0.00 0.00 0.00 0.00 0.00 0.00 0.00 0.00 0.00 0.00 0.00 0.00 0.00 0.00 0.00
0.05 0.02 0.01 0.01 0.01 0.00 0.00 0.00 0.00 0.00 0.01 0.01 0.01 0.01 0.03 0.04 0.04 0.02 0.02 0.01 0.01 0.00 0.00 0.00 0.00 0.00 0.00 0.00 0.00 0.00 0.00 0.00 0.00 0.00 0.00 0.00 0.00 0.00 0.00 0.00 0.00 0.00 0.00
0.07 0.03 0.01 0.01 0.00 0.00 0.00 0.00 0.00 0.00 0.00 0.00 0.00 0.00 0.01 0.01 0.02 0.01 0.00 0.00 0.00 0.00 0.00 0.00 0.00 0.00 0.00 0.00 0.00 0.00 0.00 0.00 0.00 0.00 0.00 0.00 0.00 0.00 0.00 0.00 0.00 0.01 0.01
0.09 0.03 0.02 0.01 0.00 0.00 0.00 0.00 0.00 0.00 0.01 0.01 0.01 0.01 0.01 0.01 0.02 0.01 0.01 0.01 0.00 0.00 0.00 0.00 0.00 0.00 0.00 0.00 0.00 0.00 0.00 0.00 0.00 0.00 0.00 0.00 0.01 0.00 0.01 0.01 0.01 0.01 0.01
0.13 0.06 0.05 0.01 0.01 0.01 0.01 0.00 0.01 0.02 0.03 0.04 0.03 0.02 0.01 0.01 0.02 0.01 0.01 0.01 0.01 0.00 0.00 0.00 0.00 0.00 0.00 0.00 0.00 0.00 0.00 0.00 0.00 0.01 0.01 0.02 0.02 0.02 0.02 0.02 0.01 0.01 0.01
0.18 0.15 0.08 0.01 0.01 0.01 0.01 0.01 0.01 0.02 0.03 0.04 0.04 0.02 0.01 0.01 0.00 0.00 0.01 0.01 0.00 0.00 0.00 0.00 0.00 0.00 0.01 0.01 0.01 0.01 0.01 0.02 0.02 0.03 0.02 0.02 0.02 0.02 0.03 0.03 0.02 0.02 0.02
0.10 0.08 0.04 0.03 0.02 0.02 0.02 0.01 0.02 0.04 0.05 0.04 0.04 0.02 0.01 0.00 0.00 0.00 0.01 0.01 0.00 0.00 0.01 0.02 0.04 0.05 0.05 0.04 0.03 0.03 0.04 0.05 0.06 0.05 0.04 0.03 0.03 0.03 0.02 0.03 0.02 0.04 0.04
0.09 0.09 0.09 0.06 0.04 0.04 0.04 0.03 0.03 0.03 0.03 0.03 0.03 0.03 0.02 0.02 0.02 0.02 0.02 0.02 0.02 0.04 0.06 0.09 0.10 0.08 0.06 0.05 0.03 0.02 0.03 0.04 0.04 0.04 0.04 0.03 0.03 0.02 0.02 0.01 0.01 0.02 0.04
0.21 0.17 0.14 0.10 0.12 0.11 0.09 0.06 0.05 0.04 0.03 0.03 0.03 0.03 0.04 0.04 0.04 0.05 0.08 0.09 0.08 0.08 0.07 0.07 0.06 0.04 0.03 0.02 0.02 0.02 0.01 0.01 0.01 0.01 0.01 0.01 0.01 0.01 0.00 0.01 0.01 0.01 0.03
0.32 0.26 0.22 0.23 0.20 0.14 0.13 0.12 0.08 0.05 0.05 0.05 0.05 0.05 0.03 0.03 0.04 0.05 0.05 0.05 0.04 0.04 0.04 0.03 0.02 0.02 0.02 0.02 0.02 0.02 0.01 0.00 0.00 0.00 0.00 0.00 0.00 0.00 0.00 0.00 0.00 0.00 0.01
0.33 0.32 0.32 0.35 0.32 0.24 0.21 0.17 0.14 0.12 0.11 0.09 0.06 0.05 0.04 0.04 0.06 0.07 0.04 0.02 0.01 0.01 0.01 0.01 0.00 0.01 0.01 0.01 0.01 0.02 0.02 0.01 0.00 0.00 0.00 0.00 0.00 0.00 0.00 0.00 0.00 0.01 0.01
0.29 0.31 0.31 0.33 0.36 0.33 0.30 0.22 0.21 0.18 0.13 0.10 0.08 0.06 0.04 0.04 0.03 0.02 0.01 0.00 0.00 0.00 0.00 0.00 0.00 0.00 0.01 0.01 0.01 0.01 0.02 0.03 0.03 0.02 0.00 0.00 0.00 0.00 0.00 0.00 0.00 0.00 0.00
0.28 0.33 0.38 0.40 0.42 0.40 0.35 0.29 0.26 0.21 0.16 0.11 0.07 0.05 0.02 0.01 0.00 0.00 0.00 0.00 0.00 0.00 0.00 0.00 0.00 0.01 0.01 0.01 0.01 0.01 0.01 0.01 0.02 0.03 0.02 0.01 0.00 0.00 0.00 0.00 0.01 0.02 0.02
0.24 0.33 0.38 0.40 0.40 0.36 0.32 0.26 0.20 0.17 0.13 0.09 0.05 0.03 0.02 0.00 0.00 0.00 0.00 0.00 0.00 0.00 0.00 0.00 0.00 0.01 0.01 0.01 0.01 0.01 0.02 0.02 0.02 0.02 0.02 0.01 0.01 0.00 0.00 0.00 0.00 0.01 0.01

GEFSSE_prec_meanprecacc_030.txt.gz
Total_Precipitation_Accumulation
0.00 0.00 0.00 0.00 0.00 0.00 0.00 0.00 0.01 0.02 0.03 0.04 0.04 0.04 0.04 0.04 0.03 0.02 0.01 0.02 0.02 0.05 0.09 0.11 0.12 0.14 0.16 0.11 0.04 0.01 0.00 0.00 0.00 0.01 0.01 0.00 0.01 0.01 0.02 0.02 0.03 0.04 0.01
0.01 0.00 0.00 0.00 0.00 0.00 0.00 0.00 0.01 0.02 0.02 0.03 0.03 0.03 0.03 0.02 0.03 0.02 0.02 0.02 0.03 0.06 0.07 0.08 0.10 0.11 0.09 0.05 0.01 0.00 0.00 0.00 0.00 0.00 0.02 0.06 0.08 0.05 0.08 0.12 0.11 0.08 0.01
0.01 0.00 0.00 0.00 0.00 0.00 0.00 0.00 0.01 0.02 0.02 0.02 0.02 0.02 0.02 0.02 0.02 0.03 0.02 0.03 0.06 0.08 0.08 0.07 0.06 0.05 0.03 0.01 0.00 0.00 0.00 0.00 0.00 0.00 0.06 0.28 0.35 0.25 0.18 0.17 0.16 0.10 0.06
0.01 0.00 0.00 0.00 0.00 0.00 0.00 0.00 0.01 0.01 0.02 0.02 0.02 0.02 0.01 0.02 0.03 0.03 0.04 0.05 0.09 0.12 0.11 0.07 0.05 0.03 0.01 0.00 0.00 0.00 0.00 0.00 0.00 0.03 0.14 0.37 0.60 0.53 0.25 0.17 0.14 0.15 0.20
0.00 0.00 0.00 0.00 0.01 0.00 0.00 0.00 0.00 0.01 0.01 0.02 0.02 0.02 0.02 0.02 0.03 0.04 0.08 0.11 0.13 0.14 0.14 0.12 0.07 0.04 0.01 0.00 0.00 0.00 0.00 0.00 0.01 0.07 0.20 0.48 0.76 0.53 0.32 0.24 0.19 0.18 0.24
0.01 0.00 0.00 0.01 0.01 0.01 0.00 0.00 0.01 0.01 0.01 0.02 0.02 0.03 0.03 0.03 0.04 0.07 0.15 0.21 0.20 0.17 0.20 0.20 0.16 0.10 0.04 0.02 0.01 0.00 0.00 0.01 0.04 0.13 0.23 0.55 0.74 0.49 0.37 0.28 0.24 0.22 0.25
0.02 0.00 0.00 0.01 0.02 0.01 0.00 0.00 0.01 0.02 0.03 0.04 0.04 0.04 0.04 0.05 0.06 0.12 0.19 0.22 0.21 0.21 0.22 0.19 0.13 0.07 0.05 0.05 0.03 0.02 0.03 0.02 0.03 0.11 0.22 0.39 0.45 0.30 0.25 0.19 0.17 0.17 0.20
0.02 0.00 0.00 0.01 0.03 0.02 0.01 0.01 0.02 0.03 0.04 0.05 0.06 0.06 0.04 0.04 0.06 0.11 0.16 0.19 0.21 0.18 0.14 0.11 0.09 0.08 0.09 0.09 0.07 0.07 0.06 0.04 0.03 0.07 0.17 0.24 0.22 0.11 0.08 0.06 0.05 0.05 0.06
0.02 0.01 0.01 0.02 0.02 0.02 0.01 0.02 0.02 0.03 0.03 0.04 0.04 0.04 0.03 0.05 0.07 0.10 0.13 0.18 0.19 0.12 0.08 0.08 0.07 0.06 0.06 0.06 0.05 0.03 0.02 0.01 0.01 0.02 0.04 0.05 0.04 0.02 0.01 0.01 0.01 0.00 0.01
0.07 0.04 0.04 0.05 0.02 0.01 0.01 0.01 0.01 0.01 0.01 0.01 0.02 0.02 0.04 0.08 0.09 0.12 0.09 0.10 0.11 0.07 0.03 0.03 0.02 0.01 0.01 0.01 0.01 0.00 0.00 0.00 0.00 0.01 0.01 0.00 0.00 0.00 0.00 0.00 0.00 0.00 0.00
0.19 0.17 0.16 0.10 0.03 0.01 0.01 0.00 0.00 0.00 0.00 0.00 0.02 0.03 0.07 0.11 0.12 0.13 0.08 0.07 0.05 0.02 0.01 0.00 0.00 0.00 0.00 0.00 0.00 0.00 0.00 0.00 0.00 0.00 0.00 0.00 0.00 0.00 0.00 0.00 0.00 0.00 0.00
0.25 0.25 0.08 0.06 0.01 0.00 0.00 0.00 0.00 0.00 0.00 0.01 0.05 0.03 0.09 0.14 0.13 0.09 0.05 0.04 0.01 0.01 0.00 0.00 0.00 0.00 0.00 0.00 0.00 0.00 0.00 0.00 0.00 0.00 0.00 0.00 0.00 0.00 0.00 0.00 0.00 0.00 0.00
0.06 0.05 0.03 0.02 0.00 0.00 0.00 0.00 0.00 0.01 0.01 0.02 0.03 0.04 0.07 0.06 0.05 0.04 0.03 0.02 0.01 0.00 0.00 0.00 0.00 0.00 0.00 0.00 0.00 0.00 0.00 0.00 0.00 0.00 0.00 0.00 0.00 0.00 0.00 0.00 0.00 0.00 0.00
0.07 0.02 0.01 0.01 0.01 0.00 0.00 0.00 0.00 0.01 0.01 0.01 0.01 0.01 0.03 0.06 0.06 0.05 0.04 0.03 0.02 0.01 0.00 0.00 0.00 0.00 0.00 0.00 0.00 0.00 0.00 0.00 0.00 0.00 0.00 0.00 0.00 0.01 0.01 0.00 0.01 0.01 0.01
0.13 0.05 0.02 0.01 0.00 0.00 0.00 0.00 0.00 0.00 0.00 0.00 0.00 0.01 0.01 0.02 0.03 0.02 0.02 0.01 0.01 0.01 0.01 0.01 0.00 0.00 0.00 0.00 0.00 0.00 0.00 0.00 0.00 0.00 0.00 0.00 0.00 0.01 0.01 0.02 0.02 0.02 0.02
0.18 0.07 0.03 0.01 0.00 0.00 0.00 0.00 0.00 0.00 0.01 0.01 0.01 0.01 0.01 0.02 0.02 0.01 0.01 0.01 0.00 0.00 0.00 0.00 0.00 0.00 0.00 0.00 0.00 0.00 0.00 0.00 0.00 0.00 0.00 0.01 0.01 0.02 0.03 0.03 0.04 0.04 0.05
0.25 0.10 0.07 0.04 0.02 0.01 0.01 0.01 0.01 0.02 0.03 0.04 0.03 0.02 0.01 0.01 0.02 0.01 0.01 0.01 0.01 0.00 0.00 0.00 0.00 0.00 0.00 0.00 0.00 0.00 0.00 0.00 0.00 0.01 0.01 0.02 0.03 0.04 0.04 0.04 0.04 0.04 0.04
0.29 0.21 0.14 0.06 0.05 0.03 0.02 0.01 0.01 0.02 0.04 0.04 0.04 0.02 0.01 0.01 0.00 0.00 0.01 0.01 0.01 0.00 0.00 0.00 0.00 0.00 0.01 0.01 0.01 0.01 0.01 0.02 0.02 0.03 0.02 0.03 0.03 0.03 0.04 0.04 0.04 0.05 0.04
0.28 0.21 0.12 0.09 0.06 0.04 0.03 0.01 0.02 0.04 0.05 0.05 0.04 0.02 0.01 0.01 0.00 0.01 0.01 0.01 0.01 0.01 0.01 0.02 0.04 0.05 0.05 0.04 0.03 0.03 0.04 0.05 0.06 0.05 0.04 0.04 0.03 0.03 0.02 0.03 0.04 0.07 0.07
0.35 0.28 0.21 0.14 0.07 0.06 0.06 0.03 0.03 0.03 0.04 0.03 0.04 0.04 0.03 0.03 0.03 0.03 0.03 0.03 0.04 0.05 0.06 0.09 0.10 0.08 0.06 0.05 0.03 0.02 0.03 0.04 0.04 0.04 0.04 0.03 0.03 0.02 0.02 0.01 0.02 0.04 0.06
0.46 0.36 0.24 0.17 0.16 0.14 0.11 0.07 0.06 0.04 0.04 0.05 0.07 0.10 0.11 0.10 0.09 0.09 0.10 0.11 0.10 0.09 0.08 0.07 0.06 0.04 0.03 0.02 0.02 0.02 0.01 0.01 0.01 0.01 0.01 0.01 0.01 0.01 0.01 0.01 0.01 0.01 0.03
0.46 0.38 0.31 0.33 0.30 0.23 0.21 0.18 0.13 0.10 0.11 0.14 0.18 0.19 0.17 0.15 0.12 0.10 0.09 0.08 0.07 0.05 0.04 0.04 0.02 0.02 0.02 0.02 0.02 0.02 0.01 0.00 0.00 0.00 0.00 0.00 0.00 0.00 0.00 0.00 0.00 0.00 0.01
0.43 0.45 0.45 0.51 0.52 0.47 0.45 0.37 0.31 0.29 0.30 0.31 0.30 0.27 0.22 0.18 0.14 0.12 0.08 0.05 0.03 0.02 0.01 0.01 0.00 0.01 0.01 0.01 0.01 0.02 0.02 0.01 0.00 0.00 0.00 0.00 0.00 0.00 0.00 0.00 0.00 0.01 0.01
0.35 0.41 0.46 0.54 0.69 0.81 0.90 0.84 0.72 0.58 0.49 0.45 0.41 0.34 0.26 0.18 0.12 0.08 0.05 0.03 0.02 0.00 0.00 0.00 0.00 0.00 0.01 0.01 0.01 0.01 0.02 0.03 0.03 0.02 0.00 0.00 0.00 0.00 0.00 0.00 0.00 0.00 0.00
0.37 0.50 0.61 0.72 0.88 1.01 1.04 1.02 0.91 0.72 0.61 0.54 0.46 0.34 0.21 0.12 0.08 0.06 0.05 0.04 0.02 0.01 0.00 0.00 0.00 0.01 0.01 0.01 0.01 0.01 0.01 0.01 0.02 0.03 0.02 0.01 0.00 0.00 0.00 0.00 0.01 0.02 0.02
0.42 0.58 0.70 0.77 0.86 0.91 0.87 0.76 0.63 0.58 0.51 0.43 0.33 0.23 0.14 0.09 0.06 0.04 0.03 0.03 0.01 0.00 0.00 0.00 0.00 0.01 0.01 0.01 0.01 0.01 0.02 0.02 0.02 0.02 0.02 0.01 0.01 0.00 0.00 0.00 0.00 0.01 0.01

GEFSSE_prec_meanprecacc_036.txt.gz
Total_Precipitation_Accumulation
0.00 0.00 0.00 0.01 0.01 0.01 0.00 0.00 0.01 0.02 0.03 0.04 0.04 0.04 0.04 0.04 0.03 0.02 0.01 0.02 0.03 0.06 0.09 0.11 0.12 0.14 0.16 0.11 0.04 0.01 0.00 0.00 0.00 0.01 0.01 0.01 0.01 0.02 0.05 0.05 0.03 0.05 0.01
0.01 0.00 0.00 0.00 0.01 0.01 0.00 0.00 0.01 0.02 0.02 0.03 0.03 0.03 0.03 0.02 0.03 0.02 0.02 0.02 0.03 0.06 0.07 0.08 0.10 0.11 0.09 0.05 0.01 0.00 0.00 0.00 0.00 0.01 0.02 0.06 0.08 0.06 0.12 0.17 0.12 0.09 0.02
0.01 0.00 0.00 0.00 0.01 0.01 0.00 0.00 0.01 0.02 0.02 0.02 0.02 0.02 0.02 0.02 0.02 0.03 0.02 0.03 0.06 0.08 0.08 0.07 0.06 0.05 0.03 0.01 0.00 0.00 0.00 0.00 0.00 0.01 0.07 0.28 0.36 0.25 0.20 0.19 0.18 0.11 0.07
0.01 0.00 0.00 0.00 0.01 0.01 0.00 0.00 0.01 0.01 0.02 0.02 0.02 0.02 0.01 0.02 0.03 0.03 0.04 0.05 0.09 0.12 0.11 0.07 0.05 0.03 0.01 0.00 0.00 0.00 0.00 0.00 0.00 0.04 0.15 0.37 0.60 0.54 0.27 0.20 0.16 0.17 0.20
0.00 0.00 0.00 0.01 0.01 0.01 0.00 0.00 0.00 0.01 0.01 0.02 0.02 0.02 0.02 0.02 0.03 0.04 0.08 0.11 0.13 0.14 0.14 0.12 0.07 0.04 0.01 0.00 0.00 0.00 0.00 0.00 0.02 0.08 0.21 0.49 0.77 0.55 0.36 0.28 0.22 0.20 0.25
0.01 0.00 0.00 0.01 0.01 0.01 0.00 0.00 0.01 0.01 0.01 0.02 0.02 0.03 0.03 0.03 0.04 0.07 0.15 0.21 0.20 0.17 0.20 0.20 0.16 0.10 0.04 0.02 0.01 0.00 0.00 0.01 0.04 0.13 0.24 0.57 0.75 0.51 0.40 0.32 0.28 0.26 0.28
0.02 0.00 0.00 0.01 0.02 0.01 0.00 0.01 0.01 0.02 0.03 0.04 0.04 0.04 0.04 0.05 0.06 0.12 0.19 0.22 0.21 0.21 0.22 0.19 0.13 0.07 0.05 0.05 0.03 0.02 0.03 0.02 0.03 0.11 0.22 0.40 0.46 0.31 0.27 0.22 0.20 0.21 0.24
0.02 0.00 0.00 0.01 0.03 0.02 0.01 0.01 0.02 0.03 0.04 0.05 0.06 0.06 0.04 0.04 0.06 0.11 0.16 0.19 0.21 0.18 0.14 0.12 0.09 0.08 0.09 0.09 0.07 0.07 0.06 0.04 0.03 0.07 0.17 0.24 0.23 0.11 0.09 0.07 0.06 0.06 0.08
0.02 0.01 0.01 0.02 0.02 0.02 0.01 0.02 0.02 0.03 0.03 0.04 0.04 0.04 0.03 0.05 0.07 0.10 0.13 0.18 0.19 0.12 0.08 0.08 0.07 0.06 0.06 0.06 0.05 0.03 0.02 0.01 0.01 0.02 0.04 0.05 0.04 0.02 0.01 0.01 0.01 0.01 0.01
0.07 0.04 0.04 0.05 0.02 0.01 0.01 0.01 0.01 0.01 0.01 0.01 0.02 0.02 0.04 0.08 0.09 0.12 0.09 0.10 0.11 0.07 0.04 0.03 0.02 0.01 0.01 0.01 0.01 0.00 0.00 0.00 0.00 0.01 0.01 0.00 0.00 0.01 0.00 0.00 0.00 0.00 0.00
0.19 0.18 0.16 0.10 0.03 0.01 0.01 0.00 0.00 0.00 0.00 0.00 0.02 0.03 0.07 0.11 0.12 0.13 0.08 0.07 0.05 0.02 0.01 0.00 0.00 0.00 0.00 0.00 0.00 0.00 0.00 0.00 0.00 0.00 0.00 0.00 0.00 0.00 0.00 0.00 0.00 0.00 0.00
0.25 0.25 0.08 0.06 0.01 0.00 0.00 0.00 0.00 0.00 0.00 0.01 0.05 0.03 0.09 0.14 0.13 0.09 0.05 0.04 0.01 0.01 0.00 0.00 0.00 0.00 0.00 0.00 0.00 0.00 0.00 0.00 0.00 0.00 0.00 0.00 0.00 0.00 0.00 0.00 0.00 0.00 0.00
0.06 0.05 0.03 0.02 0.00 0.00 0.00 0.00 0.00 0.01 0.01 0.02 0.03 0.04 0.07 0.06 0.05 0.04 0.03 0.02 0.01 0.00 0.00 0.00 0.00 0.00 0.00 0.00 0.00 0.00 0.00 0.00 0.00 0.00 0.00 0.00 0.01 0.01 0.01 0.01 0.00 0.00 0.00
0.07 0.03 0.01 0.01 0.01 0.00 0.00 0.00 0.00 0.01 0.01 0.01 0.01 0.01 0.03 0.06 0.06 0.05 0.04 0.03 0.02 0.01 0.00 0.00 0.00 0.00 0.00 0.00 0.00 0.00 0.00 0.00 0.00 0.00 0.00 0.01 0.01 0.01 0.02 0.02 0.01 0.01 0.01
0.14 0.05 0.02 0.01 0.00 0.00 0.00 0.00 0.00 0.00 0.00 0.00 0.00 0.01 0.01 0.02 0.03 0.02 0.02 0.01 0.01 0.01 0.01 0.01 0.00 0.00 0.00 0.00 0.00 0.00 0.00 0.00 0.00 0.00 0.00 0.01 0.02 0.02 0.03 0.03 0.04 0.04 0.04
0.18 0.07 0.04 0.02 0.01 0.00 0.00 0.00 0.00 0.00 0.01 0.01 0.01 0.01 0.01 0.02 0.02 0.01 0.01 0.01 0.01 0.00 0.00 0.00 0.00 0.00 0.00 0.00 0.00 0.00 0.00 0.00 0.00 0.00 0.00 0.01 0.02 0.03 0.04 0.05 0.06 0.08 0.09
0.25 0.11 0.08 0.04 0.03 0.02 0.01 0.01 0.01 0.02 0.03 0.04 0.03 0.02 0.01 0.01 0.02 0.01 0.02 0.02 0.02 0.01 0.01 0.02 0.02 0.01 0.01 0.01 0.01 0.01 0.00 0.00 0.00 0.01 0.01 0.02 0.03 0.04 0.05 0.06 0.07 0.07 0.08
0.29 0.22 0.15 0.06 0.05 0.04 0.02 0.01 0.01 0.02 0.04 0.04 0.04 0.02 0.01 0.01 0.01 0.03 0.05 0.08 0.07 0.06 0.06 0.05 0.05 0.03 0.03 0.02 0.02 0.02 0.02 0.02 0.02 0.03 0.02 0.03 0.03 0.03 0.04 0.05 0.05 0.07 0.08
0.28 0.22 0.12 0.09 0.06 0.04 0.03 0.02 0.03 0.04 0.06 0.05 0.05 0.04 0.03 0.05 0.08 0.12 0.17 0.18 0.15 0.12 0.11 0.10 0.10 0.09 0.07 0.06 0.04 0.04 0.04 0.05 0.06 0.05 0.04 0.04 0.03 0.03 0.02 0.04 0.05 0.09 0.10
0.35 0.29 0.22 0.14 0.07 0.08 0.08 0.07 0.07 0.07 0.08 0.10 0.13 0.16 0.18 0.22 0.26 0.29 0.29 0.27 0.22 0.18 0.18 0.18 0.16 0.13 0.09 0.07 0.04 0.03 0.04 0.05 0.04 0.04 0.04 0.03 0.03 0.02 0.02 0.01 0.02 0.04 0.07
0.46 0.36 0.24 0.17 0.18 0.19 0.19 0.18 0.20 0.21 0.30 0.42 0.49 0.49 0.51 0.51 0.49 0.46 0.42 0.36 0.28 0.23 0.19 0.15 0.12 0.08 0.06 0.04 0.03 0.02 0.02 0.02 0.01 0.01 0.01 0.01 0.01 0.01 0.01 0.01 0.01 0.01 0.03
0.46 0.38 0.33 0.36 0.37 0.37 0.43 0.49 0.56 0.65 0.78 0.86 0.94 0.96 0.91 0.77 0.65 0.56 0.45 0.34 0.25 0.18 0.14 0.10 0.07 0.04 0.03 0.03 0.03 0.02 0.01 0.00 0.00 0.00 0.00 0.00 0.00 0.00 0.00 0.00 0.00 0.00 0.01
0.43 0.47 0.49 0.58 0.66 0.72 0.84 0.91 0.98 1.14 1.25 1.24 1.17 1.08 1.01 0.89 0.74 0.59 0.43 0.30 0.20 0.14 0.09 0.06 0.03 0.02 0.02 0.01 0.01 0.02 0.02 0.01 0.00 0.00 0.00 0.00 0.00 0.00 0.00 0.00 0.00 0.01 0.01
0.35 0.44 0.52 0.65 0.90 1.21 1.52 1.70 1.72 1.69 1.60 1.42 1.24 1.08 0.93 0.81 0.67 0.51 0.38 0.25 0.16 0.09 0.04 0.02 0.01 0.01 0.01 0.01 0.01 0.01 0.02 0.03 0.03 0.02 0.00 0.00 0.00 0.00 0.00 0.00 0.00 0.00 0.00
0.40 0.55 0.71 0.91 1.24 1.57 1.80 1.94 1.96 1.82 1.58 1.31 1.07 0.86 0.68 0.55 0.46 0.36 0.26 0.17 0.10 0.05 0.03 0.01 0.01 0.01 0.01 0.01 0.01 0.01 0.01 0.01 0.02 0.03 0.02 0.01 0.00 0.00 0.00 0.00 0.01 0.02 0.02
0.47 0.68 0.86 1.06 1.36 1.60 1.68 1.72 1.62 1.50 1.25 0.95 0.69 0.52 0.41 0.34 0.27 0.21 0.16 0.12 0.07 0.04 0.02 0.01 0.01 0.01 0.01 0.01 0.01 0.01 0.02 0.02 0.02 0.02 0.02 0.01 0.01 0.00 0.00 0.00 0.00 0.01 0.01

GEFSSE_prec_meanprecacc_042.txt.gz
Total_Precipitation_Accumulation
0.00 0.00 0.00 0.01 0.01 0.01 0.01 0.02 0.03 0.04 0.05 0.05 0.05 0.05 0.05 0.05 0.04 0.03 0.02 0.02 0.03 0.06 0.10 0.12 0.12 0.14 0.17 0.11 0.04 0.01 0.00 0.00 0.00 0.01 0.02 0.02 0.03 0.04 0.06 0.06 0.04 0.05 0.02
0.01 0.00 0.00 0.01 0.01 0.01 0.01 0.01 0.02 0.03 0.03 0.03 0.03 0.03 0.03 0.03 0.03 0.03 0.03 0.03 0.04 0.06 0.07 0.09 0.10 0.11 0.10 0.05 0.01 0.00 0.00 0.00 0.00 0.01 0.03 0.08 0.10 0.08 0.14 0.17 0.12 0.09 0.02
0.01 0.00 0.00 0.01 0.01 0.01 0.01 0.01 0.01 0.02 0.02 0.02 0.02 0.02 0.02 0.02 0.03 0.03 0.03 0.04 0.07 0.09 0.08 0.07 0.06 0.05 0.03 0.01 0.00 0.00 0.00 0.00 0.00 0.01 0.08 0.30 0.37 0.26 0.21 0.20 0.18 0.12 0.07
0.01 0.00 0.00 0.00 0.01 0.01 0.00 0.01 0.01 0.01 0.02 0.02 0.02 0.02 0.01 0.02 0.03 0.04 0.04 0.06 0.10 0.13 0.11 0.07 0.05 0.03 0.01 0.00 0.00 0.00 0.00 0.00 0.00 0.04 0.15 0.37 0.61 0.54 0.28 0.21 0.17 0.17 0.21
0.00 0.00 0.00 0.01 0.01 0.01 0.00 0.00 0.00 0.01 0.01 0.02 0.02 0.02 0.02 0.03 0.03 0.05 0.08 0.12 0.14 0.14 0.15 0.12 0.07 0.04 0.01 0.00 0.00 0.00 0.00 0.00 0.02 0.08 0.21 0.50 0.79 0.57 0.37 0.30 0.24 0.21 0.27
0.01 0.00 0.00 0.01 0.01 0.01 0.01 0.00 0.01 0.01 0.01 0.02 0.02 0.03 0.03 0.03 0.04 0.07 0.15 0.21 0.20 0.18 0.21 0.20 0.16 0.10 0.04 0.02 0.01 0.00 0.00 0.01 0.05 0.13 0.25 0.57 0.76 0.52 0.41 0.34 0.30 0.28 0.30
0.02 0.00 0.00 0.01 0.02 0.01 0.01 0.01 0.01 0.02 0.03 0.04 0.04 0.04 0.04 0.05 0.06 0.12 0.20 0.22 0.22 0.22 0.23 0.19 0.13 0.07 0.05 0.05 0.03 0.02 0.03 0.02 0.04 0.11 0.23 0.40 0.46 0.32 0.28 0.23 0.21 0.23 0.27
0.02 0.00 0.00 0.01 0.03 0.02 0.01 0.01 0.02 0.03 0.04 0.05 0.06 0.06 0.04 0.04 0.06 0.12 0.16 0.20 0.22 0.19 0.15 0.12 0.09 0.08 0.09 0.09 0.07 0.07 0.07 0.04 0.03 0.07 0.17 0.24 0.23 0.11 0.09 0.07 0.07 0.08 0.09
0.02 0.01 0.01 0.02 0.02 0.02 0.01 0.02 0.02 0.03 0.03 0.04 0.04 0.04 0.03 0.05 0.07 0.10 0.14 0.20 0.21 0.13 0.09 0.08 0.07 0.06 0.06 0.06 0.05 0.03 0.02 0.02 0.01 0.02 0.04 0.05 0.04 0.02 0.02 0.02 0.01 0.01 0.02
0.07 0.04 0.04 0.05 0.02 0.01 0.01 0.01 0.01 0.01 0.01 0.01 0.02 0.02 0.04 0.08 0.09 0.12 0.10 0.12 0.12 0.08 0.04 0.03 0.02 0.01 0.01 0.01 0.01 0.00 0.00 0.00 0.00 0.01 0.01 0.00 0.01 0.01 0.01 0.01 0.01 0.00 0.00
0.19 0.18 0.16 0.10 0.03 0.01 0.01 0.00 0.00 0.00 0.00 0.00 0.02 0.03 0.07 0.11 0.12 0.13 0.08 0.08 0.05 0.03 0.01 0.01 0.00 0.00 0.00 0.00 0.00 0.00 0.00 0.00 0.00 0.00 0.00 0.00 0.00 0.01 0.01 0.01 0.01 0.00 0.00
0.25 0.25 0.08 0.06 0.01 0.00 0.00 0.00 0.00 0.00 0.00 0.01 0.05 0.03 0.09 0.14 0.14 0.10 0.06 0.04 0.02 0.01 0.01 0.00 0.00 0.00 0.00 0.00 0.00 0.00 0.00 0.00 0.00 0.00 0.00 0.00 0.00 0.01 0.01 0.02 0.01 0.01 0.00
0.06 0.05 0.03 0.02 0.00 0.00 0.00 0.00 0.00 0.01 0.01 0.02 0.03 0.04 0.08 0.07 0.05 0.05 0.04 0.03 0.02 0.01 0.01 0.01 0.00 0.00 0.00 0.00 0.00 0.00 0.00 0.00 0.00 0.00 0.00 0.00 0.01 0.01 0.02 0.02 0.01 0.01 0.01
0.07 0.03 0.01 0.01 0.01 0.00 0.00 0.00 0.00 0.01 0.01 0.01 0.01 0.01 0.03 0.06 0.06 0.06 0.05 0.04 0.04 0.03 0.02 0.01 0.00 0.00 0.00 0.00 0.00 0.00 0.00 0.00 0.00 0.00 0.00 0.01 0.01 0.02 0.02 0.03 0.02 0.02 0.02
0.14 0.05 0.02 0.01 0.00 0.00 0.00 0.00 0.00 0.00 0.00 0.00 0.00 0.01 0.02 0.03 0.03 0.03 0.03 0.03 0.03 0.02 0.02 0.01 0.00 0.00 0.00 0.00 0.00 0.00 0.00 0.00 0.00 0.00 0.00 0.01 0.02 0.02 0.03 0.04 0.04 0.04 0.05
0.18 0.07 0.04 0.02 0.01 0.01 0.01 0.00 0.00 0.00 0.01 0.01 0.01 0.01 0.01 0.02 0.04 0.03 0.03 0.04 0.04 0.03 0.03 0.02 0.01 0.01 0.01 0.00 0.00 0.00 0.00 0.00 0.00 0.00 0.00 0.01 0.02 0.03 0.04 0.06 0.07 0.08 0.10
0.25 0.11 0.08 0.04 0.03 0.02 0.01 0.01 0.01 0.02 0.03 0.04 0.04 0.03 0.02 0.02 0.04 0.05 0.07 0.08 0.07 0.06 0.06 0.05 0.05 0.03 0.02 0.02 0.02 0.01 0.01 0.01 0.01 0.01 0.02 0.02 0.03 0.04 0.05 0.06 0.07 0.07 0.09
0.29 0.22 0.15 0.06 0.05 0.04 0.02 0.01 0.01 0.03 0.04 0.06 0.06 0.05 0.03 0.05 0.07 0.11 0.15 0.19 0.18 0.16 0.16 0.16 0.14 0.11 0.08 0.06 0.05 0.04 0.03 0.03 0.03 0.03 0.03 0.03 0.03 0.03 0.04 0.05 0.05 0.07 0.08
0.28 0.22 0.12 0.09 0.06 0.05 0.04 0.03 0.04 0.06 0.08 0.08 0.09 0.09 0.11 0.16 0.22 0.30 0.38 0.38 0.34 0.30 0.28 0.26 0.25 0.21 0.17 0.14 0.10 0.08 0.07 0.07 0.07 0.06 0.05 0.04 0.03 0.03 0.02 0.04 0.05 0.09 0.10
0.35 0.29 0.22 0.14 0.08 0.10 0.11 0.11 0.12 0.13 0.17 0.20 0.25 0.33 0.40 0.50 0.57 0.61 0.61 0.56 0.47 0.41 0.39 0.38 0.34 0.29 0.22 0.17 0.11 0.07 0.06 0.06 0.05 0.05 0.04 0.03 0.03 0.02 0.02 0.01 0.02 0.04 0.07
0.46 0.36 0.25 0.18 0.20 0.24 0.29 0.32 0.44 0.50 0.59 0.77 0.91 0.99 1.03 1.04 0.99 0.95 0.87 0.77 0.64 0.56 0.48 0.38 0.30 0.23 0.18 0.14 0.11 0.07 0.04 0.03 0.02 0.01 0.01 0.01 0.01 0.01 0.01 0.01 0.01 0.01 0.03
0.46 0.39 0.35 0.38 0.41 0.45 0.61 0.81 1.01 1.20 1.39 1.58 1.70 1.70 1.63 1.49 1.35 1.21 1.07 0.92 0.74 0.60 0.48 0.37 0.27 0.19 0.13 0.10 0.09 0.06 0.03 0.01 0.00 0.00 0.00 0.00 0.00 0.00 0.00 0.01 0.00 0.00 0.01
0.43 0.47 0.51 0.62 0.72 0.82 1.04 1.27 1.54 1.85 2.06 2.06 1.95 1.85 1.74 1.59 1.43 1.24 1.05 0.90 0.76 0.59 0.45 0.33 0.22 0.14 0.09 0.06 0.04 0.05 0.04 0.02 0.01 0.00 0.00 0.00 0.00 0.00 0.00 0.00 0.00 0.01 0.01
0.35 0.44 0.54 0.69 0.96 1.29 1.67 1.98 2.18 2.29 2.29 2.11 1.87 1.66 1.42 1.23 1.10 0.96 0.87 0.79 0.64 0.47 0.34 0.23 0.15 0.09 0.06 0.04 0.03 0.03 0.03 0.03 0.03 0.02 0.00 0.00 0.00 0.00 0.00 0.00 0.00 0.00 0.00
0.40 0.55 0.73 0.95 1.29 1.64 1.94 2.16 2.30 2.23 2.00 1.71 1.43 1.15 0.90 0.75 0.71 0.67 0.60 0.49 0.36 0.26 0.20 0.14 0.09 0.07 0.05 0.04 0.03 0.02 0.02 0.01 0.02 0.03 0.02 0.01 0.00 0.00 0.00 0.00 0.01 0.02 0.02
0.48 0.69 0.88 1.09 1.41 1.69 1.80 1.89 1.84 1.74 1.52 1.21 0.92 0.68 0.53 0.45 0.39 0.33 0.29 0.25 0.20 0.14 0.11 0.09 0.06 0.05 0.03 0.03 0.02 0.02 0.02 0.02 0.02 0.02 0.02 0.01 0.01 0.00 0.00 0.00 0.00 0.01 0.01

GEFSSE_prec_meanprecacc_048.txt.gz
Total_Precipitation_Accumulation
0.00 0.00 0.00 0.01 0.01 0.01 0.01 0.03 0.04 0.06 0.06 0.06 0.05 0.05 0.05 0.05 0.04 0.04 0.03 0.04 0.05 0.08 0.13 0.14 0.14 0.15 0.17 0.11 0.04 0.01 0.00 0.00 0.01 0.01 0.02 0.02 0.03 0.04 0.07 0.06 0.05 0.05 0.02
0.01 0.00 0.00 0.01 0.01 0.01 0.01 0.02 0.04 0.05 0.05 0.05 0.05 0.05 0.05 0.05 0.05 0.05 0.05 0.05 0.06 0.08 0.09 0.10 0.11 0.11 0.10 0.05 0.01 0.00 0.00 0.00 0.00 0.01 0.03 0.09 0.10 0.08 0.14 0.18 0.14 0.09 0.02
0.01 0.00 0.00 0.01 0.01 0.01 0.01 0.02 0.04 0.05 0.06 0.06 0.05 0.05 0.05 0.05 0.06 0.06 0.05 0.06 0.09 0.11 0.10 0.08 0.07 0.05 0.03 0.01 0.00 0.00 0.00 0.00 0.01 0.04 0.17 0.39 0.38 0.26 0.21 0.20 0.18 0.12 0.07
0.01 0.00 0.00 0.00 0.01 0.01 0.01 0.02 0.03 0.05 0.05 0.05 0.04 0.04 0.04 0.05 0.05 0.06 0.06 0.08 0.12 0.14 0.12 0.08 0.05 0.03 0.01 0.00 0.00 0.00 0.00 0.00 0.01 0.09 0.35 0.52 0.64 0.54 0.28 0.21 0.17 0.18 0.22
0.00 0.00 0.00 0.01 0.01 0.01 0.00 0.01 0.02 0.03 0.03 0.04 0.04 0.03 0.04 0.04 0.05 0.06 0.10 0.13 0.15 0.15 0.15 0.12 0.07 0.04 0.01 0.00 0.00 0.00 0.00 0.01 0.04 0.13 0.38 0.70 0.87 0.58 0.37 0.30 0.24 0.21 0.27
0.01 0.00 0.00 0.01 0.01 0.01 0.01 0.01 0.01 0.02 0.03 0.03 0.03 0.04 0.04 0.05 0.05 0.09 0.16 0.22 0.21 0.18 0.21 0.20 0.16 0.10 0.04 0.02 0.01 0.00 0.00 0.01 0.06 0.17 0.39 0.89 0.85 0.53 0.41 0.34 0.30 0.29 0.30
0.02 0.00 0.00 0.01 0.02 0.01 0.01 0.01 0.01 0.02 0.04 0.06 0.06 0.05 0.06 0.06 0.07 0.12 0.21 0.23 0.22 0.22 0.23 0.20 0.14 0.07 0.05 0.05 0.03 0.03 0.03 0.03 0.06 0.16 0.37 0.61 0.53 0.33 0.28 0.23 0.22 0.24 0.27
0.02 0.00 0.00 0.01 0.03 0.02 0.01 0.02 0.03 0.04 0.05 0.07 0.07 0.07 0.05 0.05 0.07 0.12 0.17 0.21 0.23 0.20 0.15 0.12 0.09 0.08 0.09 0.09 0.07 0.07 0.07 0.04 0.04 0.10 0.25 0.32 0.26 0.13 0.10 0.08 0.07 0.08 0.10
0.02 0.01 0.01 0.02 0.02 0.02 0.01 0.02 0.03 0.04 0.04 0.05 0.05 0.04 0.03 0.05 0.07 0.11 0.15 0.20 0.21 0.14 0.09 0.09 0.07 0.06 0.06 0.06 0.05 0.03 0.02 0.02 0.02 0.05 0.11 0.10 0.06 0.03 0.03 0.02 0.02 0.02 0.03
0.07 0.04 0.04 0.05 0.02 0.01 0.01 0.01 0.01 0.02 0.02 0.02 0.02 0.02 0.04 0.08 0.09 0.12 0.11 0.12 0.12 0.08 0.05 0.03 0.02 0.01 0.01 0.01 0.01 0.01 0.01 0.00 0.01 0.03 0.03 0.03 0.02 0.01 0.02 0.01 0.01 0.01 0.01
0.19 0.18 0.16 0.10 0.03 0.01 0.01 0.00 0.00 0.00 0.00 0.01 0.02 0.03 0.07 0.12 0.13 0.14 0.09 0.09 0.06 0.03 0.01 0.01 0.00 0.00 0.00 0.00 0.00 0.00 0.00 0.00 0.01 0.02 0.03 0.05 0.04 0.01 0.02 0.02 0.01 0.01 0.00
0.25 0.25 0.08 0.06 0.01 0.00 0.00 0.00 0.00 0.00 0.00 0.01 0.05 0.04 0.09 0.16 0.19 0.15 0.11 0.06 0.02 0.01 0.01 0.00 0.00 0.00 0.00 0.00 0.00 0.00 0.00 0.00 0.01 0.02 0.02 0.02 0.02 0.01 0.02 0.02 0.01 0.01 0.01
0.06 0.05 0.03 0.02 0.00 0.00 0.00 0.00 0.00 0.01 0.01 0.02 0.03 0.05 0.10 0.11 0.08 0.08 0.10 0.07 0.04 0.02 0.02 0.02 0.00 0.00 0.00 0.00 0.00 0.00 0.00 0.00 0.00 0.01 0.02 0.02 0.01 0.02 0.02 0.02 0.02 0.01 0.01
0.07 0.03 0.01 0.01 0.01 0.00 0.00 0.00 0.00 0.01 0.01 0.02 0.02 0.02 0.07 0.11 0.11 0.09 0.12 0.11 0.09 0.07 0.06 0.04 0.02 0.00 0.00 0.00 0.00 0.00 0.00 0.00 0.00 0.00 0.00 0.01 0.01 0.02 0.03 0.03 0.03 0.02 0.02
0.14 0.05 0.02 0.01 0.00 0.00 0.00 0.00 0.00 0.00 0.01 0.01 0.01 0.02 0.04 0.07 0.07 0.08 0.08 0.08 0.06 0.06 0.05 0.04 0.01 0.01 0.01 0.00 0.00 0.00 0.00 0.00 0.00 0.00 0.01 0.02 0.02 0.02 0.04 0.04 0.05 0.05 0.05
0.18 0.07 0.04 0.02 0.01 0.01 0.01 0.00 0.00 0.00 0.02 0.02 0.03 0.03 0.03 0.05 0.08 0.08 0.09 0.10 0.09 0.07 0.07 0.05 0.03 0.02 0.02 0.02 0.01 0.01 0.01 0.01 0.01 0.00 0.01 0.02 0.03 0.03 0.05 0.06 0.07 0.09 0.10
0.25 0.11 0.08 0.04 0.03 0.02 0.01 0.01 0.01 0.02 0.04 0.05 0.06 0.05 0.04 0.05 0.10 0.12 0.14 0.15 0.14 0.12 0.11 0.09 0.07 0.05 0.05 0.04 0.03 0.03 0.02 0.02 0.01 0.02 0.04 0.05 0.05 0.05 0.06 0.06 0.07 0.08 0.09
0.29 0.22 0.15 0.06 0.05 0.04 0.02 0.01 0.01 0.03 0.05 0.07 0.09 0.08 0.07 0.08 0.12 0.18 0.23 0.26 0.26 0.25 0.24 0.22 0.20 0.16 0.13 0.11 0.10 0.08 0.06 0.06 0.05 0.05 0.04 0.05 0.04 0.04 0.05 0.06 0.06 0.07 0.08
0.28 0.22 0.12 0.09 0.06 0.05 0.04 0.03 0.04 0.06 0.08 0.10 0.12 0.12 0.14 0.19 0.26 0.36 0.46 0.47 0.43 0.40 0.37 0.34 0.31 0.29 0.26 0.23 0.17 0.13 0.12 0.11 0.10 0.08 0.07 0.06 0.04 0.04 0.03 0.05 0.06 0.09 0.10
0.35 0.29 0.22 0.14 0.08 0.10 0.12 0.11 0.13 0.15 0.19 0.23 0.28 0.35 0.43 0.52 0.60 0.66 0.67 0.63 0.55 0.50 0.49 0.48 0.43 0.37 0.31 0.25 0.17 0.11 0.09 0.09 0.08 0.06 0.06 0.04 0.03 0.03 0.02 0.02 0.02 0.04 0.07
0.46 0.36 0.25 0.19 0.21 0.26 0.31 0.34 0.47 0.57 0.65 0.82 0.96 1.04 1.07 1.07 1.02 0.98 0.92 0.85 0.74 0.67 0.59 0.47 0.40 0.32 0.26 0.21 0.17 0.12 0.08 0.05 0.04 0.03 0.03 0.02 0.02 0.02 0.01 0.01 0.01 0.01 0.03
0.46 0.39 0.36 0.43 0.47 0.50 0.67 0.87 1.09 1.28 1.46 1.64 1.76 1.75 1.68 1.53 1.37 1.24 1.11 0.98 0.83 0.73 0.61 0.47 0.36 0.28 0.22 0.18 0.16 0.13 0.08 0.03 0.02 0.01 0.01 0.01 0.01 0.01 0.01 0.01 0.01 0.01 0.01
0.44 0.48 0.54 0.70 0.82 0.92 1.12 1.33 1.61 1.91 2.12 2.13 2.02 1.92 1.81 1.64 1.46 1.27 1.09 0.95 0.83 0.68 0.55 0.41 0.30 0.22 0.17 0.13 0.10 0.10 0.08 0.05 0.02 0.01 0.00 0.00 0.00 0.00 0.00 0.00 0.00 0.01 0.01
0.36 0.46 0.58 0.78 1.08 1.41 1.78 2.06 2.25 2.36 2.37 2.20 1.96 1.75 1.49 1.29 1.14 0.99 0.90 0.83 0.68 0.52 0.39 0.28 0.19 0.14 0.10 0.07 0.05 0.05 0.06 0.05 0.05 0.03 0.01 0.00 0.00 0.00 0.00 0.00 0.00 0.01 0.00
0.41 0.58 0.77 1.03 1.41 1.79 2.09 2.32 2.44 2.36 2.15 1.87 1.55 1.26 1.00 0.85 0.79 0.72 0.63 0.52 0.38 0.28 0.22 0.16 0.12 0.10 0.08 0.06 0.05 0.05 0.04 0.03 0.04 0.05 0.03 0.01 0.00 0.00 0.00 0.00 0.01 0.02 0.02
0.51 0.72 0.92 1.16 1.51 1.83 1.96 2.09 2.04 1.95 1.73 1.40 1.08 0.83 0.64 0.53 0.43 0.35 0.31 0.26 0.21 0.15 0.12 0.10 0.08 0.07 0.06 0.05 0.04 0.04 0.04 0.05 0.04 0.04 0.04 0.02 0.01 0.00 0.00 0.00 0.00 0.01 0.01

GEFSSE_prec_meanprecacc_054.txt.gz
Total_Precipitation_Accumulation
0.01 0.00 0.00 0.01 0.01 0.01 0.01 0.03 0.05 0.06 0.06 0.06 0.05 0.05 0.05 0.05 0.05 0.04 0.03 0.04 0.06 0.09 0.13 0.15 0.14 0.16 0.17 0.12 0.04 0.01 0.00 0.01 0.02 0.03 0.03 0.03 0.04 0.05 0.07 0.06 0.05 0.05 0.02
0.01 0.00 0.00 0.01 0.01 0.01 0.01 0.02 0.04 0.05 0.05 0.05 0.05 0.05 0.05 0.05 0.06 0.06 0.05 0.05 0.07 0.09 0.10 0.11 0.11 0.11 0.10 0.05 0.01 0.00 0.00 0.02 0.04 0.06 0.07 0.11 0.12 0.10 0.15 0.18 0.14 0.10 0.03
0.01 0.00 0.00 0.01 0.01 0.01 0.01 0.03 0.04 0.06 0.06 0.06 0.06 0.05 0.05 0.06 0.06 0.06 0.06 0.06 0.09 0.11 0.10 0.08 0.07 0.05 0.03 0.01 0.00 0.00 0.01 0.02 0.05 0.11 0.24 0.42 0.41 0.29 0.23 0.22 0.18 0.12 0.07
0.01 0.00 0.00 0.00 0.01 0.01 0.01 0.02 0.04 0.05 0.05 0.05 0.05 0.04 0.04 0.05 0.06 0.06 0.07 0.08 0.12 0.15 0.12 0.08 0.05 0.03 0.01 0.00 0.00 0.00 0.01 0.02 0.06 0.17 0.45 0.63 0.72 0.59 0.32 0.22 0.17 0.18 0.22
0.01 0.00 0.00 0.01 0.01 0.01 0.01 0.01 0.02 0.03 0.03 0.04 0.04 0.04 0.04 0.04 0.05 0.07 0.11 0.14 0.15 0.15 0.15 0.12 0.07 0.04 0.01 0.00 0.00 0.00 0.01 0.02 0.08 0.23 0.56 0.94 1.02 0.65 0.41 0.31 0.24 0.22 0.27
0.01 0.00 0.00 0.01 0.01 0.01 0.01 0.01 0.01 0.02 0.03 0.04 0.04 0.04 0.05 0.05 0.06 0.09 0.17 0.22 0.21 0.18 0.21 0.20 0.16 0.10 0.04 0.02 0.01 0.00 0.01 0.03 0.10 0.28 0.60 1.22 1.06 0.62 0.45 0.35 0.30 0.29 0.31
0.02 0.00 0.00 0.01 0.02 0.01 0.01 0.01 0.02 0.03 0.04 0.06 0.06 0.06 0.06 0.06 0.07 0.13 0.21 0.23 0.23 0.22 0.23 0.20 0.14 0.07 0.05 0.05 0.03 0.03 0.03 0.04 0.09 0.24 0.53 1.04 0.82 0.43 0.33 0.25 0.23 0.24 0.27
0.02 0.00 0.00 0.01 0.03 0.02 0.01 0.02 0.03 0.04 0.06 0.07 0.07 0.07 0.05 0.05 0.07 0.12 0.17 0.21 0.23 0.20 0.15 0.12 0.09 0.08 0.09 0.09 0.07 0.07 0.07 0.05 0.06 0.16 0.37 0.51 0.40 0.22 0.13 0.10 0.08 0.09 0.10
0.02 0.01 0.01 0.02 0.02 0.02 0.01 0.02 0.03 0.04 0.05 0.05 0.05 0.04 0.03 0.05 0.07 0.11 0.15 0.20 0.21 0.14 0.09 0.09 0.07 0.06 0.06 0.06 0.05 0.03 0.02 0.02 0.04 0.09 0.25 0.24 0.14 0.09 0.06 0.04 0.03 0.02 0.03
0.07 0.04 0.04 0.05 0.02 0.01 0.01 0.01 0.01 0.02 0.02 0.02 0.02 0.02 0.04 0.08 0.09 0.12 0.11 0.12 0.12 0.08 0.05 0.03 0.02 0.01 0.01 0.01 0.01 0.01 0.01 0.01 0.02 0.05 0.08 0.11 0.09 0.05 0.04 0.03 0.02 0.01 0.01
0.19 0.18 0.16 0.10 0.03 0.01 0.01 0.00 0.00 0.00 0.00 0.01 0.02 0.03 0.07 0.12 0.13 0.14 0.09 0.09 0.06 0.03 0.01 0.01 0.00 0.00 0.00 0.00 0.00 0.00 0.00 0.00 0.02 0.04 0.07 0.10 0.11 0.05 0.04 0.03 0.02 0.01 0.00
0.25 0.25 0.08 0.06 0.01 0.00 0.00 0.00 0.00 0.00 0.00 0.01 0.05 0.04 0.09 0.16 0.19 0.15 0.11 0.06 0.03 0.01 0.01 0.00 0.00 0.00 0.00 0.00 0.00 0.00 0.00 0.00 0.02 0.04 0.08 0.09 0.09 0.06 0.04 0.04 0.02 0.02 0.01
0.07 0.05 0.03 0.02 0.00 0.00 0.00 0.00 0.00 0.01 0.01 0.02 0.03 0.05 0.10 0.11 0.08 0.08 0.10 0.07 0.04 0.02 0.03 0.02 0.01 0.00 0.00 0.00 0.00 0.00 0.00 0.00 0.01 0.02 0.06 0.09 0.07 0.07 0.06 0.04 0.03 0.02 0.01
0.08 0.03 0.01 0.01 0.01 0.00 0.00 0.00 0.00 0.01 0.01 0.02 0.02 0.02 0.07 0.11 0.11 0.09 0.12 0.11 0.09 0.07 0.06 0.04 0.03 0.01 0.01 0.01 0.01 0.01 0.00 0.01 0.01 0.02 0.03 0.06 0.06 0.07 0.06 0.05 0.04 0.03 0.02
0.16 0.06 0.03 0.01 0.00 0.00 0.00 0.00 0.00 0.00 0.01 0.01 0.01 0.02 0.04 0.07 0.07 0.08 0.08 0.09 0.07 0.06 0.06 0.04 0.02 0.02 0.03 0.02 0.02 0.01 0.01 0.02 0.02 0.02 0.04 0.07 0.07 0.06 0.07 0.06 0.06 0.06 0.06
0.22 0.09 0.05 0.02 0.01 0.01 0.01 0.00 0.00 0.00 0.02 0.02 0.03 0.03 0.03 0.05 0.08 0.09 0.10 0.11 0.10 0.07 0.08 0.06 0.05 0.05 0.05 0.03 0.03 0.03 0.03 0.03 0.03 0.03 0.03 0.05 0.06 0.06 0.07 0.07 0.09 0.10 0.12
0.28 0.13 0.09 0.05 0.03 0.02 0.01 0.01 0.01 0.02 0.04 0.05 0.06 0.05 0.04 0.05 0.10 0.12 0.15 0.16 0.15 0.13 0.12 0.11 0.10 0.08 0.07 0.07 0.05 0.05 0.05 0.05 0.05 0.06 0.06 0.07 0.07 0.07 0.07 0.07 0.08 0.09 0.11
0.33 0.25 0.17 0.07 0.06 0.04 0.02 0.01 0.01 0.03 0.05 0.07 0.09 0.08 0.07 0.08 0.13 0.18 0.24 0.27 0.27 0.26 0.25 0.24 0.21 0.18 0.16 0.15 0.13 0.12 0.09 0.09 0.08 0.08 0.07 0.07 0.06 0.05 0.06 0.07 0.07 0.08 0.09
0.32 0.24 0.16 0.12 0.08 0.05 0.05 0.04 0.05 0.07 0.09 0.11 0.13 0.14 0.15 0.20 0.27 0.37 0.47 0.48 0.44 0.41 0.38 0.35 0.33 0.31 0.28 0.25 0.20 0.17 0.14 0.12 0.12 0.10 0.09 0.07 0.05 0.04 0.04 0.05 0.06 0.09 0.10
0.41 0.32 0.25 0.18 0.12 0.12 0.14 0.13 0.14 0.16 0.22 0.27 0.32 0.40 0.47 0.58 0.65 0.70 0.71 0.66 0.58 0.52 0.51 0.49 0.44 0.38 0.32 0.26 0.19 0.14 0.11 0.10 0.09 0.08 0.07 0.06 0.04 0.03 0.03 0.02 0.03 0.05 0.08
0.57 0.44 0.32 0.24 0.25 0.30 0.34 0.38 0.52 0.61 0.71 0.89 1.04 1.14 1.19 1.19 1.12 1.06 0.99 0.89 0.76 0.70 0.60 0.48 0.41 0.33 0.27 0.22 0.18 0.13 0.09 0.06 0.04 0.04 0.03 0.02 0.02 0.02 0.01 0.01 0.01 0.01 0.03
0.60 0.56 0.53 0.56 0.55 0.58 0.74 0.95 1.17 1.38 1.58 1.76 1.91 1.95 1.88 1.70 1.51 1.34 1.19 1.03 0.87 0.76 0.63 0.49 0.37 0.29 0.23 0.18 0.17 0.14 0.09 0.04 0.02 0.02 0.01 0.01 0.01 0.01 0.01 0.01 0.01 0.01 0.01
0.56 0.64 0.69 0.83 0.97 1.06 1.26 1.50 1.80 2.11 2.31 2.32 2.22 2.12 1.98 1.80 1.60 1.38 1.19 1.03 0.88 0.72 0.57 0.42 0.30 0.23 0.17 0.13 0.10 0.10 0.09 0.05 0.02 0.01 0.01 0.00 0.00 0.00 0.00 0.00 0.00 0.01 0.01
0.45 0.56 0.70 0.92 1.24 1.59 2.00 2.34 2.55 2.66 2.65 2.50 2.23 1.99 1.72 1.49 1.33 1.16 1.03 0.91 0.73 0.55 0.41 0.29 0.20 0.14 0.10 0.07 0.06 0.06 0.06 0.06 0.06 0.04 0.01 0.00 0.00 0.00 0.00 0.00 0.00 0.01 0.00
0.50 0.69 0.92 1.21 1.63 2.03 2.37 2.64 2.77 2.69 2.50 2.22 1.90 1.57 1.27 1.08 0.99 0.87 0.73 0.58 0.43 0.31 0.24 0.17 0.13 0.10 0.08 0.07 0.06 0.05 0.05 0.04 0.05 0.06 0.03 0.01 0.00 0.00 0.00 0.00 0.01 0.02 0.02
0.59 0.83 1.07 1.34 1.72 2.06 2.24 2.42 2.40 2.32 2.12 1.78 1.43 1.14 0.91 0.76 0.61 0.47 0.38 0.32 0.25 0.17 0.14 0.11 0.08 0.07 0.06 0.05 0.05 0.04 0.05 0.05 0.05 0.05 0.04 0.03 0.02 0.01 0.00 0.00 0.00 0.01 0.01

GEFSSE_prec_meanprecacc_060.txt.gz
Total_Precipitation_Accumulation
0.01 0.00 0.01 0.01 0.01 0.01 0.01 0.03 0.05 0.06 0.06 0.06 0.05 0.05 0.05 0.05 0.05 0.04 0.03 0.04 0.06 0.09 0.13 0.15 0.14 0.16 0.17 0.12 0.04 0.01 0.01 0.01 0.03 0.04 0.05 0.05 0.06 0.07 0.09 0.07 0.05 0.06 0.03
0.01 0.00 0.01 0.01 0.01 0.01 0.01 0.02 0.04 0.05 0.05 0.05 0.05 0.05 0.05 0.05 0.06 0.06 0.05 0.05 0.07 0.09 0.10 0.11 0.11 0.11 0.10 0.05 0.02 0.01 0.01 0.02 0.05 0.08 0.10 0.14 0.15 0.13 0.17 0.19 0.14 0.10 0.03
0.01 0.00 0.00 0.01 0.01 0.01 0.01 0.03 0.04 0.06 0.06 0.06 0.06 0.05 0.05 0.06 0.06 0.06 0.06 0.06 0.09 0.11 0.10 0.08 0.07 0.05 0.03 0.01 0.00 0.00 0.01 0.02 0.06 0.12 0.25 0.43 0.43 0.32 0.25 0.22 0.19 0.12 0.08
0.01 0.00 0.00 0.01 0.01 0.01 0.01 0.02 0.04 0.05 0.05 0.05 0.05 0.04 0.04 0.05 0.06 0.06 0.07 0.08 0.12 0.15 0.13 0.08 0.05 0.03 0.01 0.00 0.00 0.01 0.02 0.03 0.06 0.17 0.45 0.63 0.72 0.60 0.32 0.23 0.17 0.18 0.22
0.01 0.00 0.00 0.01 0.01 0.01 0.01 0.01 0.02 0.03 0.03 0.04 0.04 0.04 0.04 0.04 0.05 0.07 0.11 0.14 0.15 0.15 0.15 0.12 0.07 0.04 0.01 0.00 0.00 0.01 0.01 0.03 0.09 0.23 0.56 0.94 1.02 0.66 0.42 0.31 0.24 0.22 0.27
0.01 0.00 0.00 0.01 0.02 0.01 0.01 0.01 0.01 0.02 0.03 0.04 0.04 0.04 0.05 0.05 0.06 0.09 0.17 0.22 0.21 0.18 0.21 0.20 0.16 0.10 0.04 0.02 0.01 0.01 0.01 0.03 0.11 0.29 0.60 1.22 1.06 0.62 0.46 0.36 0.31 0.29 0.31
0.02 0.00 0.00 0.02 0.03 0.02 0.01 0.01 0.02 0.03 0.04 0.06 0.06 0.06 0.06 0.06 0.07 0.13 0.21 0.23 0.23 0.22 0.23 0.20 0.14 0.07 0.05 0.05 0.03 0.03 0.03 0.04 0.09 0.24 0.53 1.05 0.82 0.45 0.34 0.26 0.24 0.25 0.29
0.02 0.01 0.00 0.02 0.03 0.02 0.01 0.02 0.03 0.04 0.06 0.07 0.07 0.07 0.05 0.05 0.07 0.12 0.17 0.21 0.23 0.20 0.15 0.12 0.09 0.08 0.09 0.09 0.07 0.07 0.07 0.05 0.06 0.16 0.37 0.52 0.41 0.24 0.14 0.11 0.09 0.10 0.12
0.02 0.01 0.01 0.02 0.02 0.02 0.02 0.02 0.03 0.04 0.05 0.05 0.05 0.04 0.03 0.05 0.07 0.11 0.15 0.20 0.21 0.14 0.09 0.09 0.07 0.06 0.06 0.06 0.05 0.03 0.03 0.02 0.04 0.09 0.25 0.24 0.14 0.10 0.07 0.05 0.03 0.03 0.04
0.07 0.04 0.04 0.05 0.02 0.01 0.01 0.01 0.01 0.02 0.02 0.02 0.02 0.02 0.04 0.08 0.09 0.12 0.11 0.12 0.12 0.08 0.05 0.03 0.02 0.01 0.01 0.01 0.01 0.01 0.01 0.01 0.02 0.05 0.08 0.11 0.10 0.06 0.04 0.04 0.02 0.02 0.02
0.19 0.18 0.16 0.11 0.03 0.01 0.01 0.01 0.00 0.00 0.00 0.01 0.02 0.03 0.07 0.12 0.13 0.14 0.09 0.09 0.06 0.03 0.01 0.01 0.00 0.00 0.00 0.00 0.00 0.00 0.00 0.00 0.02 0.04 0.07 0.11 0.13 0.07 0.05 0.04 0.03 0.02 0.01
0.25 0.26 0.08 0.06 0.01 0.00 0.00 0.00 0.00 0.00 0.00 0.01 0.05 0.04 0.09 0.16 0.19 0.15 0.11 0.06 0.03 0.01 0.01 0.01 0.00 0.00 0.00 0.00 0.00 0.00 0.00 0.00 0.02 0.04 0.08 0.11 0.12 0.10 0.07 0.05 0.03 0.02 0.02
0.07 0.05 0.03 0.02 0.00 0.00 0.00 0.00 0.00 0.01 0.01 0.02 0.03 0.05 0.10 0.11 0.08 0.08 0.10 0.07 0.04 0.02 0.03 0.02 0.01 0.00 0.00 0.00 0.00 0.00 0.00 0.01 0.01 0.03 0.07 0.11 0.10 0.11 0.10 0.07 0.04 0.03 0.02
0.08 0.03 0.01 0.01 0.01 0.00 0.00 0.00 0.01 0.01 0.01 0.02 0.02 0.02 0.07 0.11 0.11 0.09 0.12 0.11 0.09 0.08 0.06 0.05 0.03 0.01 0.01 0.01 0.01 0.01 0.01 0.01 0.02 0.02 0.04 0.07 0.08 0.10 0.10 0.08 0.06 0.05 0.04
0.17 0.07 0.03 0.01 0.00 0.00 0.00 0.00 0.00 0.00 0.01 0.01 0.01 0.02 0.04 0.07 0.07 0.08 0.08 0.09 0.07 0.07 0.07 0.05 0.03 0.03 0.03 0.03 0.02 0.01 0.01 0.03 0.03 0.03 0.05 0.09 0.10 0.09 0.11 0.10 0.09 0.09 0.08
0.22 0.09 0.05 0.02 0.01 0.01 0.01 0.00 0.00 0.00 0.02 0.02 0.03 0.03 0.03 0.05 0.08 0.09 0.11 0.12 0.11 0.09 0.09 0.07 0.07 0.07 0.06 0.04 0.04 0.04 0.04 0.05 0.05 0.05 0.04 0.06 0.08 0.08 0.11 0.11 0.13 0.13 0.14
0.29 0.14 0.10 0.05 0.03 0.02 0.01 0.01 0.01 0.02 0.04 0.05 0.06 0.05 0.04 0.05 0.10 0.13 0.16 0.17 0.16 0.15 0.14 0.13 0.13 0.10 0.09 0.07 0.06 0.06 0.07 0.08 0.08 0.08 0.09 0.10 0.10 0.11 0.12 0.12 0.12 0.13 0.14
0.34 0.26 0.18 0.08 0.06 0.04 0.02 0.01 0.01 0.03 0.05 0.07 0.09 0.09 0.07 0.09 0.14 0.20 0.26 0.30 0.31 0.30 0.29 0.29 0.25 0.20 0.17 0.16 0.14 0.12 0.10 0.11 0.11 0.10 0.10 0.10 0.09 0.09 0.10 0.11 0.10 0.11 0.11
0.33 0.26 0.18 0.14 0.10 0.07 0.06 0.06 0.06 0.07 0.10 0.12 0.15 0.17 0.18 0.24 0.34 0.45 0.55 0.56 0.53 0.49 0.47 0.42 0.37 0.34 0.30 0.26 0.20 0.17 0.15 0.14 0.14 0.12 0.11 0.10 0.09 0.08 0.07 0.09 0.09 0.11 0.12
0.42 0.34 0.27 0.19 0.14 0.17 0.20 0.19 0.20 0.23 0.29 0.36 0.42 0.50 0.59 0.71 0.78 0.84 0.84 0.79 0.70 0.66 0.62 0.57 0.51 0.43 0.35 0.28 0.20 0.15 0.12 0.11 0.10 0.09 0.08 0.07 0.06 0.05 0.04 0.03 0.04 0.06 0.08
0.60 0.47 0.34 0.27 0.29 0.37 0.44 0.51 0.69 0.78 0.88 1.08 1.23 1.35 1.42 1.42 1.36 1.30 1.23 1.13 0.99 0.88 0.73 0.58 0.48 0.39 0.31 0.25 0.20 0.15 0.10 0.07 0.05 0.05 0.04 0.03 0.03 0.02 0.02 0.02 0.01 0.01 0.04
0.63 0.59 0.55 0.61 0.66 0.73 0.95 1.24 1.54 1.75 1.94 2.13 2.27 2.31 2.22 2.04 1.87 1.71 1.54 1.35 1.17 1.00 0.81 0.61 0.46 0.37 0.29 0.23 0.20 0.16 0.10 0.05 0.03 0.02 0.02 0.01 0.01 0.01 0.01 0.01 0.01 0.01 0.02
0.61 0.68 0.72 0.90 1.10 1.29 1.61 1.97 2.33 2.69 2.84 2.82 2.65 2.52 2.37 2.19 2.00 1.77 1.55 1.39 1.21 0.98 0.78 0.57 0.41 0.32 0.24 0.18 0.14 0.13 0.10 0.06 0.03 0.01 0.01 0.01 0.01 0.01 0.02 0.02 0.01 0.01 0.01
0.51 0.62 0.77 1.01 1.40 1.86 2.40 2.87 3.15 3.33 3.30 3.13 2.84 2.54 2.24 1.98 1.80 1.60 1.42 1.24 1.00 0.76 0.58 0.42 0.31 0.23 0.17 0.13 0.09 0.08 0.07 0.06 0.06 0.04 0.02 0.01 0.01 0.01 0.02 0.01 0.01 0.01 0.01
0.60 0.81 1.05 1.37 1.88 2.40 2.88 3.25 3.42 3.40 3.24 2.97 2.60 2.21 1.79 1.54 1.41 1.27 1.08 0.89 0.70 0.53 0.40 0.30 0.23 0.17 0.13 0.10 0.08 0.07 0.06 0.05 0.05 0.06 0.04 0.02 0.01 0.01 0.01 0.01 0.01 0.03 0.02
0.73 1.00 1.28 1.58 2.01 2.43 2.72 2.98 2.99 2.94 2.77 2.42 2.01 1.64 1.35 1.15 0.96 0.83 0.70 0.59 0.47 0.34 0.26 0.22 0.17 0.13 0.10 0.08 0.06 0.05 0.06 0.06 0.05 0.05 0.05 0.03 0.02 0.01 0.01 0.01 0.01 0.01 0.01

GEFSSE_prec_meanprecacc_066.txt.gz
Total_Precipitation_Accumulation
0.01 0.00 0.01 0.02 0.03 0.04 0.03 0.04 0.05 0.06 0.07 0.06 0.05 0.05 0.05 0.05 0.05 0.04 0.03 0.04 0.06 0.10 0.13 0.15 0.15 0.16 0.17 0.12 0.04 0.01 0.01 0.01 0.03 0.04 0.05 0.06 0.07 0.08 0.10 0.07 0.06 0.06 0.03
0.01 0.00 0.01 0.01 0.02 0.04 0.03 0.03 0.04 0.06 0.05 0.05 0.05 0.05 0.05 0.05 0.06 0.06 0.05 0.06 0.07 0.09 0.10 0.11 0.12 0.12 0.10 0.05 0.02 0.01 0.01 0.03 0.07 0.10 0.13 0.16 0.16 0.13 0.18 0.20 0.15 0.11 0.04
0.01 0.00 0.01 0.01 0.02 0.03 0.03 0.04 0.05 0.06 0.07 0.06 0.06 0.05 0.05 0.06 0.06 0.06 0.06 0.06 0.09 0.11 0.11 0.09 0.07 0.06 0.03 0.02 0.01 0.01 0.02 0.03 0.08 0.15 0.30 0.48 0.44 0.32 0.25 0.23 0.19 0.13 0.09
0.01 0.00 0.00 0.01 0.01 0.02 0.02 0.03 0.05 0.06 0.06 0.05 0.05 0.04 0.04 0.05 0.06 0.07 0.07 0.09 0.13 0.15 0.13 0.08 0.05 0.03 0.01 0.00 0.00 0.01 0.02 0.04 0.07 0.19 0.48 0.66 0.74 0.61 0.33 0.24 0.18 0.20 0.24
0.01 0.00 0.00 0.01 0.01 0.01 0.01 0.02 0.03 0.03 0.04 0.04 0.04 0.04 0.04 0.04 0.05 0.07 0.11 0.14 0.16 0.16 0.16 0.12 0.08 0.04 0.01 0.00 0.01 0.01 0.02 0.05 0.09 0.24 0.57 0.97 1.06 0.67 0.43 0.33 0.27 0.25 0.31
0.01 0.00 0.00 0.01 0.02 0.01 0.01 0.01 0.02 0.03 0.03 0.04 0.04 0.04 0.05 0.05 0.06 0.10 0.17 0.23 0.21 0.18 0.21 0.20 0.16 0.10 0.04 0.02 0.01 0.01 0.02 0.05 0.12 0.29 0.61 1.24 1.09 0.64 0.48 0.38 0.33 0.33 0.36
0.02 0.00 0.00 0.02 0.03 0.02 0.01 0.01 0.02 0.03 0.04 0.06 0.06 0.06 0.06 0.06 0.08 0.13 0.21 0.24 0.23 0.22 0.23 0.20 0.14 0.07 0.05 0.05 0.04 0.03 0.04 0.06 0.10 0.25 0.54 1.07 0.86 0.48 0.37 0.30 0.27 0.29 0.33
0.02 0.01 0.00 0.02 0.03 0.03 0.01 0.02 0.03 0.04 0.06 0.07 0.07 0.07 0.06 0.05 0.08 0.13 0.18 0.21 0.23 0.20 0.15 0.12 0.09 0.08 0.09 0.09 0.07 0.07 0.08 0.07 0.07 0.17 0.38 0.53 0.43 0.26 0.19 0.16 0.14 0.14 0.16
0.02 0.01 0.01 0.02 0.02 0.03 0.03 0.03 0.04 0.04 0.05 0.05 0.05 0.05 0.04 0.05 0.08 0.11 0.15 0.20 0.21 0.14 0.09 0.09 0.07 0.06 0.06 0.06 0.05 0.04 0.03 0.03 0.04 0.10 0.25 0.25 0.15 0.12 0.11 0.08 0.06 0.07 0.08
0.07 0.04 0.04 0.05 0.03 0.01 0.02 0.03 0.03 0.03 0.03 0.03 0.02 0.02 0.05 0.08 0.09 0.12 0.11 0.12 0.12 0.08 0.05 0.03 0.02 0.01 0.01 0.01 0.01 0.01 0.01 0.01 0.02 0.06 0.09 0.12 0.11 0.08 0.07 0.05 0.04 0.04 0.04
0.19 0.18 0.16 0.11 0.03 0.02 0.02 0.01 0.02 0.02 0.02 0.01 0.02 0.03 0.07 0.12 0.13 0.14 0.09 0.09 0.06 0.03 0.02 0.01 0.00 0.00 0.00 0.00 0.00 0.00 0.01 0.00 0.02 0.04 0.07 0.12 0.15 0.09 0.07 0.06 0.05 0.04 0.03
0.26 0.26 0.08 0.06 0.01 0.01 0.01 0.01 0.01 0.01 0.01 0.02 0.05 0.04 0.09 0.16 0.19 0.15 0.11 0.06 0.03 0.01 0.01 0.01 0.00 0.00 0.00 0.00 0.00 0.00 0.00 0.00 0.02 0.04 0.09 0.12 0.14 0.13 0.09 0.07 0.05 0.04 0.02
0.07 0.05 0.03 0.02 0.01 0.01 0.01 0.02 0.02 0.02 0.03 0.03 0.04 0.05 0.10 0.11 0.08 0.08 0.10 0.07 0.04 0.03 0.04 0.03 0.01 0.01 0.00 0.00 0.00 0.00 0.00 0.01 0.01 0.03 0.07 0.12 0.13 0.15 0.14 0.09 0.06 0.04 0.03
0.08 0.03 0.02 0.01 0.01 0.01 0.01 0.02 0.02 0.02 0.02 0.03 0.03 0.02 0.07 0.12 0.11 0.10 0.12 0.11 0.10 0.08 0.08 0.05 0.03 0.01 0.01 0.01 0.01 0.01 0.01 0.01 0.02 0.03 0.05 0.09 0.11 0.15 0.15 0.12 0.09 0.07 0.06
0.17 0.07 0.03 0.01 0.01 0.01 0.01 0.01 0.01 0.01 0.01 0.01 0.02 0.02 0.05 0.07 0.07 0.08 0.09 0.10 0.09 0.09 0.08 0.06 0.04 0.03 0.04 0.03 0.02 0.01 0.01 0.03 0.03 0.04 0.06 0.11 0.12 0.13 0.16 0.15 0.14 0.12 0.11
0.22 0.10 0.05 0.02 0.01 0.01 0.01 0.01 0.01 0.01 0.02 0.03 0.03 0.03 0.03 0.05 0.09 0.10 0.12 0.14 0.14 0.12 0.11 0.09 0.09 0.08 0.07 0.05 0.04 0.04 0.04 0.05 0.05 0.05 0.06 0.08 0.10 0.11 0.16 0.19 0.19 0.17 0.18
0.29 0.14 0.10 0.06 0.04 0.03 0.02 0.01 0.01 0.03 0.04 0.06 0.08 0.06 0.04 0.06 0.12 0.15 0.19 0.21 0.21 0.20 0.19 0.17 0.16 0.12 0.10 0.08 0.07 0.07 0.07 0.08 0.08 0.08 0.09 0.11 0.12 0.14 0.16 0.18 0.18 0.18 0.19
0.35 0.27 0.19 0.08 0.07 0.05 0.02 0.02 0.02 0.04 0.06 0.08 0.10 0.10 0.08 0.10 0.16 0.23 0.31 0.37 0.40 0.38 0.37 0.37 0.31 0.25 0.21 0.18 0.17 0.14 0.11 0.12 0.11 0.11 0.11 0.11 0.11 0.11 0.13 0.14 0.15 0.16 0.17
0.35 0.28 0.20 0.15 0.11 0.08 0.07 0.06 0.06 0.08 0.11 0.14 0.18 0.19 0.22 0.28 0.39 0.53 0.65 0.68 0.65 0.62 0.59 0.56 0.49 0.44 0.39 0.33 0.25 0.20 0.17 0.15 0.15 0.14 0.12 0.11 0.11 0.10 0.10 0.12 0.13 0.15 0.16
0.44 0.37 0.29 0.21 0.17 0.19 0.22 0.22 0.22 0.24 0.31 0.39 0.48 0.59 0.72 0.84 0.91 0.98 0.99 0.95 0.88 0.87 0.86 0.78 0.67 0.57 0.47 0.38 0.27 0.18 0.15 0.13 0.12 0.10 0.09 0.08 0.07 0.06 0.06 0.06 0.07 0.09 0.12
0.63 0.51 0.36 0.28 0.32 0.41 0.48 0.55 0.72 0.82 0.93 1.14 1.32 1.49 1.63 1.64 1.59 1.54 1.52 1.46 1.30 1.20 1.08 0.89 0.73 0.61 0.47 0.38 0.31 0.23 0.15 0.10 0.07 0.07 0.06 0.04 0.03 0.03 0.02 0.02 0.02 0.03 0.06
0.66 0.63 0.59 0.64 0.70 0.79 1.01 1.31 1.63 1.89 2.11 2.32 2.51 2.62 2.56 2.40 2.24 2.10 1.97 1.77 1.56 1.40 1.19 0.93 0.74 0.61 0.49 0.40 0.36 0.32 0.23 0.13 0.08 0.05 0.03 0.03 0.02 0.01 0.01 0.02 0.02 0.02 0.03
0.64 0.71 0.76 0.93 1.16 1.37 1.73 2.14 2.55 2.98 3.20 3.22 3.12 3.02 2.87 2.69 2.50 2.24 1.99 1.81 1.60 1.37 1.17 0.97 0.76 0.62 0.48 0.37 0.29 0.27 0.22 0.17 0.11 0.05 0.03 0.03 0.02 0.02 0.02 0.02 0.02 0.03 0.02
0.55 0.66 0.80 1.05 1.46 1.93 2.54 3.06 3.42 3.72 3.80 3.72 3.50 3.20 2.86 2.59 2.36 2.06 1.81 1.58 1.35 1.17 1.00 0.81 0.62 0.47 0.37 0.28 0.22 0.17 0.14 0.13 0.13 0.10 0.06 0.04 0.03 0.03 0.02 0.02 0.02 0.02 0.02
0.63 0.85 1.10 1.42 1.94 2.47 2.99 3.42 3.67 3.74 3.68 3.48 3.15 2.78 2.36 2.07 1.88 1.65 1.38 1.17 0.97 0.79 0.65 0.49 0.39 0.32 0.26 0.22 0.19 0.16 0.15 0.13 0.12 0.12 0.08 0.05 0.03 0.02 0.02 0.01 0.02 0.03 0.03
0.77 1.04 1.33 1.65 2.10 2.53 2.83 3.14 3.23 3.25 3.16 2.88 2.51 2.10 1.75 1.51 1.27 1.08 0.90 0.74 0.60 0.46 0.37 0.31 0.26 0.23 0.21 0.19 0.16 0.14 0.13 0.12 0.10 0.10 0.09 0.06 0.04 0.02 0.01 0.01 0.01 0.01 0.01

GEFSSE_prec_meanprecacc_072.txt.gz
Total_Precipitation_Accumulation
0.01 0.00 0.01 0.02 0.03 0.04 0.03 0.04 0.05 0.06 0.07 0.06 0.05 0.05 0.05 0.05 0.05 0.04 0.03 0.04 0.06 0.10 0.13 0.15 0.15 0.16 0.18 0.12 0.04 0.01 0.01 0.02 0.03 0.04 0.05 0.06 0.07 0.08 0.10 0.08 0.08 0.07 0.03
0.01 0.00 0.01 0.01 0.02 0.04 0.04 0.03 0.04 0.06 0.05 0.05 0.05 0.05 0.05 0.05 0.06 0.06 0.05 0.06 0.07 0.09 0.10 0.11 0.12 0.12 0.10 0.05 0.02 0.01 0.01 0.03 0.07 0.10 0.13 0.16 0.16 0.13 0.18 0.21 0.18 0.11 0.05
0.01 0.00 0.01 0.01 0.02 0.03 0.03 0.05 0.06 0.07 0.07 0.07 0.06 0.05 0.05 0.06 0.06 0.06 0.06 0.06 0.10 0.11 0.11 0.09 0.07 0.06 0.04 0.02 0.01 0.01 0.02 0.04 0.09 0.18 0.38 0.53 0.45 0.32 0.26 0.24 0.21 0.13 0.10
0.01 0.00 0.00 0.01 0.01 0.02 0.03 0.04 0.06 0.06 0.06 0.06 0.05 0.05 0.05 0.05 0.06 0.07 0.07 0.09 0.13 0.15 0.13 0.08 0.06 0.03 0.01 0.01 0.01 0.01 0.03 0.05 0.10 0.27 0.67 0.73 0.75 0.61 0.33 0.25 0.20 0.21 0.26
0.01 0.00 0.00 0.01 0.01 0.02 0.02 0.02 0.04 0.05 0.05 0.05 0.05 0.04 0.05 0.05 0.05 0.08 0.11 0.14 0.16 0.16 0.16 0.12 0.08 0.04 0.01 0.01 0.01 0.02 0.03 0.06 0.13 0.34 0.66 1.01 1.10 0.68 0.43 0.34 0.29 0.27 0.34
0.01 0.00 0.00 0.01 0.02 0.02 0.01 0.02 0.04 0.05 0.05 0.05 0.05 0.05 0.06 0.06 0.06 0.10 0.18 0.23 0.21 0.19 0.21 0.20 0.16 0.10 0.04 0.02 0.01 0.02 0.03 0.06 0.16 0.36 0.66 1.26 1.12 0.65 0.48 0.39 0.35 0.35 0.38
0.02 0.00 0.00 0.02 0.03 0.02 0.01 0.02 0.04 0.05 0.07 0.09 0.08 0.07 0.07 0.07 0.08 0.14 0.22 0.24 0.23 0.22 0.23 0.20 0.14 0.07 0.05 0.05 0.04 0.03 0.04 0.06 0.13 0.32 0.59 1.09 0.88 0.48 0.37 0.31 0.29 0.31 0.35
0.02 0.01 0.00 0.02 0.04 0.03 0.02 0.04 0.05 0.06 0.08 0.10 0.10 0.09 0.07 0.06 0.08 0.13 0.18 0.21 0.23 0.20 0.15 0.12 0.09 0.08 0.09 0.09 0.07 0.08 0.08 0.07 0.08 0.20 0.41 0.56 0.44 0.27 0.19 0.16 0.15 0.15 0.18
0.02 0.01 0.01 0.02 0.02 0.03 0.04 0.06 0.07 0.07 0.08 0.09 0.08 0.07 0.05 0.06 0.08 0.12 0.16 0.21 0.21 0.14 0.10 0.09 0.07 0.06 0.06 0.06 0.05 0.04 0.03 0.03 0.05 0.11 0.29 0.30 0.18 0.13 0.11 0.09 0.06 0.07 0.08
0.07 0.04 0.04 0.05 0.03 0.01 0.02 0.04 0.05 0.06 0.07 0.06 0.05 0.04 0.05 0.08 0.09 0.12 0.11 0.12 0.12 0.08 0.05 0.03 0.02 0.01 0.01 0.01 0.01 0.01 0.01 0.01 0.03 0.07 0.13 0.17 0.13 0.09 0.07 0.06 0.05 0.04 0.05
0.19 0.18 0.16 0.11 0.04 0.02 0.02 0.02 0.03 0.03 0.04 0.03 0.03 0.04 0.08 0.12 0.14 0.15 0.10 0.09 0.06 0.03 0.02 0.01 0.00 0.00 0.00 0.00 0.00 0.00 0.01 0.00 0.03 0.08 0.13 0.15 0.17 0.11 0.08 0.06 0.05 0.05 0.03
0.26 0.26 0.08 0.06 0.02 0.01 0.02 0.02 0.02 0.02 0.02 0.02 0.06 0.04 0.10 0.18 0.22 0.17 0.14 0.07 0.03 0.01 0.01 0.01 0.00 0.00 0.00 0.00 0.00 0.00 0.00 0.00 0.03 0.09 0.17 0.16 0.16 0.15 0.10 0.08 0.06 0.05 0.03
0.07 0.05 0.03 0.02 0.01 0.02 0.03 0.04 0.05 0.06 0.06 0.05 0.08 0.07 0.12 0.14 0.10 0.10 0.13 0.08 0.05 0.03 0.04 0.05 0.02 0.01 0.01 0.01 0.01 0.01 0.00 0.01 0.01 0.03 0.10 0.14 0.15 0.17 0.15 0.11 0.07 0.05 0.04
0.09 0.03 0.02 0.01 0.02 0.02 0.03 0.05 0.06 0.05 0.06 0.06 0.06 0.04 0.10 0.15 0.14 0.11 0.15 0.14 0.12 0.11 0.10 0.08 0.06 0.03 0.02 0.02 0.01 0.01 0.01 0.01 0.02 0.03 0.08 0.11 0.13 0.16 0.17 0.15 0.12 0.09 0.08
0.17 0.07 0.05 0.02 0.02 0.03 0.06 0.06 0.05 0.06 0.05 0.05 0.07 0.04 0.09 0.10 0.09 0.11 0.11 0.13 0.12 0.12 0.11 0.09 0.05 0.06 0.05 0.03 0.02 0.02 0.02 0.03 0.03 0.05 0.08 0.13 0.14 0.16 0.20 0.20 0.18 0.15 0.14
0.23 0.10 0.06 0.04 0.03 0.03 0.05 0.06 0.06 0.05 0.08 0.09 0.08 0.07 0.07 0.09 0.13 0.14 0.17 0.19 0.17 0.15 0.16 0.13 0.11 0.10 0.09 0.06 0.05 0.05 0.05 0.06 0.06 0.06 0.10 0.11 0.13 0.14 0.21 0.25 0.24 0.21 0.21
0.31 0.14 0.11 0.07 0.06 0.05 0.05 0.05 0.06 0.05 0.08 0.10 0.13 0.10 0.08 0.10 0.19 0.22 0.25 0.28 0.27 0.25 0.25 0.22 0.21 0.16 0.14 0.13 0.10 0.09 0.09 0.10 0.10 0.11 0.15 0.17 0.18 0.17 0.19 0.22 0.23 0.23 0.23
0.37 0.29 0.21 0.09 0.08 0.07 0.06 0.07 0.06 0.08 0.11 0.13 0.17 0.16 0.14 0.16 0.22 0.31 0.39 0.44 0.46 0.45 0.44 0.45 0.38 0.32 0.29 0.27 0.25 0.20 0.16 0.17 0.17 0.17 0.18 0.18 0.21 0.19 0.17 0.17 0.18 0.20 0.21
0.40 0.31 0.22 0.17 0.13 0.11 0.11 0.11 0.11 0.14 0.20 0.24 0.27 0.27 0.30 0.34 0.44 0.60 0.74 0.77 0.73 0.69 0.67 0.63 0.58 0.54 0.50 0.46 0.36 0.30 0.24 0.24 0.28 0.26 0.21 0.20 0.22 0.22 0.21 0.18 0.18 0.20 0.20
0.51 0.42 0.34 0.25 0.22 0.25 0.28 0.28 0.31 0.34 0.42 0.50 0.59 0.70 0.81 0.95 1.01 1.07 1.07 1.03 0.97 0.96 0.96 0.89 0.80 0.70 0.61 0.53 0.39 0.30 0.26 0.23 0.25 0.27 0.25 0.21 0.22 0.21 0.21 0.20 0.19 0.16 0.17
0.72 0.61 0.44 0.37 0.43 0.51 0.57 0.64 0.82 0.95 1.08 1.30 1.49 1.67 1.79 1.77 1.71 1.65 1.62 1.55 1.38 1.28 1.19 1.01 0.88 0.76 0.64 0.56 0.47 0.39 0.29 0.21 0.21 0.23 0.21 0.19 0.17 0.15 0.15 0.16 0.20 0.19 0.16
0.75 0.74 0.70 0.77 0.85 0.94 1.16 1.44 1.78 2.08 2.32 2.52 2.69 2.78 2.72 2.57 2.40 2.26 2.12 1.90 1.68 1.51 1.30 1.07 0.89 0.77 0.66 0.57 0.54 0.53 0.42 0.30 0.21 0.17 0.15 0.14 0.12 0.10 0.09 0.08 0.08 0.09 0.09
0.76 0.83 0.87 1.09 1.33 1.56 1.94 2.35 2.76 3.19 3.42 3.48 3.40 3.27 3.09 2.90 2.71 2.44 2.17 1.96 1.74 1.49 1.28 1.08 0.89 0.76 0.62 0.52 0.45 0.46 0.43 0.37 0.28 0.18 0.13 0.10 0.09 0.09 0.07 0.06 0.06 0.06 0.05
0.69 0.77 0.91 1.17 1.62 2.12 2.76 3.28 3.65 3.95 4.06 4.03 3.83 3.52 3.16 2.86 2.59 2.25 1.97 1.72 1.47 1.28 1.11 0.91 0.70 0.57 0.47 0.38 0.30 0.27 0.26 0.25 0.26 0.20 0.12 0.10 0.09 0.08 0.07 0.06 0.06 0.07 0.07
0.78 0.98 1.23 1.56 2.09 2.63 3.16 3.63 3.92 4.04 4.03 3.85 3.51 3.12 2.71 2.36 2.08 1.80 1.52 1.27 1.06 0.86 0.72 0.56 0.46 0.39 0.35 0.31 0.27 0.24 0.23 0.21 0.20 0.20 0.15 0.11 0.08 0.06 0.06 0.06 0.06 0.07 0.07
0.85 1.14 1.43 1.75 2.20 2.63 2.94 3.29 3.43 3.52 3.44 3.17 2.80 2.38 2.01 1.73 1.45 1.24 1.03 0.85 0.68 0.54 0.46 0.40 0.34 0.30 0.28 0.28 0.26 0.22 0.20 0.19 0.18 0.18 0.17 0.12 0.08 0.06 0.05 0.05 0.05 0.05 0.05

GEFSSE_prec_meanprecacc_078.txt.gz
Total_Precipitation_Accumulation
0.01 0.00 0.01 0.02 0.03 0.04 0.03 0.04 0.05 0.06 0.07 0.06 0.05 0.05 0.05 0.05 0.05 0.04 0.03 0.04 0.06 0.10 0.14 0.15 0.15 0.16 0.18 0.12 0.04 0.02 0.02 0.03 0.04 0.05 0.06 0.07 0.08 0.09 0.10 0.08 0.08 0.07 0.04
0.01 0.00 0.01 0.01 0.02 0.04 0.04 0.03 0.04 0.06 0.05 0.05 0.05 0.05 0.05 0.05 0.06 0.06 0.05 0.06 0.07 0.10 0.10 0.11 0.12 0.12 0.10 0.05 0.02 0.01 0.02 0.04 0.09 0.13 0.15 0.17 0.17 0.14 0.19 0.22 0.18 0.11 0.05
0.01 0.00 0.01 0.01 0.02 0.03 0.03 0.05 0.06 0.07 0.07 0.07 0.06 0.05 0.05 0.06 0.06 0.06 0.06 0.06 0.10 0.11 0.11 0.09 0.08 0.06 0.04 0.02 0.01 0.01 0.03 0.06 0.12 0.21 0.40 0.54 0.45 0.33 0.27 0.25 0.22 0.14 0.10
0.01 0.00 0.00 0.01 0.01 0.02 0.03 0.04 0.06 0.06 0.06 0.06 0.05 0.05 0.05 0.05 0.06 0.07 0.07 0.09 0.13 0.15 0.13 0.08 0.06 0.03 0.01 0.01 0.01 0.02 0.04 0.07 0.13 0.31 0.70 0.74 0.76 0.61 0.34 0.26 0.20 0.21 0.26
0.01 0.00 0.00 0.01 0.01 0.02 0.02 0.02 0.04 0.05 0.05 0.05 0.05 0.04 0.05 0.05 0.05 0.08 0.11 0.14 0.16 0.16 0.16 0.12 0.08 0.04 0.01 0.01 0.01 0.02 0.04 0.08 0.17 0.38 0.71 1.04 1.11 0.69 0.44 0.34 0.29 0.28 0.34
0.02 0.00 0.00 0.01 0.02 0.02 0.01 0.02 0.04 0.05 0.05 0.05 0.05 0.05 0.06 0.06 0.06 0.10 0.18 0.23 0.21 0.19 0.21 0.20 0.16 0.10 0.04 0.02 0.01 0.02 0.03 0.08 0.19 0.42 0.73 1.30 1.14 0.67 0.49 0.39 0.35 0.35 0.39
0.02 0.00 0.00 0.02 0.03 0.02 0.01 0.02 0.04 0.05 0.07 0.09 0.09 0.08 0.08 0.07 0.09 0.14 0.22 0.24 0.23 0.22 0.23 0.20 0.14 0.07 0.05 0.05 0.04 0.03 0.05 0.08 0.16 0.41 0.71 1.15 0.92 0.51 0.38 0.31 0.30 0.32 0.36
0.02 0.01 0.00 0.02 0.04 0.03 0.03 0.04 0.06 0.07 0.09 0.11 0.11 0.10 0.07 0.06 0.09 0.14 0.18 0.21 0.23 0.20 0.15 0.12 0.09 0.08 0.09 0.09 0.07 0.08 0.09 0.08 0.11 0.29 0.56 0.68 0.51 0.31 0.21 0.17 0.15 0.16 0.19
0.03 0.01 0.01 0.02 0.03 0.04 0.06 0.07 0.08 0.09 0.09 0.10 0.09 0.07 0.06 0.06 0.08 0.12 0.16 0.21 0.21 0.14 0.10 0.09 0.07 0.06 0.06 0.06 0.05 0.04 0.04 0.05 0.07 0.18 0.46 0.52 0.29 0.18 0.14 0.11 0.07 0.08 0.09
0.08 0.04 0.04 0.06 0.03 0.02 0.03 0.06 0.07 0.08 0.08 0.07 0.06 0.04 0.06 0.08 0.10 0.13 0.11 0.12 0.12 0.08 0.05 0.03 0.02 0.01 0.01 0.01 0.01 0.01 0.01 0.02 0.04 0.11 0.24 0.34 0.23 0.15 0.11 0.08 0.05 0.05 0.05
0.20 0.18 0.16 0.11 0.04 0.02 0.03 0.02 0.04 0.04 0.04 0.04 0.03 0.04 0.08 0.12 0.14 0.15 0.10 0.09 0.06 0.03 0.02 0.01 0.00 0.00 0.00 0.00 0.00 0.00 0.01 0.01 0.04 0.10 0.19 0.26 0.26 0.18 0.12 0.08 0.06 0.05 0.04
0.28 0.26 0.09 0.06 0.02 0.01 0.02 0.02 0.03 0.02 0.02 0.02 0.06 0.04 0.10 0.18 0.22 0.17 0.14 0.08 0.03 0.02 0.01 0.01 0.01 0.01 0.00 0.00 0.01 0.00 0.00 0.01 0.04 0.10 0.22 0.27 0.25 0.22 0.15 0.10 0.07 0.05 0.03
0.12 0.07 0.04 0.02 0.02 0.02 0.03 0.04 0.06 0.06 0.06 0.05 0.08 0.07 0.12 0.14 0.11 0.11 0.13 0.10 0.06 0.04 0.05 0.05 0.02 0.01 0.01 0.01 0.01 0.01 0.01 0.02 0.03 0.05 0.13 0.18 0.20 0.23 0.20 0.14 0.09 0.06 0.04
0.20 0.09 0.04 0.03 0.02 0.03 0.04 0.05 0.06 0.05 0.06 0.06 0.06 0.04 0.11 0.17 0.16 0.14 0.18 0.15 0.14 0.12 0.12 0.09 0.07 0.05 0.03 0.02 0.02 0.02 0.03 0.03 0.04 0.05 0.10 0.14 0.18 0.23 0.24 0.19 0.14 0.11 0.09
0.46 0.22 0.11 0.05 0.04 0.04 0.07 0.07 0.06 0.07 0.07 0.07 0.09 0.07 0.13 0.13 0.13 0.15 0.15 0.16 0.14 0.14 0.14 0.11 0.07 0.08 0.07 0.05 0.04 0.04 0.04 0.05 0.06 0.07 0.11 0.17 0.19 0.24 0.29 0.27 0.23 0.18 0.16
0.67 0.33 0.19 0.11 0.07 0.07 0.09 0.10 0.09 0.08 0.13 0.20 0.17 0.14 0.15 0.15 0.17 0.19 0.21 0.22 0.20 0.17 0.18 0.16 0.13 0.12 0.11 0.09 0.08 0.08 0.08 0.09 0.11 0.11 0.16 0.18 0.21 0.23 0.31 0.36 0.33 0.27 0.26
0.85 0.46 0.34 0.20 0.16 0.16 0.14 0.13 0.12 0.13 0.16 0.25 0.28 0.24 0.20 0.20 0.25 0.27 0.29 0.31 0.29 0.28 0.27 0.25 0.24 0.19 0.16 0.16 0.17 0.15 0.14 0.15 0.17 0.21 0.25 0.30 0.32 0.30 0.31 0.34 0.35 0.34 0.33
1.01 0.71 0.58 0.40 0.30 0.28 0.18 0.17 0.15 0.19 0.24 0.26 0.30 0.32 0.28 0.27 0.31 0.38 0.45 0.50 0.51 0.49 0.48 0.49 0.43 0.36 0.33 0.31 0.30 0.25 0.21 0.24 0.28 0.32 0.34 0.36 0.40 0.35 0.30 0.29 0.31 0.34 0.35
1.09 0.88 0.74 0.62 0.43 0.37 0.32 0.27 0.26 0.30 0.37 0.43 0.48 0.47 0.48 0.48 0.56 0.72 0.84 0.86 0.80 0.75 0.72 0.67 0.63 0.58 0.54 0.50 0.40 0.34 0.29 0.31 0.38 0.39 0.38 0.39 0.42 0.39 0.35 0.31 0.32 0.37 0.38
1.22 1.12 0.94 0.77 0.59 0.52 0.51 0.47 0.50 0.54 0.62 0.71 0.82 0.92 1.04 1.14 1.18 1.25 1.23 1.16 1.06 1.04 1.03 0.95 0.85 0.75 0.65 0.58 0.43 0.34 0.29 0.28 0.33 0.39 0.39 0.39 0.42 0.43 0.43 0.41 0.38 0.36 0.37
1.43 1.36 1.12 0.91 0.91 0.87 0.84 0.85 1.02 1.14 1.29 1.52 1.73 1.89 2.01 2.00 1.94 1.89 1.85 1.73 1.53 1.39 1.28 1.10 0.95 0.82 0.69 0.59 0.50 0.41 0.31 0.23 0.25 0.30 0.30 0.32 0.33 0.31 0.32 0.34 0.36 0.34 0.32
1.52 1.41 1.27 1.24 1.28 1.33 1.48 1.70 2.01 2.30 2.54 2.76 2.97 3.03 2.99 2.83 2.68 2.54 2.39 2.15 1.90 1.71 1.46 1.19 0.98 0.83 0.71 0.61 0.57 0.55 0.44 0.32 0.23 0.19 0.19 0.20 0.20 0.20 0.20 0.21 0.21 0.21 0.22
1.34 1.38 1.34 1.50 1.76 1.95 2.30 2.68 3.05 3.49 3.73 3.78 3.70 3.60 3.43 3.23 3.02 2.72 2.46 2.24 1.98 1.68 1.42 1.18 0.96 0.82 0.67 0.55 0.50 0.50 0.46 0.39 0.29 0.20 0.16 0.14 0.14 0.14 0.14 0.15 0.17 0.17 0.14
1.22 1.30 1.35 1.54 1.99 2.48 3.09 3.60 3.95 4.24 4.37 4.37 4.22 3.94 3.56 3.24 2.96 2.61 2.31 1.99 1.68 1.42 1.21 0.99 0.77 0.61 0.51 0.41 0.34 0.30 0.29 0.28 0.30 0.23 0.15 0.13 0.12 0.12 0.12 0.13 0.14 0.16 0.15
1.13 1.32 1.54 1.84 2.38 2.91 3.45 3.91 4.19 4.30 4.29 4.12 3.81 3.45 3.05 2.66 2.35 2.05 1.77 1.51 1.26 1.01 0.80 0.61 0.49 0.42 0.37 0.33 0.30 0.28 0.28 0.27 0.27 0.26 0.20 0.13 0.11 0.10 0.09 0.09 0.11 0.13 0.12
1.03 1.32 1.60 1.90 2.37 2.80 3.12 3.51 3.70 3.80 3.75 3.49 3.07 2.60 2.20 1.90 1.64 1.45 1.24 1.03 0.83 0.65 0.53 0.44 0.36 0.32 0.30 0.30 0.28 0.26 0.25 0.24 0.23 0.23 0.22 0.16 0.12 0.09 0.08 0.08 0.09 0.10 0.10

GEFSSE_prec_meanprecacc_084.txt.gz
Total_Precipitation_Accumulation
0.01 0.00 0.02 0.02 0.03 0.04 0.03 0.04 0.05 0.06 0.07 0.06 0.05 0.05 0.05 0.05 0.05 0.04 0.03 0.04 0.06 0.10 0.14 0.15 0.16 0.17 0.18 0.12 0.05 0.02 0.02 0.03 0.05 0.06 0.07 0.08 0.09 0.10 0.11 0.09 0.08 0.07 0.05
0.01 0.00 0.01 0.01 0.02 0.04 0.04 0.03 0.04 0.06 0.05 0.05 0.05 0.05 0.05 0.05 0.06 0.06 0.06 0.06 0.07 0.10 0.10 0.11 0.12 0.12 0.10 0.05 0.02 0.02 0.02 0.04 0.09 0.14 0.18 0.20 0.20 0.16 0.20 0.22 0.19 0.12 0.05
0.01 0.00 0.01 0.01 0.02 0.03 0.03 0.05 0.06 0.07 0.07 0.07 0.06 0.05 0.05 0.06 0.06 0.07 0.06 0.07 0.10 0.12 0.11 0.09 0.08 0.06 0.04 0.02 0.02 0.02 0.03 0.06 0.13 0.23 0.42 0.55 0.48 0.37 0.29 0.25 0.22 0.14 0.11
0.01 0.00 0.00 0.01 0.02 0.02 0.03 0.04 0.06 0.06 0.06 0.06 0.05 0.05 0.05 0.05 0.06 0.07 0.07 0.09 0.13 0.15 0.13 0.09 0.06 0.03 0.01 0.01 0.01 0.02 0.04 0.07 0.14 0.31 0.70 0.75 0.77 0.64 0.36 0.26 0.21 0.22 0.27
0.01 0.00 0.00 0.01 0.02 0.02 0.02 0.02 0.04 0.05 0.05 0.05 0.05 0.04 0.05 0.05 0.05 0.08 0.11 0.14 0.16 0.16 0.16 0.12 0.08 0.04 0.01 0.01 0.01 0.03 0.04 0.08 0.18 0.39 0.72 1.05 1.12 0.72 0.45 0.35 0.29 0.28 0.35
0.02 0.00 0.00 0.01 0.02 0.02 0.01 0.02 0.04 0.05 0.05 0.05 0.05 0.05 0.06 0.06 0.06 0.10 0.18 0.23 0.21 0.19 0.21 0.20 0.16 0.10 0.04 0.02 0.02 0.02 0.04 0.09 0.20 0.42 0.74 1.30 1.14 0.69 0.50 0.40 0.36 0.36 0.39
0.02 0.00 0.01 0.02 0.03 0.02 0.01 0.02 0.04 0.05 0.07 0.09 0.09 0.08 0.08 0.07 0.09 0.14 0.22 0.24 0.23 0.22 0.23 0.20 0.14 0.07 0.05 0.05 0.04 0.04 0.05 0.09 0.17 0.42 0.72 1.15 0.92 0.53 0.40 0.32 0.30 0.32 0.37
0.03 0.01 0.01 0.02 0.04 0.03 0.03 0.04 0.06 0.07 0.09 0.11 0.11 0.10 0.07 0.06 0.09 0.14 0.18 0.21 0.23 0.20 0.15 0.12 0.09 0.08 0.09 0.09 0.08 0.08 0.09 0.09 0.12 0.30 0.57 0.68 0.52 0.33 0.23 0.19 0.17 0.17 0.20
0.04 0.03 0.02 0.02 0.03 0.04 0.06 0.08 0.09 0.09 0.09 0.10 0.09 0.08 0.06 0.06 0.08 0.12 0.16 0.21 0.21 0.14 0.10 0.09 0.07 0.06 0.06 0.06 0.05 0.05 0.04 0.05 0.08 0.19 0.46 0.52 0.29 0.20 0.16 0.13 0.09 0.09 0.10
0.11 0.07 0.07 0.07 0.04 0.03 0.04 0.07 0.08 0.08 0.08 0.08 0.07 0.05 0.06 0.09 0.10 0.13 0.11 0.13 0.13 0.08 0.05 0.03 0.02 0.01 0.01 0.01 0.01 0.01 0.02 0.02 0.04 0.12 0.24 0.34 0.25 0.19 0.14 0.10 0.07 0.06 0.06
0.27 0.24 0.20 0.14 0.05 0.04 0.04 0.03 0.05 0.06 0.06 0.05 0.04 0.05 0.08 0.12 0.14 0.16 0.10 0.09 0.06 0.03 0.02 0.01 0.00 0.00 0.00 0.00 0.00 0.00 0.01 0.01 0.04 0.10 0.19 0.26 0.29 0.23 0.18 0.12 0.09 0.07 0.05
0.40 0.35 0.14 0.11 0.07 0.06 0.05 0.04 0.04 0.03 0.03 0.03 0.07 0.04 0.10 0.19 0.22 0.18 0.14 0.08 0.04 0.03 0.02 0.01 0.01 0.01 0.01 0.01 0.01 0.00 0.00 0.01 0.04 0.10 0.22 0.28 0.30 0.29 0.23 0.16 0.11 0.08 0.05
0.22 0.16 0.12 0.13 0.12 0.12 0.11 0.09 0.09 0.08 0.07 0.06 0.08 0.08 0.12 0.15 0.11 0.11 0.14 0.10 0.07 0.05 0.06 0.06 0.03 0.02 0.01 0.02 0.02 0.01 0.02 0.02 0.03 0.06 0.13 0.19 0.24 0.31 0.32 0.24 0.17 0.13 0.09
0.31 0.20 0.13 0.12 0.13 0.13 0.13 0.13 0.14 0.11 0.10 0.08 0.07 0.05 0.11 0.17 0.16 0.14 0.18 0.16 0.15 0.14 0.14 0.11 0.09 0.06 0.05 0.04 0.03 0.04 0.04 0.04 0.04 0.05 0.10 0.15 0.21 0.32 0.38 0.35 0.27 0.22 0.17
0.60 0.35 0.22 0.15 0.14 0.15 0.18 0.16 0.13 0.13 0.12 0.11 0.11 0.08 0.13 0.13 0.13 0.16 0.17 0.18 0.16 0.17 0.18 0.15 0.11 0.11 0.10 0.07 0.06 0.06 0.05 0.06 0.06 0.08 0.13 0.19 0.23 0.32 0.44 0.43 0.39 0.32 0.28
0.89 0.51 0.35 0.25 0.21 0.23 0.23 0.21 0.17 0.14 0.17 0.24 0.22 0.17 0.17 0.16 0.19 0.21 0.24 0.27 0.25 0.23 0.25 0.22 0.18 0.17 0.16 0.12 0.11 0.11 0.11 0.12 0.14 0.13 0.18 0.20 0.25 0.31 0.43 0.50 0.50 0.44 0.42
1.15 0.76 0.58 0.40 0.38 0.38 0.36 0.31 0.28 0.26 0.28 0.34 0.36 0.32 0.28 0.27 0.32 0.35 0.39 0.41 0.39 0.37 0.36 0.33 0.32 0.28 0.24 0.22 0.21 0.19 0.18 0.19 0.21 0.25 0.29 0.34 0.36 0.36 0.40 0.46 0.50 0.50 0.50
1.25 1.01 0.89 0.66 0.55 0.55 0.45 0.37 0.33 0.37 0.40 0.41 0.44 0.49 0.45 0.43 0.46 0.53 0.61 0.65 0.64 0.61 0.60 0.61 0.53 0.45 0.41 0.39 0.37 0.31 0.27 0.31 0.34 0.38 0.39 0.42 0.47 0.43 0.39 0.40 0.43 0.49 0.53
1.28 1.07 0.98 0.94 0.77 0.70 0.64 0.54 0.55 0.59 0.63 0.67 0.72 0.71 0.73 0.72 0.76 0.89 1.03 1.04 0.96 0.89 0.85 0.79 0.73 0.67 0.61 0.56 0.47 0.42 0.36 0.36 0.43 0.44 0.43 0.44 0.48 0.47 0.43 0.40 0.43 0.52 0.58
1.43 1.35 1.20 1.14 1.03 0.95 0.92 0.81 0.84 0.88 0.94 1.03 1.15 1.25 1.37 1.48 1.48 1.51 1.47 1.37 1.26 1.20 1.16 1.06 0.94 0.82 0.73 0.65 0.50 0.40 0.34 0.32 0.35 0.41 0.41 0.42 0.45 0.46 0.47 0.46 0.45 0.47 0.53
1.66 1.62 1.46 1.35 1.37 1.36 1.34 1.34 1.47 1.51 1.60 1.83 2.06 2.24 2.39 2.39 2.27 2.19 2.09 1.95 1.72 1.55 1.42 1.23 1.06 0.91 0.77 0.67 0.56 0.46 0.35 0.26 0.27 0.31 0.32 0.34 0.35 0.32 0.34 0.38 0.43 0.42 0.42
1.80 1.73 1.69 1.72 1.73 1.82 2.04 2.34 2.61 2.81 2.97 3.10 3.29 3.36 3.29 3.12 2.97 2.83 2.63 2.38 2.11 1.88 1.60 1.31 1.08 0.91 0.78 0.69 0.63 0.60 0.46 0.33 0.24 0.19 0.19 0.20 0.21 0.21 0.22 0.24 0.26 0.27 0.29
1.66 1.77 1.82 2.03 2.26 2.49 2.92 3.38 3.67 4.01 4.20 4.16 4.02 3.88 3.65 3.45 3.23 2.92 2.67 2.48 2.21 1.86 1.56 1.29 1.06 0.90 0.73 0.61 0.55 0.54 0.49 0.40 0.31 0.21 0.16 0.14 0.15 0.16 0.16 0.17 0.19 0.20 0.19
1.43 1.63 1.82 2.08 2.53 3.08 3.73 4.30 4.66 4.81 4.82 4.75 4.53 4.17 3.76 3.44 3.13 2.77 2.49 2.17 1.86 1.57 1.32 1.07 0.83 0.67 0.55 0.44 0.37 0.33 0.32 0.31 0.32 0.24 0.16 0.14 0.13 0.14 0.14 0.14 0.16 0.19 0.20
1.26 1.53 1.86 2.25 2.82 3.38 3.94 4.41 4.72 4.80 4.70 4.48 4.13 3.70 3.27 2.85 2.51 2.18 1.89 1.62 1.36 1.12 0.90 0.68 0.53 0.45 0.39 0.35 0.31 0.29 0.29 0.28 0.28 0.27 0.21 0.14 0.12 0.11 0.11 0.11 0.13 0.16 0.17
1.11 1.43 1.76 2.13 2.63 3.06 3.40 3.82 4.02 4.12 4.02 3.72 3.29 2.78 2.36 2.05 1.77 1.55 1.33 1.14 0.94 0.75 0.60 0.48 0.39 0.34 0.32 0.30 0.28 0.26 0.25 0.24 0.24 0.24 0.23 0.17 0.13 0.11 0.11 0.11 0.13 0.14 0.15

GEFSSE_prec_meanprecacc_090.txt.gz
Total_Precipitation_Accumulation
0.01 0.00 0.02 0.02 0.03 0.05 0.04 0.04 0.05 0.07 0.07 0.06 0.06 0.05 0.05 0.05 0.05 0.04 0.03 0.04 0.06 0.10 0.14 0.16 0.16 0.18 0.19 0.13 0.05 0.02 0.03 0.03 0.05 0.06 0.07 0.08 0.10 0.11 0.12 0.09 0.08 0.07 0.05
0.01 0.00 0.01 0.01 0.02 0.04 0.04 0.04 0.05 0.06 0.05 0.05 0.05 0.05 0.05 0.05 0.06 0.06 0.06 0.06 0.08 0.10 0.11 0.12 0.13 0.13 0.11 0.06 0.02 0.02 0.03 0.05 0.10 0.15 0.20 0.22 0.21 0.17 0.21 0.23 0.19 0.12 0.06
0.01 0.00 0.01 0.01 0.02 0.03 0.04 0.05 0.06 0.07 0.07 0.07 0.06 0.05 0.05 0.06 0.06 0.07 0.06 0.07 0.10 0.12 0.11 0.09 0.08 0.06 0.04 0.03 0.02 0.02 0.04 0.07 0.15 0.25 0.47 0.60 0.51 0.38 0.29 0.26 0.22 0.15 0.11
0.01 0.00 0.00 0.01 0.02 0.02 0.03 0.04 0.06 0.06 0.06 0.06 0.05 0.05 0.05 0.05 0.06 0.07 0.07 0.09 0.13 0.16 0.13 0.09 0.06 0.03 0.02 0.01 0.02 0.03 0.05 0.09 0.16 0.33 0.72 0.77 0.81 0.66 0.36 0.26 0.21 0.22 0.28
0.01 0.00 0.00 0.01 0.02 0.02 0.02 0.02 0.04 0.05 0.05 0.05 0.05 0.04 0.05 0.05 0.05 0.08 0.11 0.15 0.16 0.16 0.16 0.13 0.08 0.05 0.02 0.01 0.02 0.04 0.06 0.10 0.19 0.40 0.72 1.06 1.18 0.75 0.46 0.36 0.30 0.29 0.36
0.02 0.00 0.01 0.01 0.02 0.02 0.02 0.02 0.04 0.05 0.05 0.05 0.05 0.05 0.06 0.06 0.07 0.10 0.18 0.23 0.22 0.19 0.22 0.21 0.16 0.11 0.04 0.02 0.02 0.04 0.06 0.11 0.21 0.43 0.74 1.31 1.18 0.72 0.52 0.42 0.38 0.38 0.41
0.03 0.01 0.01 0.02 0.03 0.02 0.01 0.02 0.04 0.05 0.07 0.09 0.09 0.08 0.08 0.07 0.09 0.14 0.22 0.24 0.23 0.22 0.23 0.20 0.14 0.07 0.05 0.06 0.04 0.05 0.08 0.12 0.18 0.43 0.73 1.16 0.95 0.56 0.43 0.36 0.35 0.36 0.40
0.04 0.01 0.01 0.03 0.04 0.03 0.03 0.04 0.06 0.07 0.09 0.11 0.11 0.10 0.08 0.07 0.09 0.14 0.18 0.22 0.23 0.20 0.16 0.12 0.10 0.08 0.09 0.09 0.08 0.09 0.11 0.11 0.13 0.31 0.58 0.70 0.54 0.36 0.27 0.25 0.23 0.22 0.25
0.06 0.05 0.04 0.04 0.04 0.05 0.07 0.08 0.09 0.09 0.09 0.10 0.10 0.08 0.06 0.06 0.09 0.12 0.16 0.21 0.21 0.14 0.10 0.09 0.07 0.06 0.06 0.06 0.05 0.05 0.05 0.07 0.09 0.20 0.47 0.54 0.32 0.24 0.21 0.18 0.14 0.14 0.16
0.14 0.14 0.16 0.11 0.06 0.04 0.05 0.08 0.08 0.09 0.09 0.08 0.07 0.05 0.06 0.09 0.10 0.13 0.12 0.13 0.13 0.08 0.05 0.04 0.02 0.01 0.01 0.01 0.01 0.01 0.02 0.03 0.05 0.12 0.26 0.36 0.28 0.25 0.22 0.18 0.14 0.11 0.12
0.34 0.31 0.28 0.19 0.08 0.06 0.05 0.05 0.07 0.07 0.07 0.06 0.05 0.06 0.09 0.13 0.14 0.16 0.10 0.09 0.06 0.04 0.02 0.01 0.01 0.01 0.01 0.01 0.00 0.01 0.01 0.01 0.06 0.13 0.22 0.29 0.33 0.31 0.29 0.24 0.18 0.14 0.11
0.47 0.46 0.27 0.21 0.13 0.10 0.08 0.07 0.08 0.06 0.04 0.05 0.09 0.07 0.13 0.21 0.25 0.19 0.15 0.09 0.05 0.04 0.03 0.02 0.01 0.01 0.01 0.01 0.01 0.01 0.00 0.01 0.05 0.12 0.24 0.29 0.33 0.36 0.35 0.29 0.21 0.17 0.13
0.27 0.23 0.19 0.23 0.22 0.21 0.22 0.22 0.20 0.17 0.14 0.12 0.17 0.16 0.19 0.19 0.15 0.13 0.15 0.11 0.08 0.06 0.07 0.07 0.04 0.03 0.02 0.03 0.03 0.02 0.02 0.02 0.03 0.06 0.13 0.20 0.26 0.36 0.42 0.38 0.30 0.25 0.18
0.36 0.27 0.22 0.21 0.23 0.25 0.28 0.33 0.37 0.34 0.30 0.24 0.20 0.16 0.19 0.26 0.27 0.21 0.21 0.18 0.17 0.16 0.16 0.13 0.11 0.08 0.06 0.05 0.04 0.04 0.04 0.04 0.04 0.06 0.11 0.16 0.22 0.35 0.46 0.46 0.40 0.35 0.29
0.64 0.43 0.34 0.28 0.27 0.31 0.37 0.36 0.31 0.35 0.36 0.41 0.33 0.24 0.30 0.30 0.28 0.27 0.23 0.23 0.20 0.21 0.22 0.19 0.14 0.13 0.12 0.09 0.07 0.07 0.06 0.07 0.07 0.09 0.14 0.20 0.24 0.34 0.49 0.53 0.51 0.44 0.41
0.95 0.62 0.48 0.40 0.38 0.44 0.53 0.53 0.44 0.40 0.39 0.43 0.44 0.37 0.40 0.39 0.35 0.33 0.34 0.36 0.33 0.31 0.33 0.28 0.23 0.21 0.20 0.17 0.15 0.14 0.13 0.14 0.16 0.15 0.20 0.22 0.26 0.32 0.46 0.59 0.63 0.59 0.59
1.24 0.91 0.77 0.61 0.59 0.59 0.64 0.72 0.74 0.64 0.62 0.61 0.57 0.54 0.55 0.47 0.46 0.46 0.51 0.53 0.50 0.48 0.47 0.41 0.39 0.34 0.31 0.28 0.27 0.23 0.21 0.22 0.25 0.28 0.31 0.36 0.40 0.39 0.43 0.52 0.60 0.63 0.65
1.35 1.14 1.07 0.89 0.78 0.76 0.69 0.68 0.73 0.76 0.79 0.80 0.76 0.74 0.69 0.63 0.62 0.71 0.78 0.79 0.77 0.74 0.71 0.72 0.64 0.56 0.50 0.46 0.43 0.35 0.31 0.35 0.37 0.41 0.42 0.45 0.51 0.48 0.44 0.44 0.48 0.57 0.64
1.37 1.17 1.10 1.12 0.98 0.92 0.88 0.85 0.92 0.97 0.98 1.03 1.06 1.03 1.00 0.95 0.98 1.10 1.23 1.20 1.09 1.02 0.98 0.91 0.85 0.78 0.72 0.66 0.54 0.47 0.40 0.40 0.47 0.47 0.46 0.47 0.51 0.50 0.47 0.43 0.45 0.56 0.64
1.50 1.44 1.31 1.30 1.24 1.24 1.25 1.14 1.17 1.23 1.26 1.33 1.44 1.54 1.65 1.74 1.74 1.76 1.68 1.54 1.42 1.35 1.29 1.17 1.06 0.92 0.82 0.75 0.58 0.45 0.38 0.35 0.38 0.43 0.43 0.43 0.48 0.49 0.49 0.48 0.49 0.50 0.56
1.72 1.71 1.57 1.49 1.56 1.59 1.62 1.63 1.79 1.83 1.90 2.13 2.36 2.52 2.64 2.64 2.49 2.40 2.29 2.11 1.88 1.69 1.52 1.31 1.14 0.98 0.84 0.72 0.63 0.52 0.40 0.29 0.29 0.33 0.33 0.35 0.36 0.34 0.35 0.41 0.46 0.45 0.45
1.85 1.80 1.78 1.84 1.87 1.98 2.24 2.58 2.92 3.12 3.28 3.40 3.56 3.60 3.52 3.35 3.20 3.06 2.85 2.54 2.24 1.98 1.67 1.38 1.14 0.96 0.83 0.72 0.68 0.65 0.52 0.37 0.27 0.21 0.20 0.22 0.22 0.22 0.23 0.26 0.28 0.30 0.32
1.71 1.83 1.89 2.13 2.38 2.66 3.12 3.60 3.96 4.31 4.50 4.45 4.27 4.07 3.85 3.65 3.43 3.11 2.85 2.63 2.33 1.95 1.62 1.34 1.10 0.94 0.77 0.63 0.57 0.58 0.55 0.47 0.36 0.24 0.18 0.15 0.15 0.16 0.17 0.18 0.21 0.23 0.22
1.48 1.70 1.91 2.22 2.69 3.29 3.95 4.51 4.91 5.09 5.07 4.97 4.72 4.37 3.97 3.65 3.32 2.94 2.63 2.30 1.97 1.66 1.39 1.12 0.86 0.70 0.58 0.47 0.39 0.35 0.34 0.33 0.35 0.28 0.19 0.15 0.15 0.15 0.15 0.15 0.17 0.20 0.22
1.29 1.59 1.94 2.36 2.97 3.55 4.10 4.59 4.95 5.07 4.96 4.71 4.33 3.91 3.45 3.06 2.72 2.37 2.04 1.75 1.47 1.20 0.95 0.71 0.55 0.46 0.41 0.36 0.33 0.31 0.30 0.29 0.29 0.29 0.23 0.15 0.13 0.12 0.11 0.12 0.14 0.17 0.18
1.14 1.47 1.82 2.22 2.73 3.19 3.54 3.97 4.20 4.31 4.23 3.92 3.47 2.96 2.52 2.22 1.95 1.70 1.44 1.21 1.00 0.79 0.63 0.51 0.40 0.35 0.33 0.32 0.30 0.27 0.26 0.26 0.25 0.25 0.25 0.18 0.14 0.12 0.11 0.11 0.13 0.15 0.16

GEFSSE_prec_meanprecacc_096.txt.gz
Total_Precipitation_Accumulation
0.01 0.00 0.02 0.02 0.03 0.05 0.04 0.04 0.05 0.07 0.07 0.06 0.06 0.05 0.05 0.05 0.05 0.04 0.03 0.04 0.06 0.10 0.15 0.17 0.18 0.20 0.21 0.14 0.06 0.03 0.03 0.04 0.05 0.06 0.07 0.08 0.10 0.11 0.12 0.09 0.10 0.08 0.05
0.01 0.00 0.01 0.01 0.02 0.04 0.04 0.04 0.05 0.06 0.05 0.05 0.05 0.05 0.05 0.05 0.06 0.06 0.06 0.06 0.08 0.10 0.11 0.12 0.13 0.14 0.12 0.06 0.03 0.02 0.03 0.05 0.10 0.16 0.20 0.22 0.21 0.17 0.21 0.23 0.21 0.13 0.06
0.01 0.00 0.01 0.01 0.02 0.03 0.04 0.06 0.06 0.07 0.07 0.07 0.06 0.05 0.05 0.06 0.06 0.07 0.06 0.07 0.10 0.12 0.11 0.10 0.09 0.07 0.05 0.03 0.02 0.02 0.04 0.08 0.15 0.27 0.50 0.65 0.51 0.38 0.29 0.26 0.23 0.15 0.12
0.01 0.00 0.00 0.01 0.02 0.02 0.03 0.04 0.06 0.07 0.06 0.06 0.05 0.05 0.05 0.05 0.06 0.07 0.07 0.09 0.13 0.16 0.14 0.09 0.07 0.04 0.02 0.02 0.02 0.03 0.06 0.10 0.17 0.37 0.88 0.85 0.84 0.66 0.36 0.26 0.21 0.22 0.28
0.01 0.00 0.00 0.01 0.02 0.02 0.02 0.02 0.04 0.05 0.05 0.06 0.05 0.04 0.05 0.05 0.05 0.08 0.12 0.15 0.16 0.16 0.16 0.13 0.09 0.05 0.02 0.01 0.02 0.04 0.06 0.11 0.21 0.46 0.84 1.14 1.25 0.77 0.46 0.36 0.30 0.29 0.36
0.02 0.00 0.01 0.01 0.02 0.02 0.02 0.02 0.04 0.05 0.05 0.05 0.05 0.05 0.06 0.06 0.07 0.10 0.18 0.23 0.22 0.19 0.22 0.21 0.17 0.11 0.04 0.02 0.03 0.04 0.06 0.12 0.23 0.48 0.80 1.37 1.24 0.73 0.52 0.42 0.38 0.38 0.42
0.03 0.01 0.01 0.02 0.03 0.02 0.02 0.02 0.04 0.05 0.07 0.09 0.09 0.08 0.08 0.08 0.09 0.14 0.22 0.24 0.23 0.23 0.24 0.20 0.14 0.07 0.06 0.06 0.05 0.05 0.08 0.12 0.22 0.48 0.77 1.20 1.00 0.57 0.43 0.37 0.35 0.36 0.41
0.04 0.01 0.01 0.03 0.04 0.03 0.03 0.04 0.06 0.07 0.09 0.11 0.11 0.10 0.08 0.07 0.09 0.14 0.19 0.22 0.23 0.20 0.16 0.13 0.10 0.08 0.09 0.09 0.08 0.09 0.11 0.11 0.14 0.33 0.59 0.73 0.57 0.36 0.28 0.26 0.24 0.23 0.26
0.07 0.06 0.04 0.04 0.04 0.05 0.07 0.09 0.10 0.10 0.10 0.11 0.10 0.08 0.06 0.07 0.09 0.12 0.16 0.21 0.22 0.14 0.10 0.09 0.07 0.06 0.06 0.06 0.06 0.05 0.05 0.07 0.11 0.21 0.51 0.57 0.33 0.24 0.22 0.20 0.16 0.16 0.18
0.17 0.16 0.18 0.13 0.07 0.04 0.05 0.09 0.09 0.10 0.11 0.10 0.08 0.06 0.07 0.09 0.11 0.14 0.12 0.13 0.13 0.09 0.05 0.04 0.02 0.01 0.01 0.01 0.01 0.01 0.02 0.03 0.06 0.15 0.30 0.40 0.29 0.26 0.24 0.20 0.16 0.14 0.14
0.39 0.36 0.32 0.24 0.12 0.08 0.06 0.06 0.08 0.08 0.09 0.08 0.07 0.07 0.10 0.14 0.16 0.17 0.11 0.10 0.07 0.04 0.02 0.01 0.01 0.01 0.01 0.01 0.00 0.01 0.01 0.02 0.07 0.16 0.27 0.32 0.34 0.32 0.31 0.28 0.22 0.18 0.15
0.53 0.52 0.34 0.29 0.20 0.15 0.11 0.10 0.11 0.08 0.06 0.07 0.12 0.09 0.15 0.27 0.32 0.24 0.20 0.11 0.06 0.04 0.03 0.02 0.02 0.02 0.02 0.03 0.02 0.01 0.01 0.02 0.07 0.14 0.25 0.30 0.34 0.37 0.37 0.33 0.26 0.21 0.18
0.37 0.33 0.29 0.36 0.35 0.30 0.31 0.32 0.29 0.27 0.23 0.18 0.25 0.22 0.27 0.29 0.25 0.24 0.24 0.16 0.11 0.08 0.09 0.09 0.05 0.04 0.04 0.05 0.05 0.03 0.02 0.03 0.05 0.07 0.15 0.21 0.27 0.38 0.44 0.41 0.34 0.29 0.23
0.44 0.36 0.33 0.35 0.40 0.41 0.43 0.53 0.57 0.50 0.45 0.39 0.35 0.28 0.33 0.42 0.41 0.32 0.33 0.28 0.27 0.23 0.22 0.19 0.15 0.10 0.08 0.07 0.05 0.04 0.04 0.04 0.05 0.07 0.14 0.17 0.23 0.36 0.47 0.49 0.43 0.38 0.32
0.80 0.56 0.46 0.44 0.43 0.45 0.53 0.57 0.50 0.54 0.58 0.68 0.59 0.44 0.50 0.47 0.43 0.45 0.42 0.42 0.36 0.36 0.35 0.28 0.22 0.18 0.17 0.12 0.08 0.07 0.07 0.07 0.08 0.13 0.22 0.24 0.25 0.35 0.50 0.55 0.55 0.49 0.46
1.20 0.86 0.66 0.59 0.58 0.60 0.69 0.73 0.62 0.57 0.65 0.72 0.76 0.68 0.73 0.66 0.62 0.62 0.63 0.61 0.52 0.49 0.56 0.47 0.34 0.29 0.27 0.22 0.19 0.16 0.14 0.16 0.17 0.20 0.30 0.32 0.31 0.35 0.48 0.61 0.66 0.66 0.66
1.49 1.21 0.99 0.81 0.85 0.84 0.88 0.95 0.99 0.91 0.91 0.91 0.92 0.96 0.97 0.86 0.83 0.80 0.89 0.87 0.76 0.70 0.69 0.61 0.57 0.46 0.40 0.36 0.35 0.29 0.26 0.27 0.28 0.33 0.39 0.45 0.47 0.44 0.47 0.57 0.64 0.68 0.72
1.55 1.41 1.27 1.04 1.00 1.06 0.97 0.97 1.03 1.09 1.12 1.19 1.15 1.19 1.15 1.11 1.07 1.13 1.13 1.10 1.02 0.96 0.93 0.91 0.80 0.70 0.63 0.59 0.54 0.45 0.38 0.42 0.42 0.46 0.47 0.52 0.60 0.57 0.53 0.51 0.55 0.64 0.70
1.56 1.38 1.31 1.34 1.27 1.24 1.21 1.16 1.23 1.34 1.36 1.45 1.50 1.48 1.51 1.50 1.47 1.53 1.62 1.51 1.37 1.30 1.22 1.10 1.05 0.94 0.91 0.83 0.66 0.57 0.46 0.45 0.54 0.55 0.52 0.52 0.58 0.59 0.57 0.52 0.54 0.66 0.70
1.60 1.58 1.47 1.48 1.46 1.52 1.56 1.50 1.55 1.58 1.61 1.70 1.82 1.93 2.11 2.26 2.20 2.12 1.99 1.85 1.70 1.64 1.56 1.42 1.30 1.13 1.01 0.90 0.69 0.55 0.44 0.39 0.43 0.49 0.50 0.50 0.54 0.56 0.58 0.57 0.60 0.59 0.62
1.78 1.80 1.69 1.64 1.74 1.79 1.84 1.89 2.09 2.07 2.10 2.34 2.60 2.77 2.95 3.00 2.83 2.68 2.52 2.32 2.10 1.91 1.74 1.51 1.34 1.18 1.01 0.86 0.76 0.65 0.50 0.37 0.37 0.42 0.41 0.45 0.46 0.43 0.43 0.47 0.52 0.51 0.50
1.88 1.85 1.87 1.96 2.02 2.13 2.40 2.76 3.11 3.32 3.47 3.58 3.75 3.81 3.74 3.59 3.43 3.26 3.04 2.73 2.42 2.17 1.88 1.58 1.31 1.14 0.98 0.84 0.80 0.81 0.67 0.51 0.40 0.32 0.31 0.30 0.28 0.26 0.26 0.28 0.30 0.32 0.35
1.73 1.87 1.95 2.21 2.48 2.78 3.25 3.75 4.13 4.46 4.64 4.59 4.41 4.24 4.02 3.83 3.63 3.32 3.05 2.82 2.50 2.12 1.79 1.50 1.22 1.07 0.92 0.77 0.67 0.70 0.69 0.61 0.48 0.35 0.26 0.20 0.19 0.19 0.19 0.19 0.22 0.24 0.23
1.50 1.73 1.97 2.28 2.77 3.38 4.07 4.63 5.04 5.22 5.20 5.10 4.87 4.49 4.07 3.76 3.44 3.08 2.79 2.48 2.16 1.83 1.54 1.26 0.98 0.80 0.68 0.57 0.47 0.41 0.40 0.39 0.43 0.37 0.25 0.18 0.17 0.17 0.16 0.16 0.18 0.21 0.23
1.32 1.62 1.98 2.41 3.04 3.63 4.20 4.71 5.10 5.22 5.10 4.85 4.45 4.00 3.54 3.13 2.81 2.48 2.17 1.88 1.61 1.34 1.09 0.84 0.67 0.55 0.48 0.42 0.38 0.35 0.34 0.31 0.32 0.33 0.27 0.19 0.16 0.15 0.14 0.14 0.15 0.18 0.19
1.17 1.50 1.86 2.26 2.79 3.26 3.63 4.07 4.32 4.45 4.37 4.06 3.61 3.09 2.64 2.33 2.07 1.84 1.59 1.36 1.15 0.93 0.76 0.62 0.51 0.44 0.41 0.38 0.34 0.30 0.29 0.28 0.27 0.28 0.28 0.21 0.16 0.14 0.12 0.12 0.14 0.15 0.17

GEFSSE_prec_meanprecacc_102.txt.gz
Total_Precipitation_Accumulation
0.04 0.01 0.02 0.02 0.03 0.05 0.04 0.04 0.05 0.07 0.07 0.06 0.06 0.05 0.05 0.05 0.05 0.04 0.03 0.04 0.06 0.11 0.15 0.17 0.18 0.20 0.22 0.15 0.07 0.04 0.04 0.04 0.06 0.06 0.08 0.09 0.10 0.11 0.12 0.10 0.10 0.08 0.05
0.03 0.01 0.01 0.01 0.02 0.04 0.04 0.04 0.05 0.06 0.05 0.05 0.05 0.05 0.05 0.05 0.06 0.06 0.06 0.06 0.08 0.10 0.11 0.13 0.14 0.14 0.12 0.07 0.04 0.03 0.04 0.06 0.11 0.16 0.21 0.22 0.21 0.17 0.21 0.23 0.21 0.13 0.06
0.03 0.01 0.01 0.01 0.02 0.03 0.04 0.06 0.06 0.07 0.07 0.07 0.06 0.05 0.05 0.06 0.06 0.07 0.06 0.07 0.10 0.12 0.11 0.10 0.09 0.07 0.05 0.03 0.03 0.03 0.06 0.09 0.17 0.28 0.51 0.65 0.52 0.38 0.30 0.26 0.23 0.15 0.12
0.02 0.00 0.00 0.01 0.02 0.02 0.03 0.04 0.06 0.07 0.06 0.06 0.05 0.05 0.05 0.05 0.06 0.07 0.07 0.09 0.13 0.16 0.14 0.09 0.07 0.04 0.02 0.02 0.02 0.04 0.07 0.11 0.20 0.40 0.90 0.87 0.84 0.67 0.37 0.26 0.21 0.22 0.28
0.02 0.00 0.00 0.01 0.02 0.02 0.02 0.02 0.04 0.05 0.05 0.06 0.05 0.04 0.05 0.05 0.05 0.08 0.12 0.15 0.16 0.17 0.17 0.13 0.09 0.05 0.02 0.01 0.02 0.04 0.07 0.12 0.25 0.53 0.90 1.19 1.26 0.78 0.47 0.36 0.30 0.29 0.36
0.03 0.01 0.01 0.01 0.02 0.02 0.02 0.02 0.04 0.05 0.05 0.05 0.05 0.05 0.06 0.06 0.07 0.10 0.18 0.23 0.22 0.19 0.22 0.21 0.17 0.11 0.04 0.03 0.03 0.04 0.07 0.14 0.27 0.55 0.90 1.42 1.26 0.75 0.53 0.42 0.38 0.38 0.42
0.04 0.01 0.01 0.02 0.03 0.02 0.02 0.02 0.04 0.05 0.07 0.09 0.09 0.08 0.08 0.08 0.09 0.15 0.22 0.25 0.23 0.23 0.24 0.20 0.14 0.08 0.06 0.06 0.05 0.05 0.09 0.15 0.27 0.55 0.86 1.26 1.03 0.60 0.45 0.37 0.35 0.36 0.41
0.05 0.01 0.01 0.03 0.04 0.04 0.03 0.05 0.07 0.08 0.09 0.11 0.12 0.11 0.08 0.07 0.10 0.15 0.19 0.22 0.23 0.21 0.16 0.13 0.10 0.08 0.09 0.10 0.09 0.10 0.12 0.13 0.19 0.42 0.71 0.81 0.62 0.40 0.29 0.26 0.24 0.23 0.26
0.09 0.08 0.05 0.05 0.04 0.06 0.09 0.11 0.12 0.11 0.11 0.12 0.11 0.09 0.07 0.07 0.10 0.13 0.17 0.22 0.22 0.15 0.11 0.09 0.08 0.06 0.06 0.07 0.06 0.06 0.06 0.10 0.16 0.31 0.65 0.66 0.40 0.29 0.24 0.21 0.16 0.16 0.19
0.21 0.21 0.22 0.15 0.08 0.06 0.07 0.11 0.12 0.12 0.13 0.11 0.09 0.06 0.07 0.10 0.12 0.14 0.12 0.14 0.13 0.09 0.06 0.04 0.02 0.01 0.01 0.01 0.01 0.02 0.04 0.05 0.10 0.23 0.45 0.48 0.36 0.32 0.28 0.22 0.17 0.14 0.14
0.49 0.46 0.39 0.31 0.17 0.12 0.10 0.10 0.12 0.12 0.13 0.11 0.09 0.08 0.11 0.15 0.17 0.18 0.12 0.11 0.08 0.05 0.03 0.02 0.01 0.01 0.01 0.01 0.01 0.01 0.03 0.04 0.11 0.22 0.37 0.39 0.42 0.40 0.37 0.32 0.25 0.20 0.17
0.72 0.67 0.44 0.39 0.33 0.25 0.17 0.15 0.17 0.14 0.12 0.12 0.16 0.12 0.17 0.29 0.34 0.26 0.22 0.13 0.08 0.06 0.05 0.03 0.03 0.02 0.02 0.03 0.03 0.02 0.03 0.04 0.11 0.21 0.34 0.40 0.43 0.46 0.44 0.37 0.30 0.25 0.22
0.58 0.51 0.45 0.50 0.46 0.43 0.41 0.40 0.38 0.37 0.34 0.26 0.30 0.27 0.31 0.33 0.29 0.29 0.27 0.20 0.15 0.12 0.12 0.12 0.08 0.06 0.06 0.07 0.08 0.06 0.06 0.07 0.10 0.12 0.20 0.30 0.36 0.46 0.51 0.45 0.37 0.32 0.26
0.80 0.68 0.57 0.52 0.52 0.55 0.56 0.64 0.68 0.63 0.57 0.51 0.44 0.33 0.38 0.48 0.49 0.42 0.42 0.38 0.36 0.32 0.29 0.25 0.21 0.15 0.14 0.13 0.12 0.13 0.12 0.11 0.12 0.13 0.20 0.25 0.30 0.44 0.54 0.53 0.47 0.41 0.36
1.23 1.07 0.85 0.77 0.67 0.67 0.73 0.74 0.65 0.67 0.69 0.78 0.71 0.54 0.59 0.59 0.59 0.65 0.61 0.61 0.56 0.55 0.51 0.42 0.33 0.29 0.27 0.23 0.21 0.21 0.18 0.18 0.18 0.21 0.29 0.34 0.34 0.42 0.56 0.60 0.59 0.53 0.50
1.60 1.42 1.19 1.01 0.98 0.96 1.01 1.01 0.89 0.78 0.80 0.86 0.92 0.85 0.89 0.88 0.86 0.87 0.90 0.95 0.82 0.76 0.78 0.69 0.52 0.46 0.42 0.36 0.33 0.33 0.30 0.30 0.30 0.30 0.41 0.41 0.39 0.42 0.55 0.68 0.73 0.73 0.73
1.86 1.66 1.58 1.37 1.42 1.43 1.49 1.45 1.44 1.34 1.28 1.20 1.17 1.21 1.22 1.16 1.14 1.09 1.18 1.27 1.14 1.08 1.08 0.98 0.87 0.71 0.67 0.61 0.55 0.50 0.48 0.47 0.46 0.47 0.52 0.55 0.56 0.53 0.56 0.65 0.73 0.78 0.80
1.78 1.76 1.78 1.59 1.57 1.73 1.72 1.62 1.56 1.67 1.68 1.61 1.53 1.56 1.47 1.46 1.48 1.51 1.45 1.43 1.38 1.33 1.30 1.35 1.19 0.99 0.90 0.92 0.83 0.73 0.63 0.63 0.64 0.61 0.61 0.68 0.73 0.69 0.64 0.60 0.63 0.72 0.79
1.70 1.57 1.63 1.82 1.74 1.86 1.86 1.79 1.78 1.88 1.98 2.04 2.01 1.94 1.89 1.88 1.86 1.93 2.00 1.86 1.69 1.57 1.53 1.41 1.36 1.21 1.15 1.11 0.96 0.82 0.67 0.63 0.71 0.72 0.67 0.71 0.79 0.79 0.73 0.61 0.62 0.75 0.79
1.67 1.69 1.68 1.85 1.84 1.98 2.09 1.96 1.97 1.96 2.02 2.18 2.32 2.42 2.52 2.59 2.55 2.47 2.35 2.20 1.99 1.86 1.78 1.64 1.54 1.38 1.23 1.09 0.87 0.76 0.63 0.55 0.59 0.64 0.65 0.68 0.69 0.68 0.68 0.66 0.67 0.65 0.67
1.83 1.87 1.79 1.78 1.98 2.05 2.17 2.26 2.43 2.39 2.35 2.58 2.88 3.05 3.24 3.30 3.12 3.03 2.91 2.69 2.43 2.18 1.97 1.72 1.53 1.37 1.20 1.03 0.91 0.80 0.63 0.48 0.50 0.54 0.55 0.57 0.57 0.53 0.51 0.53 0.56 0.54 0.52
1.92 1.91 1.96 2.08 2.17 2.29 2.60 3.00 3.37 3.60 3.73 3.81 3.97 4.02 3.96 3.83 3.69 3.54 3.37 3.08 2.71 2.41 2.12 1.82 1.52 1.32 1.15 1.00 0.94 0.94 0.78 0.59 0.47 0.39 0.39 0.38 0.35 0.31 0.30 0.32 0.34 0.35 0.36
1.82 1.97 2.03 2.33 2.65 2.94 3.40 3.94 4.32 4.67 4.89 4.80 4.62 4.45 4.22 4.04 3.85 3.53 3.26 3.06 2.73 2.31 1.99 1.71 1.43 1.26 1.10 0.92 0.80 0.81 0.79 0.70 0.54 0.40 0.31 0.26 0.25 0.24 0.22 0.22 0.24 0.25 0.25
1.57 1.84 2.07 2.42 2.93 3.59 4.25 4.79 5.20 5.38 5.38 5.27 5.01 4.64 4.22 3.90 3.61 3.28 2.95 2.65 2.36 2.01 1.71 1.44 1.16 0.98 0.86 0.73 0.59 0.49 0.46 0.45 0.49 0.42 0.30 0.24 0.23 0.22 0.19 0.18 0.19 0.23 0.24
1.36 1.67 2.04 2.51 3.14 3.75 4.38 4.89 5.27 5.39 5.27 5.00 4.58 4.14 3.67 3.24 2.90 2.59 2.29 2.02 1.78 1.53 1.27 1.01 0.84 0.73 0.66 0.58 0.50 0.45 0.41 0.37 0.37 0.38 0.31 0.23 0.19 0.17 0.15 0.15 0.16 0.19 0.19
1.21 1.54 1.90 2.31 2.84 3.33 3.73 4.21 4.49 4.59 4.49 4.19 3.72 3.20 2.77 2.46 2.18 1.95 1.70 1.49 1.31 1.09 0.91 0.77 0.66 0.61 0.58 0.52 0.45 0.40 0.38 0.36 0.34 0.33 0.32 0.24 0.18 0.15 0.13 0.13 0.14 0.15 0.17

GEFSSE_prec_meanprecacc_108.txt.gz
Total_Precipitation_Accumulation
0.04 0.01 0.02 0.02 0.03 0.05 0.04 0.04 0.05 0.07 0.07 0.06 0.06 0.05 0.05 0.05 0.05 0.04 0.04 0.05 0.07 0.11 0.15 0.17 0.19 0.21 0.23 0.16 0.08 0.05 0.05 0.05 0.06 0.07 0.09 0.10 0.12 0.13 0.14 0.11 0.10 0.08 0.06
0.04 0.01 0.01 0.01 0.02 0.04 0.04 0.04 0.05 0.06 0.05 0.05 0.05 0.05 0.05 0.05 0.06 0.06 0.06 0.06 0.08 0.10 0.11 0.13 0.14 0.15 0.13 0.08 0.04 0.04 0.04 0.06 0.11 0.17 0.23 0.24 0.23 0.20 0.23 0.24 0.21 0.13 0.07
0.03 0.01 0.01 0.01 0.02 0.03 0.04 0.06 0.06 0.07 0.07 0.07 0.06 0.05 0.05 0.06 0.07 0.07 0.06 0.07 0.10 0.12 0.12 0.10 0.09 0.08 0.06 0.04 0.03 0.04 0.06 0.09 0.18 0.30 0.53 0.66 0.54 0.41 0.31 0.26 0.23 0.16 0.13
0.03 0.01 0.01 0.01 0.02 0.02 0.03 0.04 0.06 0.07 0.06 0.06 0.05 0.05 0.05 0.05 0.06 0.07 0.07 0.09 0.14 0.16 0.14 0.10 0.07 0.05 0.03 0.02 0.03 0.05 0.08 0.13 0.22 0.42 0.91 0.87 0.86 0.68 0.37 0.26 0.21 0.23 0.29
0.02 0.00 0.01 0.02 0.02 0.02 0.02 0.02 0.04 0.05 0.05 0.06 0.05 0.04 0.05 0.05 0.06 0.08 0.12 0.15 0.16 0.17 0.17 0.14 0.10 0.06 0.03 0.02 0.03 0.05 0.09 0.14 0.28 0.55 0.91 1.19 1.27 0.79 0.47 0.36 0.30 0.29 0.37
0.03 0.01 0.01 0.02 0.02 0.02 0.02 0.02 0.04 0.05 0.05 0.05 0.05 0.05 0.06 0.06 0.07 0.10 0.18 0.24 0.22 0.20 0.22 0.22 0.17 0.11 0.05 0.03 0.03 0.06 0.09 0.16 0.30 0.57 0.92 1.43 1.27 0.77 0.54 0.43 0.39 0.39 0.43
0.04 0.01 0.01 0.03 0.04 0.03 0.02 0.03 0.04 0.06 0.08 0.09 0.09 0.08 0.08 0.08 0.10 0.15 0.23 0.25 0.24 0.23 0.24 0.21 0.14 0.08 0.06 0.06 0.06 0.07 0.11 0.18 0.28 0.58 0.88 1.27 1.04 0.63 0.47 0.39 0.36 0.37 0.42
0.05 0.02 0.02 0.04 0.05 0.05 0.05 0.06 0.07 0.08 0.10 0.11 0.12 0.11 0.08 0.08 0.10 0.15 0.20 0.23 0.24 0.21 0.17 0.13 0.10 0.09 0.10 0.10 0.10 0.11 0.14 0.15 0.20 0.44 0.72 0.82 0.63 0.42 0.32 0.28 0.25 0.23 0.26
0.11 0.10 0.08 0.08 0.07 0.09 0.12 0.14 0.14 0.12 0.12 0.12 0.11 0.09 0.07 0.08 0.11 0.14 0.17 0.22 0.23 0.15 0.11 0.10 0.08 0.07 0.07 0.07 0.07 0.08 0.08 0.12 0.17 0.32 0.66 0.67 0.42 0.32 0.28 0.23 0.17 0.17 0.19
0.26 0.27 0.27 0.20 0.14 0.12 0.13 0.17 0.18 0.18 0.17 0.14 0.10 0.07 0.08 0.11 0.13 0.15 0.13 0.14 0.14 0.09 0.06 0.04 0.03 0.02 0.02 0.02 0.03 0.04 0.06 0.07 0.12 0.25 0.48 0.49 0.39 0.37 0.33 0.26 0.19 0.16 0.16
0.56 0.55 0.47 0.38 0.25 0.21 0.18 0.18 0.20 0.20 0.19 0.16 0.14 0.11 0.13 0.17 0.19 0.20 0.14 0.13 0.09 0.05 0.04 0.02 0.02 0.02 0.02 0.02 0.02 0.03 0.04 0.05 0.12 0.24 0.39 0.41 0.47 0.47 0.43 0.36 0.29 0.24 0.20
0.79 0.74 0.52 0.48 0.44 0.37 0.26 0.24 0.25 0.22 0.19 0.18 0.21 0.18 0.22 0.33 0.37 0.29 0.25 0.15 0.10 0.08 0.06 0.04 0.04 0.04 0.03 0.04 0.04 0.04 0.04 0.05 0.12 0.21 0.35 0.43 0.50 0.55 0.51 0.43 0.35 0.29 0.26
0.64 0.58 0.54 0.58 0.54 0.52 0.52 0.51 0.48 0.45 0.42 0.34 0.39 0.36 0.38 0.38 0.33 0.34 0.31 0.24 0.19 0.15 0.14 0.14 0.09 0.07 0.07 0.08 0.09 0.07 0.07 0.08 0.10 0.13 0.22 0.34 0.41 0.53 0.58 0.51 0.42 0.36 0.30
0.89 0.78 0.67 0.61 0.62 0.64 0.66 0.74 0.79 0.74 0.67 0.59 0.50 0.41 0.47 0.54 0.54 0.46 0.46 0.43 0.42 0.37 0.34 0.28 0.23 0.16 0.15 0.14 0.13 0.14 0.14 0.12 0.13 0.15 0.23 0.28 0.35 0.51 0.61 0.59 0.51 0.45 0.39
1.34 1.18 0.97 0.94 0.82 0.82 0.89 0.90 0.80 0.83 0.83 0.90 0.80 0.63 0.68 0.67 0.67 0.73 0.71 0.72 0.66 0.66 0.61 0.50 0.39 0.33 0.30 0.26 0.24 0.24 0.22 0.20 0.20 0.24 0.32 0.38 0.40 0.49 0.63 0.67 0.63 0.58 0.53
1.66 1.51 1.31 1.19 1.16 1.13 1.19 1.20 1.09 1.00 1.02 1.05 1.08 0.99 1.03 1.00 0.98 1.01 1.06 1.09 0.96 0.88 0.89 0.79 0.60 0.53 0.48 0.41 0.39 0.39 0.35 0.33 0.33 0.33 0.46 0.47 0.46 0.49 0.63 0.76 0.79 0.80 0.80
1.89 1.72 1.69 1.54 1.64 1.65 1.72 1.69 1.69 1.63 1.59 1.48 1.40 1.43 1.43 1.36 1.33 1.28 1.41 1.50 1.33 1.25 1.23 1.11 0.97 0.79 0.75 0.69 0.64 0.59 0.56 0.53 0.54 0.56 0.63 0.66 0.66 0.61 0.64 0.75 0.83 0.89 0.92
1.80 1.81 1.86 1.71 1.74 1.91 1.90 1.82 1.84 2.00 2.03 1.95 1.85 1.85 1.72 1.68 1.70 1.76 1.70 1.66 1.61 1.56 1.52 1.53 1.35 1.11 1.03 1.06 0.96 0.84 0.73 0.74 0.79 0.79 0.78 0.83 0.85 0.79 0.75 0.72 0.76 0.84 0.90
1.72 1.60 1.69 1.90 1.84 1.96 1.99 1.95 2.03 2.23 2.34 2.38 2.33 2.23 2.12 2.09 2.07 2.15 2.23 2.09 1.93 1.83 1.78 1.63 1.56 1.40 1.33 1.29 1.13 0.97 0.81 0.78 0.86 0.88 0.84 0.86 0.92 0.92 0.87 0.75 0.75 0.84 0.87
1.69 1.72 1.73 1.92 1.92 2.05 2.16 2.07 2.14 2.21 2.30 2.44 2.58 2.68 2.79 2.83 2.78 2.70 2.57 2.42 2.25 2.15 2.07 1.91 1.78 1.62 1.47 1.32 1.05 0.95 0.82 0.73 0.74 0.78 0.79 0.81 0.80 0.80 0.80 0.77 0.77 0.73 0.73
1.85 1.89 1.83 1.84 2.04 2.12 2.24 2.34 2.57 2.56 2.55 2.79 3.11 3.28 3.48 3.56 3.39 3.31 3.15 2.90 2.70 2.48 2.30 2.03 1.84 1.67 1.46 1.25 1.10 0.96 0.78 0.64 0.64 0.68 0.66 0.66 0.65 0.61 0.60 0.62 0.66 0.62 0.58
1.95 1.95 2.01 2.15 2.23 2.36 2.68 3.10 3.49 3.76 3.92 4.02 4.19 4.22 4.13 4.02 3.92 3.82 3.65 3.36 3.04 2.76 2.50 2.20 1.86 1.65 1.43 1.23 1.14 1.12 0.93 0.74 0.59 0.48 0.47 0.45 0.41 0.37 0.35 0.39 0.41 0.42 0.41
1.86 2.03 2.11 2.40 2.72 3.02 3.48 4.04 4.43 4.78 5.02 4.94 4.74 4.58 4.36 4.17 3.99 3.69 3.48 3.36 3.08 2.67 2.37 2.11 1.80 1.59 1.39 1.17 1.01 1.00 0.94 0.82 0.65 0.50 0.39 0.33 0.31 0.29 0.27 0.27 0.30 0.30 0.28
1.63 1.91 2.17 2.50 3.01 3.69 4.35 4.91 5.31 5.49 5.48 5.37 5.11 4.75 4.35 4.03 3.74 3.41 3.12 2.86 2.61 2.30 2.02 1.79 1.54 1.34 1.19 1.03 0.86 0.70 0.61 0.54 0.58 0.52 0.40 0.32 0.29 0.28 0.25 0.22 0.22 0.24 0.25
1.41 1.72 2.09 2.56 3.20 3.83 4.46 4.99 5.39 5.51 5.40 5.15 4.74 4.26 3.77 3.32 3.00 2.71 2.41 2.14 1.91 1.71 1.50 1.28 1.14 1.09 1.01 0.90 0.79 0.71 0.61 0.51 0.46 0.46 0.40 0.31 0.27 0.24 0.21 0.19 0.19 0.20 0.20
1.24 1.57 1.94 2.35 2.89 3.39 3.79 4.28 4.56 4.69 4.63 4.32 3.85 3.30 2.85 2.54 2.26 2.03 1.78 1.57 1.38 1.19 1.04 0.93 0.85 0.83 0.85 0.79 0.71 0.64 0.60 0.54 0.49 0.45 0.42 0.34 0.27 0.23 0.19 0.17 0.17 0.17 0.18

GEFSSE_prec_meanprecacc_114.txt.gz
Total_Precipitation_Accumulation
0.05 0.01 0.02 0.02 0.03 0.05 0.04 0.05 0.06 0.07 0.07 0.07 0.06 0.05 0.05 0.05 0.05 0.04 0.04 0.05 0.07 0.11 0.16 0.18 0.20 0.22 0.24 0.17 0.09 0.06 0.05 0.05 0.06 0.07 0.09 0.11 0.12 0.14 0.14 0.11 0.11 0.09 0.06
0.04 0.01 0.02 0.01 0.02 0.04 0.04 0.05 0.06 0.07 0.07 0.06 0.06 0.05 0.05 0.05 0.06 0.06 0.06 0.06 0.08 0.11 0.12 0.14 0.15 0.16 0.14 0.09 0.05 0.04 0.05 0.06 0.12 0.19 0.25 0.26 0.24 0.20 0.23 0.24 0.22 0.14 0.08
0.03 0.02 0.02 0.01 0.02 0.03 0.04 0.06 0.07 0.08 0.08 0.08 0.07 0.06 0.06 0.06 0.07 0.07 0.06 0.07 0.11 0.13 0.12 0.11 0.10 0.09 0.07 0.05 0.04 0.05 0.06 0.10 0.20 0.33 0.56 0.70 0.56 0.42 0.31 0.27 0.24 0.16 0.13
0.03 0.02 0.02 0.02 0.02 0.02 0.03 0.04 0.06 0.07 0.07 0.07 0.06 0.05 0.05 0.06 0.06 0.07 0.08 0.09 0.14 0.17 0.15 0.10 0.08 0.06 0.04 0.03 0.03 0.05 0.09 0.14 0.25 0.45 0.93 0.90 0.89 0.70 0.38 0.27 0.22 0.23 0.29
0.03 0.01 0.01 0.02 0.02 0.02 0.02 0.03 0.05 0.06 0.05 0.06 0.05 0.05 0.05 0.05 0.06 0.08 0.12 0.15 0.16 0.17 0.18 0.15 0.11 0.07 0.03 0.02 0.03 0.06 0.10 0.16 0.30 0.56 0.92 1.21 1.33 0.83 0.48 0.36 0.31 0.31 0.38
0.04 0.01 0.01 0.02 0.03 0.03 0.02 0.03 0.05 0.06 0.06 0.06 0.05 0.06 0.06 0.06 0.07 0.11 0.19 0.24 0.22 0.20 0.23 0.22 0.18 0.12 0.05 0.03 0.04 0.07 0.11 0.19 0.32 0.57 0.92 1.44 1.30 0.80 0.56 0.45 0.41 0.40 0.44
0.05 0.02 0.02 0.03 0.05 0.04 0.03 0.04 0.05 0.06 0.08 0.10 0.10 0.09 0.09 0.09 0.10 0.16 0.23 0.26 0.24 0.24 0.25 0.21 0.15 0.08 0.06 0.07 0.06 0.08 0.14 0.21 0.31 0.60 0.90 1.29 1.06 0.65 0.49 0.41 0.38 0.38 0.43
0.06 0.02 0.03 0.05 0.07 0.06 0.06 0.07 0.09 0.09 0.10 0.12 0.13 0.12 0.09 0.08 0.11 0.16 0.21 0.24 0.25 0.22 0.17 0.14 0.10 0.09 0.10 0.11 0.11 0.12 0.16 0.17 0.22 0.46 0.75 0.85 0.64 0.44 0.34 0.31 0.27 0.25 0.28
0.11 0.11 0.10 0.10 0.09 0.10 0.14 0.17 0.17 0.15 0.14 0.14 0.13 0.10 0.08 0.09 0.12 0.15 0.19 0.24 0.24 0.16 0.12 0.10 0.08 0.07 0.07 0.08 0.08 0.09 0.11 0.14 0.19 0.35 0.68 0.71 0.44 0.34 0.31 0.27 0.20 0.19 0.21
0.26 0.28 0.29 0.23 0.17 0.15 0.18 0.21 0.22 0.22 0.21 0.17 0.14 0.10 0.10 0.14 0.15 0.18 0.16 0.17 0.16 0.11 0.07 0.05 0.04 0.03 0.03 0.03 0.03 0.05 0.08 0.10 0.13 0.26 0.50 0.53 0.42 0.41 0.38 0.31 0.23 0.19 0.19
0.57 0.56 0.49 0.42 0.31 0.28 0.27 0.24 0.26 0.27 0.26 0.21 0.18 0.15 0.17 0.21 0.23 0.24 0.17 0.17 0.11 0.07 0.05 0.04 0.03 0.03 0.03 0.03 0.03 0.05 0.06 0.07 0.14 0.25 0.42 0.43 0.51 0.54 0.50 0.42 0.33 0.27 0.23
0.81 0.76 0.55 0.53 0.50 0.46 0.37 0.35 0.36 0.31 0.26 0.23 0.26 0.23 0.27 0.40 0.46 0.38 0.32 0.21 0.15 0.11 0.09 0.07 0.06 0.05 0.04 0.05 0.05 0.05 0.05 0.06 0.13 0.22 0.37 0.45 0.54 0.62 0.59 0.49 0.39 0.33 0.29
0.68 0.61 0.56 0.63 0.60 0.59 0.61 0.66 0.61 0.56 0.52 0.43 0.48 0.44 0.47 0.48 0.44 0.45 0.40 0.32 0.26 0.21 0.20 0.20 0.14 0.10 0.10 0.10 0.11 0.09 0.08 0.09 0.12 0.15 0.26 0.37 0.46 0.60 0.66 0.58 0.46 0.41 0.35
0.92 0.81 0.70 0.64 0.67 0.72 0.74 0.84 0.90 0.86 0.79 0.73 0.66 0.59 0.61 0.65 0.64 0.55 0.57 0.53 0.51 0.47 0.45 0.39 0.32 0.24 0.21 0.19 0.16 0.17 0.16 0.15 0.15 0.19 0.28 0.33 0.39 0.56 0.68 0.66 0.57 0.51 0.45
1.36 1.20 1.00 0.98 0.87 0.90 1.00 1.04 0.92 0.94 0.98 1.05 0.95 0.80 0.84 0.80 0.81 0.88 0.85 0.86 0.80 0.81 0.75 0.63 0.51 0.44 0.39 0.32 0.30 0.29 0.26 0.24 0.25 0.30 0.37 0.41 0.42 0.53 0.70 0.76 0.71 0.63 0.60
1.67 1.52 1.33 1.22 1.21 1.20 1.32 1.39 1.26 1.15 1.15 1.18 1.19 1.10 1.14 1.11 1.10 1.14 1.18 1.21 1.10 1.05 1.05 0.92 0.72 0.64 0.58 0.50 0.47 0.44 0.41 0.39 0.40 0.40 0.52 0.53 0.50 0.55 0.71 0.87 0.89 0.88 0.90
1.91 1.73 1.70 1.56 1.67 1.71 1.82 1.84 1.86 1.77 1.74 1.63 1.53 1.54 1.52 1.47 1.45 1.39 1.52 1.60 1.46 1.40 1.39 1.26 1.09 0.90 0.85 0.78 0.73 0.69 0.64 0.61 0.62 0.63 0.71 0.76 0.75 0.68 0.71 0.84 0.94 1.01 1.04
1.81 1.82 1.87 1.72 1.77 1.96 1.96 1.90 1.94 2.12 2.15 2.07 1.97 1.97 1.83 1.80 1.84 1.90 1.85 1.80 1.73 1.67 1.64 1.68 1.48 1.23 1.14 1.17 1.08 0.94 0.82 0.83 0.86 0.85 0.86 0.93 0.98 0.91 0.87 0.81 0.85 0.95 1.02
1.73 1.62 1.70 1.92 1.88 2.01 2.04 2.00 2.09 2.32 2.46 2.49 2.45 2.36 2.24 2.22 2.21 2.30 2.39 2.25 2.07 1.94 1.90 1.79 1.72 1.55 1.48 1.44 1.25 1.07 0.90 0.87 0.93 0.95 0.93 0.96 1.03 1.06 1.02 0.88 0.87 0.99 1.04
1.70 1.73 1.74 1.94 1.95 2.10 2.22 2.12 2.20 2.27 2.38 2.53 2.67 2.79 2.91 2.95 2.91 2.83 2.72 2.59 2.41 2.27 2.20 2.06 1.95 1.80 1.63 1.47 1.18 1.05 0.91 0.82 0.83 0.87 0.89 0.90 0.90 0.92 0.93 0.89 0.89 0.88 0.89
1.86 1.91 1.85 1.86 2.08 2.17 2.29 2.39 2.62 2.62 2.61 2.85 3.17 3.35 3.56 3.64 3.47 3.39 3.26 3.05 2.84 2.61 2.44 2.19 2.00 1.86 1.64 1.43 1.26 1.10 0.90 0.74 0.74 0.77 0.76 0.75 0.75 0.71 0.71 0.76 0.81 0.77 0.74
1.98 1.98 2.04 2.17 2.25 2.39 2.71 3.14 3.53 3.80 3.97 4.07 4.24 4.30 4.22 4.10 3.98 3.87 3.74 3.48 3.18 2.90 2.64 2.37 2.05 1.85 1.62 1.42 1.33 1.30 1.11 0.91 0.71 0.58 0.57 0.54 0.51 0.47 0.46 0.50 0.54 0.56 0.56
1.88 2.05 2.14 2.43 2.75 3.05 3.51 4.07 4.47 4.81 5.06 4.98 4.80 4.66 4.47 4.28 4.08 3.76 3.55 3.47 3.21 2.82 2.54 2.31 2.03 1.83 1.62 1.39 1.23 1.23 1.15 1.01 0.82 0.66 0.53 0.45 0.41 0.39 0.37 0.37 0.39 0.40 0.40
1.66 1.94 2.19 2.52 3.03 3.71 4.38 4.95 5.36 5.53 5.52 5.42 5.16 4.80 4.42 4.12 3.83 3.50 3.20 2.95 2.72 2.43 2.17 1.98 1.80 1.67 1.53 1.38 1.21 1.03 0.86 0.74 0.77 0.72 0.59 0.48 0.42 0.38 0.33 0.30 0.30 0.33 0.34
1.44 1.75 2.12 2.58 3.22 3.84 4.48 5.03 5.44 5.57 5.45 5.20 4.78 4.31 3.81 3.37 3.05 2.78 2.49 2.21 1.99 1.79 1.60 1.41 1.34 1.37 1.35 1.28 1.22 1.14 0.98 0.81 0.71 0.67 0.64 0.53 0.45 0.39 0.33 0.28 0.27 0.27 0.27
1.27 1.60 1.96 2.38 2.92 3.42 3.82 4.31 4.60 4.74 4.67 4.36 3.89 3.33 2.89 2.58 2.31 2.08 1.83 1.62 1.43 1.25 1.11 1.03 1.00 1.02 1.08 1.09 1.07 1.02 0.98 0.92 0.82 0.72 0.67 0.59 0.51 0.44 0.36 0.30 0.27 0.25 0.25

GEFSSE_prec_meanprecacc_120.txt.gz
Total_Precipitation_Accumulation
0.05 0.02 0.02 0.02 0.03 0.05 0.04 0.05 0.06 0.08 0.07 0.07 0.06 0.05 0.05 0.05 0.05 0.04 0.04 0.05 0.07 0.11 0.16 0.18 0.20 0.22 0.25 0.18 0.09 0.06 0.06 0.05 0.06 0.08 0.10 0.11 0.13 0.14 0.15 0.11 0.12 0.09 0.07
0.05 0.02 0.02 0.01 0.02 0.04 0.04 0.05 0.06 0.07 0.07 0.06 0.06 0.05 0.05 0.05 0.06 0.06 0.06 0.06 0.09 0.11 0.12 0.14 0.16 0.17 0.15 0.10 0.06 0.05 0.05 0.06 0.12 0.19 0.25 0.26 0.24 0.21 0.23 0.25 0.24 0.15 0.08
0.04 0.02 0.02 0.01 0.02 0.03 0.04 0.06 0.07 0.08 0.08 0.08 0.07 0.06 0.06 0.06 0.07 0.07 0.07 0.07 0.11 0.13 0.12 0.11 0.10 0.10 0.08 0.05 0.05 0.05 0.07 0.10 0.20 0.34 0.59 0.74 0.57 0.42 0.31 0.27 0.24 0.16 0.13
0.03 0.02 0.02 0.02 0.02 0.02 0.03 0.05 0.06 0.07 0.07 0.07 0.06 0.05 0.06 0.06 0.07 0.07 0.08 0.10 0.15 0.17 0.15 0.11 0.08 0.06 0.04 0.04 0.04 0.06 0.09 0.15 0.26 0.49 1.06 0.96 0.91 0.71 0.38 0.27 0.22 0.23 0.30
0.03 0.01 0.01 0.02 0.02 0.02 0.03 0.03 0.05 0.06 0.06 0.06 0.06 0.06 0.06 0.06 0.07 0.08 0.12 0.16 0.17 0.18 0.19 0.16 0.12 0.07 0.04 0.03 0.04 0.06 0.10 0.17 0.32 0.61 1.02 1.27 1.39 0.85 0.48 0.37 0.32 0.31 0.38
0.04 0.01 0.01 0.02 0.03 0.03 0.03 0.03 0.05 0.07 0.06 0.07 0.06 0.07 0.08 0.08 0.08 0.12 0.20 0.25 0.23 0.21 0.24 0.23 0.19 0.12 0.06 0.04 0.04 0.07 0.11 0.19 0.33 0.61 0.97 1.49 1.33 0.81 0.56 0.46 0.41 0.40 0.44
0.05 0.02 0.02 0.04 0.05 0.04 0.03 0.04 0.06 0.07 0.09 0.11 0.12 0.11 0.11 0.10 0.12 0.17 0.25 0.26 0.26 0.25 0.26 0.22 0.16 0.09 0.07 0.07 0.07 0.08 0.15 0.22 0.33 0.65 0.95 1.33 1.13 0.67 0.50 0.42 0.38 0.38 0.43
0.07 0.03 0.03 0.05 0.07 0.06 0.07 0.08 0.10 0.10 0.12 0.14 0.15 0.14 0.11 0.10 0.13 0.19 0.22 0.25 0.26 0.23 0.19 0.15 0.11 0.10 0.10 0.11 0.11 0.13 0.17 0.18 0.25 0.51 0.81 0.90 0.69 0.45 0.35 0.32 0.28 0.26 0.28
0.12 0.12 0.11 0.11 0.09 0.11 0.14 0.17 0.18 0.17 0.16 0.16 0.15 0.13 0.11 0.12 0.15 0.18 0.21 0.26 0.26 0.18 0.14 0.12 0.10 0.08 0.08 0.08 0.08 0.09 0.11 0.15 0.21 0.38 0.74 0.77 0.46 0.35 0.32 0.28 0.21 0.20 0.22
0.28 0.30 0.30 0.24 0.19 0.17 0.19 0.22 0.24 0.24 0.23 0.20 0.16 0.13 0.14 0.17 0.19 0.21 0.18 0.20 0.19 0.14 0.10 0.08 0.06 0.05 0.04 0.03 0.03 0.05 0.09 0.10 0.14 0.32 0.59 0.60 0.44 0.43 0.40 0.33 0.24 0.20 0.21
0.61 0.62 0.56 0.47 0.34 0.31 0.30 0.26 0.28 0.29 0.28 0.24 0.21 0.19 0.22 0.26 0.28 0.30 0.24 0.25 0.18 0.13 0.10 0.08 0.06 0.06 0.04 0.04 0.04 0.05 0.06 0.07 0.18 0.32 0.56 0.54 0.55 0.56 0.53 0.46 0.36 0.29 0.25
0.86 0.82 0.63 0.62 0.58 0.53 0.42 0.40 0.41 0.35 0.31 0.28 0.34 0.30 0.35 0.51 0.59 0.53 0.49 0.36 0.28 0.21 0.16 0.12 0.11 0.09 0.05 0.07 0.07 0.06 0.06 0.07 0.16 0.28 0.45 0.50 0.58 0.66 0.63 0.55 0.44 0.36 0.32
0.76 0.71 0.68 0.74 0.71 0.70 0.71 0.77 0.70 0.65 0.61 0.51 0.59 0.57 0.60 0.64 0.61 0.62 0.59 0.46 0.38 0.34 0.33 0.32 0.21 0.17 0.14 0.15 0.15 0.11 0.09 0.10 0.14 0.22 0.38 0.47 0.52 0.64 0.71 0.63 0.53 0.48 0.41
1.03 0.89 0.77 0.72 0.74 0.82 0.88 0.99 1.03 1.01 0.95 0.85 0.80 0.75 0.82 0.88 0.85 0.74 0.79 0.75 0.71 0.65 0.64 0.59 0.48 0.38 0.32 0.28 0.23 0.23 0.20 0.18 0.20 0.27 0.35 0.41 0.46 0.60 0.73 0.72 0.63 0.58 0.51
1.48 1.29 1.06 1.05 0.95 1.00 1.14 1.19 1.07 1.10 1.13 1.19 1.14 1.03 1.09 1.04 1.04 1.12 1.08 1.13 1.06 1.07 1.00 0.88 0.72 0.65 0.57 0.50 0.42 0.36 0.33 0.30 0.31 0.40 0.50 0.53 0.51 0.58 0.76 0.82 0.77 0.70 0.67
1.76 1.56 1.37 1.27 1.28 1.29 1.43 1.51 1.40 1.30 1.31 1.36 1.41 1.29 1.33 1.33 1.33 1.37 1.40 1.44 1.33 1.28 1.28 1.17 0.97 0.88 0.80 0.70 0.62 0.55 0.49 0.47 0.47 0.47 0.66 0.68 0.62 0.63 0.78 0.94 0.97 0.99 1.01
1.95 1.77 1.74 1.60 1.73 1.77 1.90 1.94 1.96 1.88 1.86 1.77 1.71 1.73 1.67 1.63 1.63 1.58 1.73 1.83 1.68 1.61 1.61 1.46 1.30 1.10 1.06 1.01 0.94 0.85 0.79 0.74 0.73 0.73 0.82 0.90 0.89 0.81 0.82 0.94 1.04 1.11 1.15
1.84 1.85 1.90 1.75 1.81 2.01 2.02 1.97 2.04 2.21 2.23 2.16 2.06 2.09 1.96 1.92 1.97 2.06 2.03 1.98 1.92 1.86 1.83 1.86 1.66 1.43 1.37 1.44 1.34 1.15 1.01 1.01 1.03 1.00 0.99 1.05 1.12 1.06 1.02 0.94 0.98 1.08 1.13
1.76 1.65 1.74 1.95 1.92 2.05 2.09 2.06 2.16 2.40 2.53 2.56 2.52 2.44 2.33 2.32 2.35 2.46 2.56 2.41 2.23 2.11 2.09 1.98 1.91 1.77 1.72 1.69 1.49 1.29 1.09 1.04 1.10 1.11 1.08 1.11 1.19 1.23 1.19 1.03 1.02 1.14 1.19
1.72 1.76 1.77 1.97 1.98 2.14 2.26 2.17 2.25 2.34 2.45 2.60 2.74 2.84 2.98 3.03 3.00 2.95 2.84 2.70 2.52 2.41 2.35 2.24 2.17 2.07 1.89 1.70 1.40 1.25 1.08 0.98 0.99 1.03 1.04 1.06 1.08 1.11 1.12 1.07 1.06 1.03 1.05
1.88 1.92 1.87 1.88 2.10 2.20 2.33 2.45 2.67 2.68 2.68 2.91 3.22 3.39 3.60 3.69 3.52 3.46 3.34 3.15 2.94 2.72 2.57 2.35 2.21 2.11 1.91 1.68 1.48 1.29 1.06 0.89 0.88 0.90 0.88 0.88 0.89 0.87 0.89 0.95 1.02 0.97 0.90
2.00 1.99 2.06 2.19 2.28 2.42 2.76 3.18 3.57 3.85 4.02 4.11 4.28 4.34 4.26 4.13 4.01 3.90 3.79 3.55 3.28 3.03 2.78 2.54 2.26 2.08 1.85 1.64 1.54 1.49 1.27 1.04 0.82 0.67 0.66 0.64 0.61 0.59 0.60 0.65 0.70 0.72 0.71
1.89 2.07 2.15 2.45 2.78 3.08 3.55 4.10 4.49 4.85 5.09 5.02 4.84 4.71 4.49 4.29 4.10 3.78 3.58 3.50 3.27 2.92 2.67 2.46 2.22 2.02 1.80 1.59 1.43 1.43 1.33 1.15 0.95 0.79 0.66 0.57 0.53 0.52 0.50 0.53 0.56 0.55 0.53
1.66 1.94 2.21 2.54 3.05 3.74 4.41 4.98 5.39 5.57 5.57 5.48 5.23 4.86 4.46 4.15 3.84 3.51 3.22 2.97 2.76 2.49 2.26 2.10 1.98 1.86 1.74 1.57 1.42 1.21 1.02 0.87 0.88 0.86 0.75 0.63 0.56 0.53 0.47 0.43 0.45 0.47 0.46
1.44 1.75 2.13 2.60 3.23 3.86 4.51 5.07 5.49 5.62 5.51 5.27 4.85 4.37 3.88 3.42 3.07 2.79 2.51 2.24 2.02 1.84 1.66 1.50 1.46 1.55 1.59 1.53 1.47 1.37 1.19 0.98 0.84 0.80 0.79 0.72 0.66 0.61 0.52 0.44 0.39 0.39 0.38
1.28 1.61 1.97 2.40 2.94 3.44 3.84 4.34 4.64 4.80 4.73 4.42 3.95 3.39 2.95 2.63 2.34 2.11 1.86 1.64 1.46 1.29 1.15 1.09 1.09 1.14 1.24 1.29 1.29 1.27 1.23 1.15 1.02 0.90 0.87 0.83 0.79 0.74 0.65 0.56 0.49 0.44 0.41

GEFSSE_prec_meanprecacc_126.txt.gz
Total_Precipitation_Accumulation
0.06 0.02 0.02 0.02 0.03 0.05 0.04 0.05 0.06 0.08 0.07 0.07 0.06 0.05 0.05 0.05 0.05 0.04 0.04 0.05 0.07 0.12 0.16 0.18 0.20 0.23 0.25 0.19 0.10 0.07 0.06 0.06 0.07 0.08 0.10 0.11 0.13 0.15 0.15 0.12 0.13 0.09 0.07
0.06 0.03 0.02 0.01 0.02 0.04 0.04 0.05 0.06 0.07 0.07 0.06 0.06 0.05 0.05 0.05 0.06 0.06 0.06 0.06 0.09 0.12 0.13 0.14 0.16 0.17 0.16 0.10 0.06 0.06 0.06 0.07 0.13 0.20 0.25 0.26 0.25 0.21 0.24 0.25 0.24 0.15 0.08
0.05 0.03 0.02 0.01 0.02 0.03 0.04 0.06 0.07 0.08 0.08 0.08 0.07 0.06 0.06 0.06 0.07 0.07 0.07 0.08 0.11 0.14 0.12 0.11 0.11 0.10 0.08 0.06 0.05 0.06 0.08 0.12 0.23 0.36 0.61 0.74 0.57 0.42 0.31 0.27 0.24 0.17 0.14
0.04 0.02 0.02 0.02 0.02 0.02 0.03 0.05 0.07 0.08 0.07 0.07 0.06 0.05 0.06 0.06 0.07 0.08 0.08 0.10 0.15 0.18 0.16 0.12 0.09 0.07 0.05 0.04 0.04 0.06 0.10 0.16 0.29 0.53 1.10 0.98 0.92 0.72 0.38 0.27 0.22 0.24 0.30
0.04 0.02 0.02 0.02 0.02 0.02 0.03 0.03 0.05 0.07 0.06 0.07 0.06 0.06 0.07 0.07 0.07 0.09 0.13 0.17 0.18 0.19 0.20 0.17 0.12 0.08 0.04 0.03 0.04 0.07 0.11 0.19 0.36 0.70 1.14 1.32 1.41 0.87 0.49 0.37 0.32 0.31 0.38
0.04 0.01 0.01 0.02 0.03 0.03 0.03 0.03 0.06 0.07 0.07 0.07 0.07 0.08 0.08 0.09 0.09 0.13 0.21 0.26 0.24 0.22 0.25 0.24 0.20 0.13 0.06 0.04 0.05 0.08 0.13 0.23 0.39 0.71 1.10 1.57 1.38 0.86 0.58 0.46 0.41 0.40 0.44
0.05 0.02 0.02 0.04 0.05 0.04 0.04 0.05 0.07 0.08 0.10 0.12 0.12 0.12 0.12 0.12 0.13 0.18 0.26 0.27 0.27 0.26 0.26 0.23 0.17 0.10 0.07 0.07 0.07 0.10 0.17 0.27 0.40 0.76 1.10 1.44 1.19 0.73 0.53 0.43 0.39 0.38 0.44
0.08 0.03 0.03 0.05 0.07 0.07 0.07 0.09 0.10 0.11 0.13 0.15 0.15 0.15 0.12 0.12 0.14 0.20 0.24 0.26 0.27 0.24 0.20 0.15 0.12 0.10 0.11 0.12 0.12 0.14 0.19 0.22 0.32 0.71 0.99 1.07 0.78 0.52 0.38 0.34 0.29 0.26 0.28
0.14 0.13 0.11 0.12 0.10 0.11 0.14 0.18 0.19 0.17 0.17 0.17 0.15 0.14 0.12 0.13 0.16 0.19 0.23 0.28 0.28 0.19 0.15 0.13 0.10 0.09 0.08 0.08 0.09 0.10 0.13 0.20 0.28 0.53 0.90 0.97 0.58 0.43 0.37 0.30 0.22 0.21 0.22
0.33 0.32 0.32 0.26 0.20 0.18 0.20 0.23 0.24 0.25 0.24 0.21 0.17 0.13 0.15 0.18 0.20 0.23 0.20 0.22 0.21 0.15 0.12 0.09 0.07 0.06 0.04 0.04 0.04 0.06 0.11 0.13 0.19 0.45 0.73 0.74 0.56 0.52 0.46 0.36 0.26 0.22 0.21
0.71 0.70 0.60 0.50 0.36 0.33 0.32 0.27 0.30 0.30 0.29 0.25 0.22 0.19 0.22 0.26 0.29 0.32 0.26 0.28 0.22 0.17 0.13 0.10 0.08 0.07 0.06 0.04 0.04 0.06 0.08 0.09 0.23 0.43 0.69 0.66 0.68 0.68 0.62 0.52 0.40 0.31 0.26
1.06 0.94 0.71 0.68 0.62 0.57 0.46 0.42 0.44 0.37 0.33 0.30 0.35 0.31 0.36 0.52 0.61 0.57 0.55 0.43 0.36 0.29 0.22 0.17 0.14 0.11 0.07 0.08 0.08 0.08 0.07 0.09 0.21 0.37 0.59 0.68 0.75 0.81 0.76 0.63 0.49 0.40 0.35
1.13 0.94 0.82 0.85 0.82 0.82 0.82 0.85 0.77 0.70 0.65 0.55 0.62 0.60 0.64 0.69 0.67 0.71 0.69 0.58 0.51 0.48 0.43 0.39 0.26 0.20 0.17 0.18 0.19 0.16 0.14 0.15 0.20 0.32 0.54 0.67 0.70 0.82 0.86 0.73 0.60 0.55 0.47
1.42 1.17 0.94 0.88 0.92 1.05 1.09 1.11 1.12 1.10 1.04 0.93 0.88 0.81 0.89 0.96 0.97 0.91 0.98 0.94 0.90 0.85 0.78 0.69 0.56 0.45 0.38 0.37 0.40 0.38 0.32 0.29 0.32 0.41 0.56 0.61 0.66 0.85 0.90 0.82 0.71 0.66 0.59
1.85 1.64 1.33 1.23 1.18 1.17 1.28 1.31 1.14 1.18 1.23 1.30 1.22 1.11 1.18 1.12 1.14 1.27 1.25 1.32 1.25 1.29 1.20 1.04 0.86 0.76 0.66 0.60 0.62 0.61 0.55 0.54 0.52 0.57 0.70 0.75 0.74 0.85 0.96 0.95 0.87 0.79 0.75
2.07 1.95 1.69 1.45 1.44 1.41 1.53 1.60 1.47 1.38 1.39 1.42 1.46 1.36 1.41 1.42 1.43 1.48 1.51 1.56 1.47 1.46 1.48 1.36 1.14 1.01 0.93 0.83 0.77 0.74 0.73 0.76 0.77 0.73 0.85 0.90 0.85 0.81 0.93 1.08 1.10 1.10 1.11
2.18 1.99 1.94 1.75 1.86 1.90 1.99 1.99 2.01 1.94 1.90 1.82 1.76 1.77 1.72 1.70 1.72 1.66 1.80 1.91 1.77 1.70 1.71 1.61 1.51 1.26 1.24 1.22 1.15 1.06 0.97 0.94 1.00 0.99 1.03 1.11 1.14 1.03 0.99 1.09 1.18 1.23 1.27
1.97 1.97 2.03 1.90 1.93 2.09 2.08 2.02 2.08 2.26 2.28 2.20 2.11 2.13 2.00 1.97 2.02 2.12 2.08 2.02 1.97 1.92 1.91 1.95 1.79 1.57 1.51 1.61 1.55 1.36 1.17 1.16 1.26 1.25 1.21 1.26 1.33 1.26 1.22 1.12 1.13 1.21 1.26
1.92 1.77 1.83 2.04 1.99 2.11 2.13 2.10 2.20 2.44 2.57 2.61 2.56 2.46 2.36 2.36 2.38 2.49 2.58 2.44 2.27 2.16 2.15 2.03 1.98 1.86 1.85 1.83 1.64 1.44 1.25 1.20 1.28 1.31 1.29 1.33 1.41 1.45 1.42 1.21 1.19 1.31 1.34
1.88 1.87 1.85 2.04 2.05 2.19 2.31 2.23 2.31 2.39 2.49 2.63 2.76 2.86 2.99 3.05 3.02 2.96 2.86 2.72 2.55 2.44 2.39 2.28 2.22 2.14 2.02 1.86 1.57 1.40 1.22 1.12 1.15 1.21 1.26 1.26 1.26 1.28 1.28 1.22 1.19 1.17 1.20
1.98 2.01 1.93 1.96 2.16 2.25 2.38 2.50 2.73 2.74 2.72 2.96 3.26 3.42 3.62 3.70 3.53 3.46 3.35 3.16 2.96 2.74 2.60 2.40 2.26 2.17 2.01 1.83 1.64 1.47 1.24 1.04 1.02 1.07 1.07 1.09 1.11 1.08 1.09 1.10 1.15 1.11 1.06
2.05 2.03 2.09 2.25 2.34 2.45 2.78 3.22 3.62 3.91 4.07 4.15 4.31 4.37 4.29 4.15 4.03 3.91 3.80 3.56 3.29 3.04 2.80 2.58 2.32 2.15 1.96 1.77 1.65 1.64 1.45 1.22 0.95 0.80 0.81 0.81 0.82 0.79 0.82 0.87 0.85 0.86 0.85
1.91 2.09 2.18 2.47 2.80 3.11 3.58 4.13 4.52 4.89 5.13 5.05 4.86 4.73 4.51 4.31 4.11 3.79 3.58 3.51 3.28 2.93 2.69 2.49 2.26 2.08 1.87 1.69 1.54 1.57 1.48 1.30 1.07 0.91 0.77 0.68 0.65 0.67 0.66 0.71 0.75 0.71 0.67
1.68 1.96 2.22 2.55 3.06 3.76 4.43 5.01 5.42 5.60 5.61 5.52 5.26 4.88 4.48 4.16 3.85 3.51 3.22 2.98 2.77 2.50 2.27 2.11 2.00 1.90 1.80 1.67 1.55 1.33 1.12 0.96 0.98 0.96 0.85 0.73 0.66 0.65 0.60 0.58 0.60 0.63 0.60
1.45 1.76 2.14 2.61 3.24 3.87 4.53 5.09 5.52 5.67 5.59 5.34 4.90 4.40 3.90 3.43 3.08 2.80 2.52 2.24 2.03 1.84 1.67 1.51 1.47 1.59 1.64 1.62 1.58 1.47 1.28 1.08 0.93 0.88 0.88 0.82 0.77 0.74 0.67 0.61 0.55 0.55 0.53
1.28 1.61 1.98 2.40 2.94 3.45 3.86 4.37 4.68 4.85 4.79 4.46 3.99 3.41 2.96 2.64 2.35 2.11 1.87 1.65 1.47 1.29 1.16 1.11 1.11 1.17 1.27 1.34 1.36 1.34 1.31 1.28 1.15 1.01 0.98 0.95 0.92 0.90 0.82 0.75 0.68 0.61 0.57

GEFSSE_prec_meanprecacc_132.txt.gz
Total_Precipitation_Accumulation
0.07 0.03 0.03 0.02 0.03 0.05 0.04 0.05 0.06 0.08 0.07 0.07 0.06 0.05 0.06 0.06 0.05 0.04 0.04 0.05 0.07 0.12 0.17 0.19 0.21 0.24 0.26 0.19 0.11 0.07 0.07 0.06 0.07 0.09 0.11 0.14 0.15 0.16 0.16 0.13 0.13 0.10 0.08
0.07 0.03 0.02 0.02 0.03 0.05 0.04 0.05 0.06 0.07 0.07 0.06 0.06 0.05 0.05 0.05 0.06 0.06 0.06 0.07 0.09 0.12 0.13 0.14 0.16 0.18 0.16 0.10 0.07 0.06 0.07 0.08 0.15 0.23 0.30 0.30 0.28 0.24 0.25 0.26 0.24 0.15 0.09
0.06 0.04 0.03 0.02 0.02 0.03 0.04 0.06 0.07 0.08 0.08 0.08 0.07 0.06 0.06 0.06 0.07 0.07 0.07 0.08 0.12 0.14 0.13 0.12 0.11 0.11 0.09 0.07 0.06 0.07 0.09 0.14 0.26 0.41 0.64 0.77 0.61 0.46 0.34 0.28 0.25 0.17 0.14
0.06 0.04 0.03 0.02 0.02 0.02 0.03 0.05 0.07 0.08 0.07 0.07 0.06 0.05 0.06 0.06 0.07 0.08 0.09 0.11 0.15 0.18 0.17 0.13 0.10 0.08 0.06 0.05 0.05 0.08 0.11 0.18 0.33 0.58 1.12 0.99 0.94 0.75 0.41 0.29 0.23 0.24 0.30
0.05 0.03 0.03 0.03 0.03 0.03 0.03 0.03 0.06 0.07 0.06 0.07 0.06 0.06 0.07 0.07 0.07 0.09 0.14 0.17 0.19 0.19 0.20 0.18 0.13 0.09 0.05 0.05 0.06 0.09 0.14 0.23 0.45 0.75 1.17 1.34 1.43 0.91 0.51 0.38 0.33 0.32 0.39
0.06 0.03 0.03 0.03 0.04 0.03 0.03 0.03 0.06 0.07 0.07 0.07 0.07 0.08 0.09 0.09 0.10 0.13 0.21 0.26 0.25 0.22 0.26 0.25 0.20 0.14 0.07 0.06 0.07 0.11 0.16 0.29 0.46 0.75 1.14 1.60 1.41 0.90 0.62 0.48 0.42 0.41 0.45
0.08 0.04 0.04 0.06 0.07 0.05 0.04 0.05 0.07 0.08 0.11 0.13 0.12 0.12 0.12 0.12 0.14 0.19 0.26 0.28 0.27 0.26 0.27 0.24 0.17 0.10 0.08 0.09 0.10 0.12 0.20 0.31 0.44 0.79 1.15 1.50 1.24 0.79 0.58 0.46 0.41 0.40 0.45
0.11 0.06 0.05 0.07 0.09 0.08 0.08 0.09 0.11 0.12 0.13 0.15 0.15 0.15 0.13 0.12 0.15 0.21 0.24 0.27 0.28 0.25 0.20 0.16 0.13 0.11 0.12 0.13 0.13 0.16 0.22 0.25 0.35 0.74 1.03 1.13 0.84 0.58 0.44 0.37 0.31 0.27 0.29
0.17 0.15 0.13 0.13 0.12 0.13 0.17 0.19 0.20 0.18 0.18 0.18 0.16 0.14 0.12 0.13 0.16 0.20 0.24 0.29 0.28 0.20 0.15 0.14 0.12 0.10 0.10 0.10 0.10 0.12 0.16 0.23 0.30 0.55 0.93 1.01 0.62 0.50 0.43 0.33 0.25 0.23 0.24
0.38 0.37 0.35 0.29 0.23 0.21 0.23 0.26 0.27 0.27 0.26 0.22 0.18 0.14 0.15 0.19 0.21 0.24 0.21 0.23 0.22 0.17 0.13 0.11 0.09 0.07 0.06 0.06 0.06 0.09 0.14 0.16 0.21 0.47 0.77 0.76 0.61 0.61 0.56 0.43 0.30 0.24 0.23
0.79 0.77 0.65 0.55 0.41 0.38 0.36 0.31 0.33 0.33 0.32 0.27 0.24 0.21 0.23 0.27 0.30 0.32 0.27 0.30 0.24 0.19 0.15 0.12 0.10 0.09 0.08 0.06 0.07 0.10 0.11 0.11 0.23 0.44 0.72 0.70 0.75 0.78 0.75 0.63 0.47 0.36 0.30
1.17 1.02 0.80 0.76 0.69 0.63 0.50 0.47 0.49 0.42 0.37 0.34 0.39 0.34 0.37 0.54 0.62 0.57 0.56 0.45 0.40 0.33 0.25 0.22 0.20 0.16 0.10 0.09 0.09 0.10 0.10 0.12 0.22 0.39 0.61 0.72 0.82 0.90 0.87 0.74 0.58 0.47 0.41
1.29 1.06 0.93 0.98 0.96 0.95 0.93 0.93 0.82 0.75 0.69 0.58 0.65 0.62 0.65 0.69 0.67 0.72 0.72 0.62 0.57 0.53 0.46 0.44 0.32 0.24 0.19 0.20 0.21 0.18 0.16 0.18 0.23 0.34 0.56 0.73 0.79 0.92 0.99 0.85 0.69 0.62 0.54
1.60 1.30 1.08 1.03 1.10 1.24 1.25 1.21 1.19 1.14 1.08 0.97 0.90 0.83 0.90 0.97 0.98 0.93 1.03 1.00 0.96 0.89 0.81 0.72 0.60 0.48 0.41 0.39 0.43 0.41 0.35 0.32 0.34 0.44 0.58 0.67 0.76 0.97 1.06 0.97 0.82 0.75 0.68
2.01 1.78 1.48 1.38 1.32 1.33 1.44 1.42 1.20 1.22 1.26 1.34 1.25 1.15 1.21 1.14 1.16 1.30 1.30 1.37 1.30 1.33 1.23 1.07 0.89 0.80 0.70 0.62 0.64 0.64 0.57 0.57 0.55 0.61 0.76 0.84 0.89 1.04 1.18 1.17 1.05 0.95 0.89
2.17 2.07 1.83 1.58 1.54 1.50 1.62 1.70 1.55 1.45 1.45 1.48 1.50 1.40 1.44 1.45 1.45 1.50 1.53 1.60 1.50 1.50 1.52 1.39 1.17 1.05 0.96 0.86 0.80 0.78 0.76 0.80 0.81 0.79 0.92 0.98 0.98 0.99 1.13 1.31 1.32 1.28 1.27
2.25 2.09 2.07 1.88 1.96 1.98 2.08 2.06 2.08 2.03 1.99 1.90 1.81 1.82 1.77 1.74 1.76 1.70 1.85 1.94 1.79 1.73 1.74 1.64 1.54 1.30 1.27 1.25 1.19 1.09 1.01 0.99 1.06 1.09 1.12 1.20 1.24 1.17 1.14 1.25 1.35 1.39 1.42
2.06 2.10 2.19 2.03 2.08 2.21 2.18 2.09 2.15 2.34 2.36 2.28 2.19 2.21 2.07 2.04 2.08 2.15 2.11 2.04 1.99 1.95 1.93 1.98 1.82 1.59 1.53 1.63 1.58 1.39 1.20 1.20 1.31 1.33 1.30 1.35 1.43 1.38 1.36 1.26 1.29 1.37 1.43
2.01 1.91 2.02 2.19 2.14 2.26 2.27 2.21 2.30 2.54 2.67 2.70 2.66 2.56 2.43 2.41 2.42 2.52 2.60 2.47 2.28 2.17 2.16 2.05 2.00 1.89 1.87 1.86 1.66 1.47 1.29 1.24 1.31 1.36 1.34 1.40 1.50 1.56 1.54 1.36 1.34 1.47 1.53
1.96 1.96 1.99 2.21 2.19 2.35 2.48 2.37 2.44 2.51 2.60 2.73 2.85 2.94 3.07 3.10 3.05 2.99 2.88 2.74 2.56 2.45 2.40 2.30 2.24 2.17 2.04 1.89 1.60 1.43 1.25 1.16 1.19 1.26 1.31 1.32 1.33 1.37 1.38 1.33 1.31 1.30 1.39
2.06 2.09 2.01 2.06 2.25 2.35 2.49 2.61 2.85 2.86 2.83 3.06 3.33 3.48 3.66 3.74 3.56 3.49 3.37 3.18 2.98 2.77 2.62 2.42 2.28 2.20 2.03 1.84 1.66 1.50 1.27 1.07 1.07 1.11 1.12 1.14 1.17 1.16 1.18 1.21 1.28 1.24 1.20
2.15 2.12 2.16 2.36 2.44 2.55 2.88 3.32 3.72 4.03 4.19 4.25 4.40 4.42 4.33 4.19 4.06 3.93 3.82 3.58 3.32 3.07 2.82 2.60 2.34 2.17 1.98 1.79 1.69 1.68 1.50 1.29 1.02 0.87 0.87 0.87 0.89 0.88 0.91 0.99 0.99 0.99 0.97
2.01 2.19 2.25 2.55 2.88 3.23 3.72 4.26 4.64 4.99 5.21 5.12 4.93 4.78 4.55 4.34 4.13 3.81 3.62 3.55 3.32 2.96 2.71 2.51 2.29 2.10 1.90 1.74 1.59 1.63 1.55 1.38 1.15 0.99 0.85 0.75 0.74 0.78 0.81 0.88 0.91 0.86 0.80
1.74 2.03 2.32 2.61 3.10 3.85 4.56 5.10 5.51 5.69 5.68 5.57 5.32 4.93 4.53 4.19 3.88 3.55 3.27 3.03 2.81 2.53 2.29 2.13 2.03 1.93 1.83 1.71 1.59 1.38 1.18 1.02 1.04 1.03 0.93 0.82 0.75 0.76 0.73 0.71 0.74 0.77 0.74
1.50 1.83 2.21 2.65 3.27 3.91 4.57 5.13 5.56 5.73 5.64 5.39 4.95 4.44 3.94 3.47 3.11 2.83 2.55 2.28 2.06 1.86 1.68 1.52 1.49 1.60 1.66 1.64 1.61 1.51 1.33 1.13 0.98 0.93 0.94 0.89 0.85 0.84 0.79 0.73 0.69 0.69 0.67
1.31 1.64 2.00 2.42 2.97 3.47 3.88 4.39 4.71 4.88 4.83 4.50 4.02 3.44 2.99 2.67 2.38 2.13 1.89 1.67 1.48 1.31 1.17 1.12 1.11 1.18 1.28 1.35 1.38 1.37 1.35 1.33 1.23 1.09 1.05 1.01 0.98 0.98 0.92 0.86 0.81 0.76 0.72

GEFSSE_prec_meanprecacc_138.txt.gz
Total_Precipitation_Accumulation
0.09 0.05 0.05 0.04 0.04 0.05 0.05 0.06 0.07 0.08 0.08 0.07 0.06 0.05 0.06 0.06 0.06 0.05 0.04 0.05 0.08 0.13 0.17 0.20 0.21 0.25 0.27 0.20 0.11 0.08 0.07 0.06 0.08 0.09 0.12 0.14 0.16 0.17 0.17 0.13 0.14 0.11 0.08
0.08 0.05 0.05 0.04 0.04 0.05 0.05 0.06 0.07 0.08 0.07 0.06 0.06 0.05 0.05 0.06 0.07 0.07 0.06 0.07 0.10 0.12 0.13 0.15 0.17 0.18 0.17 0.11 0.07 0.07 0.07 0.09 0.16 0.24 0.31 0.32 0.29 0.25 0.26 0.26 0.25 0.16 0.09
0.08 0.06 0.05 0.04 0.03 0.04 0.05 0.07 0.07 0.08 0.09 0.08 0.07 0.06 0.06 0.07 0.07 0.07 0.07 0.08 0.12 0.14 0.13 0.12 0.12 0.11 0.09 0.07 0.06 0.07 0.09 0.15 0.28 0.43 0.67 0.81 0.63 0.47 0.35 0.29 0.25 0.17 0.15
0.08 0.05 0.04 0.04 0.03 0.04 0.04 0.05 0.07 0.08 0.08 0.07 0.06 0.06 0.06 0.06 0.07 0.08 0.09 0.11 0.15 0.18 0.17 0.13 0.10 0.08 0.06 0.05 0.06 0.08 0.12 0.20 0.35 0.60 1.14 1.02 0.97 0.77 0.42 0.29 0.23 0.24 0.31
0.06 0.04 0.05 0.04 0.04 0.04 0.04 0.04 0.06 0.07 0.07 0.07 0.06 0.06 0.07 0.07 0.07 0.10 0.14 0.17 0.19 0.19 0.21 0.18 0.13 0.09 0.06 0.05 0.06 0.10 0.15 0.25 0.46 0.76 1.17 1.36 1.49 0.97 0.53 0.39 0.33 0.33 0.40
0.07 0.04 0.04 0.05 0.05 0.05 0.04 0.05 0.07 0.08 0.08 0.08 0.08 0.09 0.09 0.09 0.10 0.14 0.21 0.27 0.25 0.23 0.26 0.25 0.21 0.14 0.08 0.06 0.08 0.12 0.19 0.31 0.48 0.76 1.17 1.63 1.45 0.96 0.65 0.49 0.43 0.42 0.46
0.09 0.05 0.05 0.08 0.09 0.08 0.06 0.07 0.09 0.10 0.12 0.14 0.14 0.13 0.14 0.14 0.16 0.20 0.28 0.29 0.29 0.28 0.28 0.24 0.18 0.11 0.09 0.10 0.11 0.14 0.22 0.34 0.48 0.82 1.19 1.55 1.29 0.85 0.64 0.50 0.43 0.42 0.46
0.12 0.07 0.07 0.10 0.11 0.11 0.11 0.11 0.13 0.15 0.16 0.17 0.17 0.17 0.14 0.14 0.17 0.23 0.27 0.29 0.29 0.26 0.22 0.17 0.14 0.12 0.12 0.13 0.14 0.17 0.24 0.28 0.37 0.77 1.08 1.19 0.89 0.63 0.51 0.44 0.37 0.31 0.32
0.19 0.18 0.16 0.17 0.15 0.17 0.21 0.23 0.23 0.22 0.22 0.20 0.18 0.16 0.14 0.15 0.18 0.22 0.26 0.31 0.31 0.22 0.17 0.15 0.13 0.12 0.11 0.11 0.11 0.13 0.18 0.25 0.32 0.58 0.95 1.06 0.66 0.56 0.53 0.43 0.32 0.28 0.28
0.43 0.43 0.41 0.35 0.29 0.25 0.26 0.30 0.31 0.32 0.30 0.25 0.20 0.16 0.18 0.21 0.23 0.26 0.24 0.26 0.25 0.20 0.16 0.14 0.12 0.10 0.09 0.08 0.08 0.11 0.16 0.18 0.22 0.48 0.80 0.80 0.63 0.69 0.71 0.56 0.38 0.29 0.27
0.88 0.88 0.76 0.65 0.51 0.47 0.44 0.37 0.41 0.41 0.39 0.33 0.28 0.25 0.27 0.30 0.33 0.36 0.31 0.34 0.28 0.23 0.19 0.17 0.15 0.13 0.12 0.10 0.10 0.12 0.13 0.13 0.24 0.45 0.75 0.72 0.78 0.85 0.86 0.75 0.57 0.44 0.38
1.27 1.13 0.92 0.90 0.83 0.76 0.61 0.56 0.56 0.48 0.44 0.39 0.44 0.39 0.43 0.61 0.68 0.62 0.60 0.49 0.44 0.39 0.32 0.29 0.26 0.20 0.14 0.14 0.14 0.13 0.12 0.14 0.24 0.40 0.63 0.74 0.85 0.96 0.97 0.84 0.68 0.58 0.53
1.35 1.13 1.02 1.10 1.09 1.08 1.04 1.02 0.89 0.81 0.74 0.63 0.69 0.67 0.72 0.75 0.72 0.77 0.78 0.68 0.63 0.59 0.54 0.51 0.38 0.28 0.25 0.26 0.28 0.22 0.18 0.20 0.26 0.36 0.59 0.76 0.84 1.01 1.11 0.98 0.81 0.74 0.66
1.64 1.34 1.12 1.09 1.17 1.32 1.33 1.31 1.29 1.24 1.16 1.04 0.94 0.88 0.96 1.03 1.04 0.99 1.10 1.08 1.06 0.98 0.90 0.80 0.66 0.54 0.46 0.45 0.49 0.47 0.40 0.36 0.38 0.48 0.63 0.70 0.82 1.07 1.21 1.12 0.96 0.88 0.79
2.05 1.82 1.52 1.44 1.40 1.41 1.53 1.52 1.30 1.33 1.35 1.41 1.32 1.20 1.26 1.22 1.25 1.38 1.38 1.48 1.40 1.43 1.33 1.17 0.97 0.88 0.77 0.68 0.70 0.70 0.64 0.62 0.60 0.66 0.80 0.88 0.95 1.13 1.31 1.32 1.19 1.08 1.04
2.21 2.11 1.87 1.65 1.62 1.58 1.72 1.80 1.62 1.54 1.56 1.56 1.57 1.45 1.50 1.50 1.53 1.59 1.63 1.69 1.59 1.59 1.62 1.48 1.26 1.13 1.04 0.93 0.86 0.83 0.80 0.84 0.86 0.83 0.97 1.05 1.02 1.04 1.21 1.42 1.46 1.45 1.43
2.28 2.13 2.13 1.98 2.05 2.06 2.15 2.12 2.13 2.09 2.09 2.00 1.87 1.86 1.80 1.79 1.82 1.77 1.92 2.01 1.86 1.80 1.81 1.70 1.60 1.36 1.32 1.30 1.24 1.14 1.06 1.04 1.11 1.15 1.19 1.28 1.35 1.26 1.24 1.37 1.48 1.54 1.58
2.12 2.17 2.27 2.15 2.19 2.31 2.26 2.15 2.20 2.41 2.42 2.33 2.23 2.25 2.12 2.10 2.14 2.21 2.16 2.11 2.05 2.01 2.00 2.04 1.87 1.64 1.59 1.68 1.62 1.42 1.25 1.26 1.37 1.40 1.37 1.43 1.53 1.47 1.46 1.36 1.40 1.49 1.57
2.11 2.01 2.11 2.27 2.23 2.35 2.35 2.27 2.35 2.60 2.72 2.75 2.72 2.63 2.51 2.50 2.50 2.58 2.67 2.52 2.33 2.21 2.20 2.08 2.04 1.93 1.92 1.92 1.69 1.50 1.31 1.28 1.35 1.39 1.38 1.45 1.57 1.64 1.65 1.48 1.45 1.58 1.64
2.07 2.07 2.07 2.28 2.26 2.42 2.55 2.43 2.49 2.56 2.66 2.79 2.93 3.03 3.16 3.18 3.14 3.08 2.96 2.79 2.61 2.49 2.44 2.34 2.28 2.21 2.08 1.93 1.62 1.45 1.27 1.19 1.22 1.29 1.34 1.36 1.39 1.44 1.45 1.42 1.44 1.42 1.50
2.16 2.19 2.10 2.13 2.31 2.40 2.55 2.67 2.89 2.91 2.89 3.12 3.40 3.55 3.74 3.81 3.63 3.55 3.42 3.22 3.02 2.81 2.65 2.46 2.32 2.23 2.07 1.88 1.69 1.52 1.29 1.10 1.10 1.15 1.15 1.18 1.22 1.22 1.24 1.28 1.38 1.36 1.31
2.22 2.19 2.22 2.41 2.48 2.60 2.93 3.36 3.77 4.09 4.25 4.32 4.48 4.50 4.41 4.26 4.12 3.98 3.85 3.61 3.35 3.10 2.85 2.63 2.37 2.21 2.02 1.83 1.73 1.74 1.55 1.33 1.06 0.90 0.90 0.92 0.95 0.94 0.98 1.07 1.08 1.10 1.09
2.05 2.22 2.30 2.60 2.94 3.28 3.75 4.30 4.71 5.05 5.27 5.19 5.00 4.85 4.62 4.40 4.19 3.86 3.65 3.58 3.35 3.00 2.75 2.55 2.32 2.13 1.94 1.77 1.64 1.70 1.63 1.46 1.21 1.04 0.89 0.79 0.79 0.86 0.89 0.98 1.01 0.96 0.92
1.78 2.07 2.37 2.66 3.18 3.92 4.60 5.15 5.61 5.80 5.77 5.63 5.37 4.99 4.58 4.25 3.93 3.60 3.31 3.06 2.84 2.56 2.32 2.17 2.06 1.96 1.87 1.74 1.64 1.43 1.24 1.08 1.11 1.08 0.97 0.86 0.80 0.83 0.82 0.81 0.85 0.88 0.85
1.54 1.86 2.25 2.70 3.31 3.94 4.60 5.17 5.62 5.81 5.71 5.44 5.00 4.49 3.98 3.51 3.15 2.88 2.59 2.32 2.09 1.90 1.72 1.56 1.52 1.63 1.70 1.69 1.66 1.56 1.38 1.18 1.03 0.97 0.99 0.94 0.90 0.91 0.88 0.84 0.81 0.81 0.77
1.34 1.66 2.05 2.47 2.99 3.50 3.92 4.44 4.75 4.92 4.86 4.52 4.04 3.46 3.02 2.69 2.40 2.16 1.92 1.71 1.53 1.36 1.23 1.17 1.15 1.21 1.31 1.38 1.41 1.41 1.41 1.39 1.29 1.15 1.10 1.06 1.03 1.03 0.97 0.94 0.92 0.89 0.86